<?xml version="1.0" encoding="UTF-8" standalone="no" ?>
<gpx xmlns="http://www.topografix.com/GPX/1/1" xmlns:xsi="http://www.w3.org/2001/XMLSchema-instance" xsi:schemaLocation="http://www.topografix.com/GPX/1/1 http://www.topografix.com/GPX/1/1/gpx.xsd" version="1.1" creator="VisuGPX - https://www.visugpx.com">
  <metadata>
    <name>ENTRE VALDURENQUE ET SIDOBRE</name>
    <desc><![CDATA[Découverte d\'une petite partie du Sidobre à partir de Valdurenque]]></desc>
  </metadata>
  <trk>
    <name><![CDATA[2014-06-18T07_1]]></name>
    <trkseg>
      <trkpt lat="43.56821" lon="2.3099">
        <ele>213.5500488</ele>
        <time>2014-06-18T07:10:42Z</time>
      </trkpt>
      <trkpt lat="43.56821" lon="2.3099">
        <ele>213.0693359</ele>
        <time>2014-06-18T07:10:43Z</time>
      </trkpt>
      <trkpt lat="43.56833" lon="2.30987">
        <ele>214.9919434</ele>
        <time>2014-06-18T07:10:48Z</time>
      </trkpt>
      <trkpt lat="43.56842" lon="2.30967">
        <ele>214.5112305</ele>
        <time>2014-06-18T07:10:52Z</time>
      </trkpt>
      <trkpt lat="43.56849" lon="2.30945">
        <ele>216.43396</ele>
        <time>2014-06-18T07:10:56Z</time>
      </trkpt>
      <trkpt lat="43.56859" lon="2.30913">
        <ele>214.9919434</ele>
        <time>2014-06-18T07:11:01Z</time>
      </trkpt>
      <trkpt lat="43.5686" lon="2.30899">
        <ele>215.4726563</ele>
        <time>2014-06-18T07:11:03Z</time>
      </trkpt>
      <trkpt lat="43.56861" lon="2.30893">
        <ele>215.4726563</ele>
        <time>2014-06-18T07:11:04Z</time>
      </trkpt>
      <trkpt lat="43.56862" lon="2.30873">
        <ele>216.43396</ele>
        <time>2014-06-18T07:11:06Z</time>
      </trkpt>
      <trkpt lat="43.56883" lon="2.30871">
        <ele>215.4726563</ele>
        <time>2014-06-18T07:11:10Z</time>
      </trkpt>
      <trkpt lat="43.56889" lon="2.30872">
        <ele>215.4726563</ele>
        <time>2014-06-18T07:11:11Z</time>
      </trkpt>
      <trkpt lat="43.56915" lon="2.30871">
        <ele>212.1080322</ele>
        <time>2014-06-18T07:11:15Z</time>
      </trkpt>
      <trkpt lat="43.56952" lon="2.30888">
        <ele>210.6660156</ele>
        <time>2014-06-18T07:11:19Z</time>
      </trkpt>
      <trkpt lat="43.56999" lon="2.30917">
        <ele>209.2241211</ele>
        <time>2014-06-18T07:11:25Z</time>
      </trkpt>
      <trkpt lat="43.57034" lon="2.30952">
        <ele>208.7434082</ele>
        <time>2014-06-18T07:11:31Z</time>
      </trkpt>
      <trkpt lat="43.57049" lon="2.30972">
        <ele>206.8206787</ele>
        <time>2014-06-18T07:11:34Z</time>
      </trkpt>
      <trkpt lat="43.57073" lon="2.3103">
        <ele>204.8980713</ele>
        <time>2014-06-18T07:11:41Z</time>
      </trkpt>
      <trkpt lat="43.57077" lon="2.31039">
        <ele>204.8980713</ele>
        <time>2014-06-18T07:11:42Z</time>
      </trkpt>
      <trkpt lat="43.57091" lon="2.31084">
        <ele>204.4174805</ele>
        <time>2014-06-18T07:11:47Z</time>
      </trkpt>
      <trkpt lat="43.57108" lon="2.31104">
        <ele>202.494873</ele>
        <time>2014-06-18T07:11:51Z</time>
      </trkpt>
      <trkpt lat="43.57117" lon="2.31103">
        <ele>202.9754639</ele>
        <time>2014-06-18T07:11:52Z</time>
      </trkpt>
      <trkpt lat="43.57125" lon="2.31101">
        <ele>202.9754639</ele>
        <time>2014-06-18T07:11:53Z</time>
      </trkpt>
      <trkpt lat="43.57132" lon="2.31097">
        <ele>202.9754639</ele>
        <time>2014-06-18T07:11:54Z</time>
      </trkpt>
      <trkpt lat="43.5715" lon="2.31089">
        <ele>202.0142822</ele>
        <time>2014-06-18T07:11:56Z</time>
      </trkpt>
      <trkpt lat="43.57185" lon="2.31093">
        <ele>203.9368896</ele>
        <time>2014-06-18T07:12:00Z</time>
      </trkpt>
      <trkpt lat="43.57199" lon="2.31118">
        <ele>205.8594971</ele>
        <time>2014-06-18T07:12:03Z</time>
      </trkpt>
      <trkpt lat="43.57203" lon="2.31135">
        <ele>206.3400879</ele>
        <time>2014-06-18T07:12:05Z</time>
      </trkpt>
      <trkpt lat="43.57212" lon="2.3116">
        <ele>207.7821045</ele>
        <time>2014-06-18T07:12:08Z</time>
      </trkpt>
      <trkpt lat="43.57226" lon="2.3121">
        <ele>208.7434082</ele>
        <time>2014-06-18T07:12:14Z</time>
      </trkpt>
      <trkpt lat="43.57234" lon="2.31243">
        <ele>208.7434082</ele>
        <time>2014-06-18T07:12:18Z</time>
      </trkpt>
      <trkpt lat="43.57239" lon="2.31269">
        <ele>209.704834</ele>
        <time>2014-06-18T07:12:21Z</time>
      </trkpt>
      <trkpt lat="43.57242" lon="2.31288">
        <ele>210.6660156</ele>
        <time>2014-06-18T07:12:23Z</time>
      </trkpt>
      <trkpt lat="43.57254" lon="2.31363">
        <ele>211.1467285</ele>
        <time>2014-06-18T07:12:31Z</time>
      </trkpt>
      <trkpt lat="43.57268" lon="2.31445">
        <ele>215.4726563</ele>
        <time>2014-06-18T07:12:40Z</time>
      </trkpt>
      <trkpt lat="43.57286" lon="2.3149">
        <ele>218.8372803</ele>
        <time>2014-06-18T07:12:46Z</time>
      </trkpt>
      <trkpt lat="43.57303" lon="2.31536">
        <ele>221.2406006</ele>
        <time>2014-06-18T07:12:52Z</time>
      </trkpt>
      <trkpt lat="43.57316" lon="2.31579">
        <ele>222.6824951</ele>
        <time>2014-06-18T07:12:58Z</time>
      </trkpt>
      <trkpt lat="43.57329" lon="2.31604">
        <ele>222.2017822</ele>
        <time>2014-06-18T07:13:02Z</time>
      </trkpt>
      <trkpt lat="43.5736" lon="2.31646">
        <ele>223.163208</ele>
        <time>2014-06-18T07:13:10Z</time>
      </trkpt>
      <trkpt lat="43.5739" lon="2.31683">
        <ele>221.7211914</ele>
        <time>2014-06-18T07:13:18Z</time>
      </trkpt>
      <trkpt lat="43.57404" lon="2.31702">
        <ele>222.2017822</ele>
        <time>2014-06-18T07:13:22Z</time>
      </trkpt>
      <trkpt lat="43.57417" lon="2.31724">
        <ele>222.6824951</ele>
        <time>2014-06-18T07:13:26Z</time>
      </trkpt>
      <trkpt lat="43.57427" lon="2.3177">
        <ele>225.5665283</ele>
        <time>2014-06-18T07:13:33Z</time>
      </trkpt>
      <trkpt lat="43.57432" lon="2.31804">
        <ele>228.9311523</ele>
        <time>2014-06-18T07:13:39Z</time>
      </trkpt>
      <trkpt lat="43.57439" lon="2.31837">
        <ele>231.3343506</ele>
        <time>2014-06-18T07:13:46Z</time>
      </trkpt>
      <trkpt lat="43.57446" lon="2.31863">
        <ele>229.4117432</ele>
        <time>2014-06-18T07:13:50Z</time>
      </trkpt>
      <trkpt lat="43.57458" lon="2.31892">
        <ele>227.0085449</ele>
        <time>2014-06-18T07:13:54Z</time>
      </trkpt>
      <trkpt lat="43.57472" lon="2.31923">
        <ele>225.5665283</ele>
        <time>2014-06-18T07:13:58Z</time>
      </trkpt>
      <trkpt lat="43.57488" lon="2.31963">
        <ele>224.1245117</ele>
        <time>2014-06-18T07:14:03Z</time>
      </trkpt>
      <trkpt lat="43.57494" lon="2.31979">
        <ele>223.6437988</ele>
        <time>2014-06-18T07:14:05Z</time>
      </trkpt>
      <trkpt lat="43.57503" lon="2.32014">
        <ele>223.163208</ele>
        <time>2014-06-18T07:14:10Z</time>
      </trkpt>
      <trkpt lat="43.57509" lon="2.32035">
        <ele>223.6437988</ele>
        <time>2014-06-18T07:14:14Z</time>
      </trkpt>
      <trkpt lat="43.57509" lon="2.32038">
        <ele>223.6437988</ele>
        <time>2014-06-18T07:14:16Z</time>
      </trkpt>
      <trkpt lat="43.57509" lon="2.32037">
        <ele>223.6437988</ele>
        <time>2014-06-18T07:14:22Z</time>
      </trkpt>
      <trkpt lat="43.57509" lon="2.32036">
        <ele>223.6437988</ele>
        <time>2014-06-18T07:14:26Z</time>
      </trkpt>
      <trkpt lat="43.57509" lon="2.32036">
        <ele>223.6437988</ele>
        <time>2014-06-18T07:14:30Z</time>
      </trkpt>
      <trkpt lat="43.57509" lon="2.32036">
        <ele>223.6437988</ele>
        <time>2014-06-18T07:14:31Z</time>
      </trkpt>
      <trkpt lat="43.57509" lon="2.32036">
        <ele>223.163208</ele>
        <time>2014-06-18T07:14:36Z</time>
      </trkpt>
      <trkpt lat="43.57508" lon="2.32038">
        <ele>224.1245117</ele>
        <time>2014-06-18T07:14:44Z</time>
      </trkpt>
      <trkpt lat="43.57507" lon="2.32039">
        <ele>226.527832</ele>
        <time>2014-06-18T07:14:57Z</time>
      </trkpt>
      <trkpt lat="43.57507" lon="2.3204">
        <ele>229.4117432</ele>
        <time>2014-06-18T07:15:09Z</time>
      </trkpt>
      <trkpt lat="43.57508" lon="2.32035">
        <ele>224.1245117</ele>
        <time>2014-06-18T07:16:15Z</time>
      </trkpt>
      <trkpt lat="43.57508" lon="2.32036">
        <ele>220.2791748</ele>
        <time>2014-06-18T07:16:52Z</time>
      </trkpt>
      <trkpt lat="43.5751" lon="2.32035">
        <ele>227.0085449</ele>
        <time>2014-06-18T07:17:14Z</time>
      </trkpt>
      <trkpt lat="43.57512" lon="2.3204">
        <ele>226.527832</ele>
        <time>2014-06-18T07:17:36Z</time>
      </trkpt>
      <trkpt lat="43.57514" lon="2.32053">
        <ele>226.527832</ele>
        <time>2014-06-18T07:17:40Z</time>
      </trkpt>
      <trkpt lat="43.57515" lon="2.32064">
        <ele>227.0085449</ele>
        <time>2014-06-18T07:17:42Z</time>
      </trkpt>
      <trkpt lat="43.57515" lon="2.32073">
        <ele>227.0085449</ele>
        <time>2014-06-18T07:17:44Z</time>
      </trkpt>
      <trkpt lat="43.57515" lon="2.32075">
        <ele>227.4891357</ele>
        <time>2014-06-18T07:17:45Z</time>
      </trkpt>
      <trkpt lat="43.57514" lon="2.32076">
        <ele>231.8149414</ele>
        <time>2014-06-18T07:17:55Z</time>
      </trkpt>
      <trkpt lat="43.57513" lon="2.32078">
        <ele>236.1409912</ele>
        <time>2014-06-18T07:18:07Z</time>
      </trkpt>
      <trkpt lat="43.57513" lon="2.32076">
        <ele>237.5828857</ele>
        <time>2014-06-18T07:18:21Z</time>
      </trkpt>
      <trkpt lat="43.57514" lon="2.32062">
        <ele>232.2957764</ele>
        <time>2014-06-18T07:18:27Z</time>
      </trkpt>
      <trkpt lat="43.57519" lon="2.32055">
        <ele>230.3730469</ele>
        <time>2014-06-18T07:18:30Z</time>
      </trkpt>
      <trkpt lat="43.5753" lon="2.32055">
        <ele>227.4891357</ele>
        <time>2014-06-18T07:18:35Z</time>
      </trkpt>
      <trkpt lat="43.57534" lon="2.32058">
        <ele>226.0471191</ele>
        <time>2014-06-18T07:18:37Z</time>
      </trkpt>
      <trkpt lat="43.57545" lon="2.32061">
        <ele>225.0859375</ele>
        <time>2014-06-18T07:18:41Z</time>
      </trkpt>
      <trkpt lat="43.57554" lon="2.32063">
        <ele>225.5665283</ele>
        <time>2014-06-18T07:18:44Z</time>
      </trkpt>
      <trkpt lat="43.57563" lon="2.32065">
        <ele>226.527832</ele>
        <time>2014-06-18T07:18:47Z</time>
      </trkpt>
      <trkpt lat="43.57568" lon="2.32068">
        <ele>227.0085449</ele>
        <time>2014-06-18T07:18:49Z</time>
      </trkpt>
      <trkpt lat="43.57571" lon="2.32069">
        <ele>227.4891357</ele>
        <time>2014-06-18T07:18:50Z</time>
      </trkpt>
      <trkpt lat="43.57575" lon="2.32073">
        <ele>227.0085449</ele>
        <time>2014-06-18T07:18:52Z</time>
      </trkpt>
      <trkpt lat="43.57578" lon="2.32076">
        <ele>227.4891357</ele>
        <time>2014-06-18T07:18:53Z</time>
      </trkpt>
      <trkpt lat="43.57582" lon="2.32085">
        <ele>227.9697266</ele>
        <time>2014-06-18T07:18:56Z</time>
      </trkpt>
      <trkpt lat="43.5759" lon="2.32097">
        <ele>230.8537598</ele>
        <time>2014-06-18T07:19:02Z</time>
      </trkpt>
      <trkpt lat="43.57596" lon="2.32109">
        <ele>231.8149414</ele>
        <time>2014-06-18T07:19:07Z</time>
      </trkpt>
      <trkpt lat="43.57607" lon="2.32126">
        <ele>231.3343506</ele>
        <time>2014-06-18T07:19:14Z</time>
      </trkpt>
      <trkpt lat="43.57616" lon="2.32138">
        <ele>231.8149414</ele>
        <time>2014-06-18T07:19:19Z</time>
      </trkpt>
      <trkpt lat="43.57625" lon="2.32157">
        <ele>233.7376709</ele>
        <time>2014-06-18T07:19:26Z</time>
      </trkpt>
      <trkpt lat="43.57637" lon="2.3218">
        <ele>237.1022949</ele>
        <time>2014-06-18T07:19:35Z</time>
      </trkpt>
      <trkpt lat="43.57648" lon="2.32203">
        <ele>239.9862061</ele>
        <time>2014-06-18T07:19:44Z</time>
      </trkpt>
      <trkpt lat="43.57655" lon="2.3222">
        <ele>242.8702393</ele>
        <time>2014-06-18T07:19:51Z</time>
      </trkpt>
      <trkpt lat="43.57662" lon="2.32236">
        <ele>244.7928467</ele>
        <time>2014-06-18T07:19:58Z</time>
      </trkpt>
      <trkpt lat="43.57672" lon="2.32256">
        <ele>246.2348633</ele>
        <time>2014-06-18T07:20:05Z</time>
      </trkpt>
      <trkpt lat="43.57682" lon="2.3228">
        <ele>247.1960449</ele>
        <time>2014-06-18T07:20:13Z</time>
      </trkpt>
      <trkpt lat="43.57688" lon="2.32296">
        <ele>247.6767578</ele>
        <time>2014-06-18T07:20:18Z</time>
      </trkpt>
      <trkpt lat="43.57703" lon="2.32326">
        <ele>249.5994873</ele>
        <time>2014-06-18T07:20:28Z</time>
      </trkpt>
      <trkpt lat="43.57714" lon="2.32362">
        <ele>250.560791</ele>
        <time>2014-06-18T07:20:38Z</time>
      </trkpt>
      <trkpt lat="43.57721" lon="2.32398">
        <ele>252.0028076</ele>
        <time>2014-06-18T07:20:48Z</time>
      </trkpt>
      <trkpt lat="43.57725" lon="2.32428">
        <ele>252.9639893</ele>
        <time>2014-06-18T07:20:56Z</time>
      </trkpt>
      <trkpt lat="43.57732" lon="2.32464">
        <ele>255.3673096</ele>
        <time>2014-06-18T07:21:05Z</time>
      </trkpt>
      <trkpt lat="43.5774" lon="2.32501">
        <ele>258.2513428</ele>
        <time>2014-06-18T07:21:14Z</time>
      </trkpt>
      <trkpt lat="43.5775" lon="2.32528">
        <ele>260.654541</ele>
        <time>2014-06-18T07:21:21Z</time>
      </trkpt>
      <trkpt lat="43.57769" lon="2.32559">
        <ele>262.5771484</ele>
        <time>2014-06-18T07:21:30Z</time>
      </trkpt>
      <trkpt lat="43.57786" lon="2.32571">
        <ele>263.0578613</ele>
        <time>2014-06-18T07:21:36Z</time>
      </trkpt>
      <trkpt lat="43.57809" lon="2.32587">
        <ele>264.0192871</ele>
        <time>2014-06-18T07:21:45Z</time>
      </trkpt>
      <trkpt lat="43.57835" lon="2.32604">
        <ele>265.4613037</ele>
        <time>2014-06-18T07:21:55Z</time>
      </trkpt>
      <trkpt lat="43.57846" lon="2.32614">
        <ele>264.9805908</ele>
        <time>2014-06-18T07:22:02Z</time>
      </trkpt>
      <trkpt lat="43.57858" lon="2.32624">
        <ele>264.4998779</ele>
        <time>2014-06-18T07:22:09Z</time>
      </trkpt>
      <trkpt lat="43.57872" lon="2.32633">
        <ele>265.4613037</ele>
        <time>2014-06-18T07:22:14Z</time>
      </trkpt>
      <trkpt lat="43.57883" lon="2.32641">
        <ele>266.4224854</ele>
        <time>2014-06-18T07:22:20Z</time>
      </trkpt>
      <trkpt lat="43.57895" lon="2.32651">
        <ele>266.9031982</ele>
        <time>2014-06-18T07:22:27Z</time>
      </trkpt>
      <trkpt lat="43.57906" lon="2.3266">
        <ele>267.864502</ele>
        <time>2014-06-18T07:22:33Z</time>
      </trkpt>
      <trkpt lat="43.57931" lon="2.32677">
        <ele>272.6711426</ele>
        <time>2014-06-18T07:22:41Z</time>
      </trkpt>
      <trkpt lat="43.5795" lon="2.32693">
        <ele>275.0744629</ele>
        <time>2014-06-18T07:22:48Z</time>
      </trkpt>
      <trkpt lat="43.57967" lon="2.32711">
        <ele>276.9970703</ele>
        <time>2014-06-18T07:22:55Z</time>
      </trkpt>
      <trkpt lat="43.57992" lon="2.32736">
        <ele>278.9196777</ele>
        <time>2014-06-18T07:23:05Z</time>
      </trkpt>
      <trkpt lat="43.58008" lon="2.32755">
        <ele>279.8808594</ele>
        <time>2014-06-18T07:23:12Z</time>
      </trkpt>
      <trkpt lat="43.58022" lon="2.32772">
        <ele>279.8808594</ele>
        <time>2014-06-18T07:23:18Z</time>
      </trkpt>
      <trkpt lat="43.5804" lon="2.32793">
        <ele>282.2843018</ele>
        <time>2014-06-18T07:23:26Z</time>
      </trkpt>
      <trkpt lat="43.58059" lon="2.32814">
        <ele>284.2069092</ele>
        <time>2014-06-18T07:23:34Z</time>
      </trkpt>
      <trkpt lat="43.58072" lon="2.32829">
        <ele>284.6876221</ele>
        <time>2014-06-18T07:23:40Z</time>
      </trkpt>
      <trkpt lat="43.58085" lon="2.32843">
        <ele>284.6876221</ele>
        <time>2014-06-18T07:23:46Z</time>
      </trkpt>
      <trkpt lat="43.58096" lon="2.32855">
        <ele>284.2069092</ele>
        <time>2014-06-18T07:23:51Z</time>
      </trkpt>
      <trkpt lat="43.5811" lon="2.32864">
        <ele>285.1682129</ele>
        <time>2014-06-18T07:23:56Z</time>
      </trkpt>
      <trkpt lat="43.5813" lon="2.32872">
        <ele>286.1295166</ele>
        <time>2014-06-18T07:24:01Z</time>
      </trkpt>
      <trkpt lat="43.58158" lon="2.32878">
        <ele>286.6102295</ele>
        <time>2014-06-18T07:24:09Z</time>
      </trkpt>
      <trkpt lat="43.58193" lon="2.32884">
        <ele>286.6102295</ele>
        <time>2014-06-18T07:24:19Z</time>
      </trkpt>
      <trkpt lat="43.58217" lon="2.32888">
        <ele>287.0908203</ele>
        <time>2014-06-18T07:24:26Z</time>
      </trkpt>
      <trkpt lat="43.58235" lon="2.32891">
        <ele>288.532959</ele>
        <time>2014-06-18T07:24:31Z</time>
      </trkpt>
      <trkpt lat="43.58263" lon="2.32898">
        <ele>289.9748535</ele>
        <time>2014-06-18T07:24:39Z</time>
      </trkpt>
      <trkpt lat="43.58285" lon="2.32904">
        <ele>292.3781738</ele>
        <time>2014-06-18T07:24:46Z</time>
      </trkpt>
      <trkpt lat="43.58302" lon="2.32907">
        <ele>293.8200684</ele>
        <time>2014-06-18T07:24:53Z</time>
      </trkpt>
      <trkpt lat="43.58316" lon="2.32909">
        <ele>293.8200684</ele>
        <time>2014-06-18T07:24:59Z</time>
      </trkpt>
      <trkpt lat="43.58332" lon="2.32912">
        <ele>296.2235107</ele>
        <time>2014-06-18T07:25:06Z</time>
      </trkpt>
      <trkpt lat="43.58342" lon="2.32918">
        <ele>296.7041016</ele>
        <time>2014-06-18T07:25:12Z</time>
      </trkpt>
      <trkpt lat="43.58348" lon="2.3293">
        <ele>300.0687256</ele>
        <time>2014-06-18T07:25:18Z</time>
      </trkpt>
      <trkpt lat="43.58353" lon="2.32952">
        <ele>305.8366699</ele>
        <time>2014-06-18T07:25:26Z</time>
      </trkpt>
      <trkpt lat="43.58358" lon="2.3296">
        <ele>307.7592773</ele>
        <time>2014-06-18T07:25:29Z</time>
      </trkpt>
      <trkpt lat="43.58364" lon="2.32959">
        <ele>308.2398682</ele>
        <time>2014-06-18T07:25:33Z</time>
      </trkpt>
      <trkpt lat="43.58369" lon="2.32949">
        <ele>306.3172607</ele>
        <time>2014-06-18T07:25:38Z</time>
      </trkpt>
      <trkpt lat="43.58372" lon="2.32944">
        <ele>306.3172607</ele>
        <time>2014-06-18T07:25:41Z</time>
      </trkpt>
      <trkpt lat="43.58378" lon="2.32937">
        <ele>307.2785645</ele>
        <time>2014-06-18T07:25:46Z</time>
      </trkpt>
      <trkpt lat="43.58386" lon="2.32926">
        <ele>307.2785645</ele>
        <time>2014-06-18T07:25:52Z</time>
      </trkpt>
      <trkpt lat="43.58399" lon="2.32918">
        <ele>309.2011719</ele>
        <time>2014-06-18T07:25:59Z</time>
      </trkpt>
      <trkpt lat="43.58409" lon="2.32918">
        <ele>312.5657959</ele>
        <time>2014-06-18T07:26:05Z</time>
      </trkpt>
      <trkpt lat="43.58411" lon="2.32918">
        <ele>313.0465088</ele>
        <time>2014-06-18T07:26:06Z</time>
      </trkpt>
      <trkpt lat="43.58413" lon="2.3291">
        <ele>312.0852051</ele>
        <time>2014-06-18T07:26:10Z</time>
      </trkpt>
      <trkpt lat="43.58413" lon="2.32903">
        <ele>310.6430664</ele>
        <time>2014-06-18T07:26:16Z</time>
      </trkpt>
      <trkpt lat="43.58415" lon="2.32906">
        <ele>309.2011719</ele>
        <time>2014-06-18T07:26:25Z</time>
      </trkpt>
      <trkpt lat="43.58414" lon="2.32906">
        <ele>308.720459</ele>
        <time>2014-06-18T07:26:33Z</time>
      </trkpt>
      <trkpt lat="43.58414" lon="2.32906">
        <ele>309.2011719</ele>
        <time>2014-06-18T07:26:39Z</time>
      </trkpt>
      <trkpt lat="43.58413" lon="2.32906">
        <ele>309.2011719</ele>
        <time>2014-06-18T07:26:43Z</time>
      </trkpt>
      <trkpt lat="43.58413" lon="2.32905">
        <ele>310.1624756</ele>
        <time>2014-06-18T07:26:49Z</time>
      </trkpt>
      <trkpt lat="43.58415" lon="2.32905">
        <ele>311.1237793</ele>
        <time>2014-06-18T07:26:53Z</time>
      </trkpt>
      <trkpt lat="43.58415" lon="2.32905">
        <ele>311.6044922</ele>
        <time>2014-06-18T07:27:02Z</time>
      </trkpt>
      <trkpt lat="43.58415" lon="2.32905">
        <ele>310.1624756</ele>
        <time>2014-06-18T07:27:08Z</time>
      </trkpt>
      <trkpt lat="43.58413" lon="2.32905">
        <ele>309.2011719</ele>
        <time>2014-06-18T07:27:16Z</time>
      </trkpt>
      <trkpt lat="43.58412" lon="2.32905">
        <ele>309.6818848</ele>
        <time>2014-06-18T07:27:27Z</time>
      </trkpt>
      <trkpt lat="43.58413" lon="2.32902">
        <ele>306.7978516</ele>
        <time>2014-06-18T07:27:37Z</time>
      </trkpt>
      <trkpt lat="43.58413" lon="2.32902">
        <ele>305.355957</ele>
        <time>2014-06-18T07:27:44Z</time>
      </trkpt>
      <trkpt lat="43.58414" lon="2.32902">
        <ele>306.3172607</ele>
        <time>2014-06-18T07:27:52Z</time>
      </trkpt>
      <trkpt lat="43.58415" lon="2.32903">
        <ele>309.6818848</ele>
        <time>2014-06-18T07:28:04Z</time>
      </trkpt>
      <trkpt lat="43.58418" lon="2.32893">
        <ele>310.1624756</ele>
        <time>2014-06-18T07:28:09Z</time>
      </trkpt>
      <trkpt lat="43.58427" lon="2.32869">
        <ele>310.1624756</ele>
        <time>2014-06-18T07:28:15Z</time>
      </trkpt>
      <trkpt lat="43.58438" lon="2.32845">
        <ele>310.6430664</ele>
        <time>2014-06-18T07:28:20Z</time>
      </trkpt>
      <trkpt lat="43.5845" lon="2.32812">
        <ele>310.6430664</ele>
        <time>2014-06-18T07:28:26Z</time>
      </trkpt>
      <trkpt lat="43.58462" lon="2.32782">
        <ele>310.1624756</ele>
        <time>2014-06-18T07:28:31Z</time>
      </trkpt>
      <trkpt lat="43.58473" lon="2.32748">
        <ele>307.7592773</ele>
        <time>2014-06-18T07:28:38Z</time>
      </trkpt>
      <trkpt lat="43.5849" lon="2.32703">
        <ele>306.7978516</ele>
        <time>2014-06-18T07:28:46Z</time>
      </trkpt>
      <trkpt lat="43.58505" lon="2.32665">
        <ele>308.2398682</ele>
        <time>2014-06-18T07:28:52Z</time>
      </trkpt>
      <trkpt lat="43.58524" lon="2.32618">
        <ele>307.2785645</ele>
        <time>2014-06-18T07:28:59Z</time>
      </trkpt>
      <trkpt lat="43.58531" lon="2.3259">
        <ele>307.2785645</ele>
        <time>2014-06-18T07:29:03Z</time>
      </trkpt>
      <trkpt lat="43.58532" lon="2.32553">
        <ele>307.7592773</ele>
        <time>2014-06-18T07:29:09Z</time>
      </trkpt>
      <trkpt lat="43.58533" lon="2.3253">
        <ele>306.7978516</ele>
        <time>2014-06-18T07:29:13Z</time>
      </trkpt>
      <trkpt lat="43.58536" lon="2.32519">
        <ele>306.3172607</ele>
        <time>2014-06-18T07:29:15Z</time>
      </trkpt>
      <trkpt lat="43.58543" lon="2.32492">
        <ele>306.3172607</ele>
        <time>2014-06-18T07:29:22Z</time>
      </trkpt>
      <trkpt lat="43.58547" lon="2.32475">
        <ele>306.3172607</ele>
        <time>2014-06-18T07:29:27Z</time>
      </trkpt>
      <trkpt lat="43.58552" lon="2.32458">
        <ele>306.7978516</ele>
        <time>2014-06-18T07:29:32Z</time>
      </trkpt>
      <trkpt lat="43.58554" lon="2.32445">
        <ele>307.2785645</ele>
        <time>2014-06-18T07:29:36Z</time>
      </trkpt>
      <trkpt lat="43.58557" lon="2.32433">
        <ele>308.720459</ele>
        <time>2014-06-18T07:29:41Z</time>
      </trkpt>
      <trkpt lat="43.58558" lon="2.32421">
        <ele>307.7592773</ele>
        <time>2014-06-18T07:29:46Z</time>
      </trkpt>
      <trkpt lat="43.5856" lon="2.32408">
        <ele>307.2785645</ele>
        <time>2014-06-18T07:29:51Z</time>
      </trkpt>
      <trkpt lat="43.58564" lon="2.32381">
        <ele>307.7592773</ele>
        <time>2014-06-18T07:29:58Z</time>
      </trkpt>
      <trkpt lat="43.58574" lon="2.32353">
        <ele>312.5657959</ele>
        <time>2014-06-18T07:30:05Z</time>
      </trkpt>
      <trkpt lat="43.58583" lon="2.32334">
        <ele>314.0078125</ele>
        <time>2014-06-18T07:30:10Z</time>
      </trkpt>
      <trkpt lat="43.58593" lon="2.32311">
        <ele>315.4498291</ele>
        <time>2014-06-18T07:30:16Z</time>
      </trkpt>
      <trkpt lat="43.58604" lon="2.32287">
        <ele>315.4498291</ele>
        <time>2014-06-18T07:30:21Z</time>
      </trkpt>
      <trkpt lat="43.58616" lon="2.32257">
        <ele>314.9691162</ele>
        <time>2014-06-18T07:30:26Z</time>
      </trkpt>
      <trkpt lat="43.5862" lon="2.3222">
        <ele>313.0465088</ele>
        <time>2014-06-18T07:30:31Z</time>
      </trkpt>
      <trkpt lat="43.58614" lon="2.322">
        <ele>312.0852051</ele>
        <time>2014-06-18T07:30:34Z</time>
      </trkpt>
      <trkpt lat="43.58604" lon="2.32182">
        <ele>311.1237793</ele>
        <time>2014-06-18T07:30:37Z</time>
      </trkpt>
      <trkpt lat="43.58598" lon="2.32159">
        <ele>309.2011719</ele>
        <time>2014-06-18T07:30:42Z</time>
      </trkpt>
      <trkpt lat="43.58591" lon="2.32132">
        <ele>304.8752441</ele>
        <time>2014-06-18T07:30:46Z</time>
      </trkpt>
      <trkpt lat="43.58591" lon="2.32114">
        <ele>302.9525146</ele>
        <time>2014-06-18T07:30:49Z</time>
      </trkpt>
      <trkpt lat="43.58594" lon="2.32106">
        <ele>300.5493164</ele>
        <time>2014-06-18T07:30:51Z</time>
      </trkpt>
      <trkpt lat="43.58599" lon="2.32089">
        <ele>301.5106201</ele>
        <time>2014-06-18T07:30:55Z</time>
      </trkpt>
      <trkpt lat="43.5861" lon="2.32054">
        <ele>310.1624756</ele>
        <time>2014-06-18T07:31:02Z</time>
      </trkpt>
      <trkpt lat="43.58623" lon="2.32027">
        <ele>312.5657959</ele>
        <time>2014-06-18T07:31:09Z</time>
      </trkpt>
      <trkpt lat="43.58641" lon="2.32005">
        <ele>317.3724365</ele>
        <time>2014-06-18T07:31:17Z</time>
      </trkpt>
      <trkpt lat="43.58648" lon="2.31994">
        <ele>320.2563477</ele>
        <time>2014-06-18T07:31:22Z</time>
      </trkpt>
      <trkpt lat="43.58651" lon="2.31986">
        <ele>319.7756348</ele>
        <time>2014-06-18T07:31:25Z</time>
      </trkpt>
      <trkpt lat="43.58655" lon="2.31977">
        <ele>319.2950439</ele>
        <time>2014-06-18T07:31:28Z</time>
      </trkpt>
      <trkpt lat="43.58657" lon="2.3197">
        <ele>318.8143311</ele>
        <time>2014-06-18T07:31:31Z</time>
      </trkpt>
      <trkpt lat="43.58658" lon="2.31961">
        <ele>315.4498291</ele>
        <time>2014-06-18T07:31:35Z</time>
      </trkpt>
      <trkpt lat="43.58659" lon="2.31951">
        <ele>312.5657959</ele>
        <time>2014-06-18T07:31:40Z</time>
      </trkpt>
      <trkpt lat="43.58669" lon="2.31926">
        <ele>312.5657959</ele>
        <time>2014-06-18T07:31:47Z</time>
      </trkpt>
      <trkpt lat="43.58677" lon="2.31912">
        <ele>309.6818848</ele>
        <time>2014-06-18T07:31:52Z</time>
      </trkpt>
      <trkpt lat="43.58678" lon="2.3191">
        <ele>309.2011719</ele>
        <time>2014-06-18T07:31:53Z</time>
      </trkpt>
      <trkpt lat="43.5868" lon="2.31894">
        <ele>305.8366699</ele>
        <time>2014-06-18T07:32:00Z</time>
      </trkpt>
      <trkpt lat="43.58683" lon="2.31885">
        <ele>313.0465088</ele>
        <time>2014-06-18T07:32:05Z</time>
      </trkpt>
      <trkpt lat="43.58684" lon="2.31882">
        <ele>314.4884033</ele>
        <time>2014-06-18T07:32:07Z</time>
      </trkpt>
      <trkpt lat="43.58683" lon="2.31881">
        <ele>318.3336182</ele>
        <time>2014-06-18T07:32:13Z</time>
      </trkpt>
      <trkpt lat="43.58685" lon="2.31881">
        <ele>322.1789551</ele>
        <time>2014-06-18T07:32:19Z</time>
      </trkpt>
      <trkpt lat="43.58685" lon="2.3188">
        <ele>324.5822754</ele>
        <time>2014-06-18T07:32:27Z</time>
      </trkpt>
      <trkpt lat="43.58688" lon="2.31877">
        <ele>325.0629883</ele>
        <time>2014-06-18T07:32:33Z</time>
      </trkpt>
      <trkpt lat="43.58689" lon="2.31877">
        <ele>324.1015625</ele>
        <time>2014-06-18T07:32:36Z</time>
      </trkpt>
      <trkpt lat="43.58692" lon="2.31866">
        <ele>320.2563477</ele>
        <time>2014-06-18T07:32:42Z</time>
      </trkpt>
      <trkpt lat="43.58693" lon="2.31862">
        <ele>319.2950439</ele>
        <time>2014-06-18T07:32:44Z</time>
      </trkpt>
      <trkpt lat="43.58693" lon="2.3186">
        <ele>318.8143311</ele>
        <time>2014-06-18T07:32:46Z</time>
      </trkpt>
      <trkpt lat="43.58696" lon="2.31851">
        <ele>320.2563477</ele>
        <time>2014-06-18T07:32:52Z</time>
      </trkpt>
      <trkpt lat="43.58696" lon="2.31848">
        <ele>321.2177734</ele>
        <time>2014-06-18T07:32:53Z</time>
      </trkpt>
      <trkpt lat="43.58696" lon="2.31841">
        <ele>321.2177734</ele>
        <time>2014-06-18T07:32:57Z</time>
      </trkpt>
      <trkpt lat="43.58696" lon="2.31834">
        <ele>323.1403809</ele>
        <time>2014-06-18T07:33:03Z</time>
      </trkpt>
      <trkpt lat="43.58701" lon="2.31826">
        <ele>323.6209717</ele>
        <time>2014-06-18T07:33:07Z</time>
      </trkpt>
      <trkpt lat="43.58702" lon="2.3182">
        <ele>327.4661865</ele>
        <time>2014-06-18T07:33:14Z</time>
      </trkpt>
      <trkpt lat="43.58706" lon="2.31813">
        <ele>329.388916</ele>
        <time>2014-06-18T07:33:21Z</time>
      </trkpt>
      <trkpt lat="43.58707" lon="2.31811">
        <ele>329.8695068</ele>
        <time>2014-06-18T07:33:22Z</time>
      </trkpt>
      <trkpt lat="43.58715" lon="2.31795">
        <ele>328.4276123</ele>
        <time>2014-06-18T07:33:28Z</time>
      </trkpt>
      <trkpt lat="43.58725" lon="2.31771">
        <ele>329.388916</ele>
        <time>2014-06-18T07:33:33Z</time>
      </trkpt>
      <trkpt lat="43.58726" lon="2.31763">
        <ele>330.3502197</ele>
        <time>2014-06-18T07:33:36Z</time>
      </trkpt>
      <trkpt lat="43.58731" lon="2.31755">
        <ele>328.4276123</ele>
        <time>2014-06-18T07:33:46Z</time>
      </trkpt>
      <trkpt lat="43.58731" lon="2.31753">
        <ele>328.9083252</ele>
        <time>2014-06-18T07:33:47Z</time>
      </trkpt>
      <trkpt lat="43.58735" lon="2.31744">
        <ele>326.0241699</ele>
        <time>2014-06-18T07:33:51Z</time>
      </trkpt>
      <trkpt lat="43.58738" lon="2.31725">
        <ele>323.6209717</ele>
        <time>2014-06-18T07:33:56Z</time>
      </trkpt>
      <trkpt lat="43.58743" lon="2.31706">
        <ele>319.7756348</ele>
        <time>2014-06-18T07:34:00Z</time>
      </trkpt>
      <trkpt lat="43.5875" lon="2.31681">
        <ele>314.4884033</ele>
        <time>2014-06-18T07:34:05Z</time>
      </trkpt>
      <trkpt lat="43.58754" lon="2.3166">
        <ele>309.6818848</ele>
        <time>2014-06-18T07:34:10Z</time>
      </trkpt>
      <trkpt lat="43.58753" lon="2.31644">
        <ele>303.9139404</ele>
        <time>2014-06-18T07:34:14Z</time>
      </trkpt>
      <trkpt lat="43.58742" lon="2.31628">
        <ele>299.1072998</ele>
        <time>2014-06-18T07:34:19Z</time>
      </trkpt>
      <trkpt lat="43.58736" lon="2.31613">
        <ele>297.6654053</ele>
        <time>2014-06-18T07:34:22Z</time>
      </trkpt>
      <trkpt lat="43.58724" lon="2.31586">
        <ele>297.6654053</ele>
        <time>2014-06-18T07:34:29Z</time>
      </trkpt>
      <trkpt lat="43.58724" lon="2.31584">
        <ele>296.7041016</ele>
        <time>2014-06-18T07:34:30Z</time>
      </trkpt>
      <trkpt lat="43.58715" lon="2.31562">
        <ele>296.7041016</ele>
        <time>2014-06-18T07:34:36Z</time>
      </trkpt>
      <trkpt lat="43.58713" lon="2.31551">
        <ele>297.6654053</ele>
        <time>2014-06-18T07:34:39Z</time>
      </trkpt>
      <trkpt lat="43.58712" lon="2.31546">
        <ele>298.1461182</ele>
        <time>2014-06-18T07:34:41Z</time>
      </trkpt>
      <trkpt lat="43.58712" lon="2.31543">
        <ele>298.626709</ele>
        <time>2014-06-18T07:34:42Z</time>
      </trkpt>
      <trkpt lat="43.58711" lon="2.31541">
        <ele>299.1072998</ele>
        <time>2014-06-18T07:34:43Z</time>
      </trkpt>
      <trkpt lat="43.58711" lon="2.31539">
        <ele>297.6654053</ele>
        <time>2014-06-18T07:34:44Z</time>
      </trkpt>
      <trkpt lat="43.58709" lon="2.31522">
        <ele>297.1846924</ele>
        <time>2014-06-18T07:34:50Z</time>
      </trkpt>
      <trkpt lat="43.58706" lon="2.3152">
        <ele>301.5106201</ele>
        <time>2014-06-18T07:34:57Z</time>
      </trkpt>
      <trkpt lat="43.58706" lon="2.31518">
        <ele>303.9139404</ele>
        <time>2014-06-18T07:35:01Z</time>
      </trkpt>
      <trkpt lat="43.58709" lon="2.31514">
        <ele>311.1237793</ele>
        <time>2014-06-18T07:35:06Z</time>
      </trkpt>
      <trkpt lat="43.5871" lon="2.3152">
        <ele>312.0852051</ele>
        <time>2014-06-18T07:35:09Z</time>
      </trkpt>
      <trkpt lat="43.58715" lon="2.31538">
        <ele>317.8530273</ele>
        <time>2014-06-18T07:35:16Z</time>
      </trkpt>
      <trkpt lat="43.58724" lon="2.3155">
        <ele>322.1789551</ele>
        <time>2014-06-18T07:35:22Z</time>
      </trkpt>
      <trkpt lat="43.58734" lon="2.3156">
        <ele>326.0241699</ele>
        <time>2014-06-18T07:35:28Z</time>
      </trkpt>
      <trkpt lat="43.58742" lon="2.31565">
        <ele>327.9467773</ele>
        <time>2014-06-18T07:35:34Z</time>
      </trkpt>
      <trkpt lat="43.58754" lon="2.31565">
        <ele>329.8695068</ele>
        <time>2014-06-18T07:35:40Z</time>
      </trkpt>
      <trkpt lat="43.5877" lon="2.31562">
        <ele>330.3502197</ele>
        <time>2014-06-18T07:35:46Z</time>
      </trkpt>
      <trkpt lat="43.58793" lon="2.31556">
        <ele>328.9083252</ele>
        <time>2014-06-18T07:35:52Z</time>
      </trkpt>
      <trkpt lat="43.58807" lon="2.3155">
        <ele>329.388916</ele>
        <time>2014-06-18T07:35:55Z</time>
      </trkpt>
      <trkpt lat="43.58818" lon="2.3154">
        <ele>329.8695068</ele>
        <time>2014-06-18T07:35:58Z</time>
      </trkpt>
      <trkpt lat="43.58829" lon="2.31527">
        <ele>328.9083252</ele>
        <time>2014-06-18T07:36:03Z</time>
      </trkpt>
      <trkpt lat="43.58835" lon="2.31524">
        <ele>329.8695068</ele>
        <time>2014-06-18T07:36:05Z</time>
      </trkpt>
      <trkpt lat="43.58859" lon="2.31511">
        <ele>330.3502197</ele>
        <time>2014-06-18T07:36:13Z</time>
      </trkpt>
      <trkpt lat="43.58881" lon="2.31503">
        <ele>330.8309326</ele>
        <time>2014-06-18T07:36:18Z</time>
      </trkpt>
      <trkpt lat="43.58902" lon="2.31498">
        <ele>331.3115234</ele>
        <time>2014-06-18T07:36:22Z</time>
      </trkpt>
      <trkpt lat="43.58931" lon="2.31493">
        <ele>330.3502197</ele>
        <time>2014-06-18T07:36:28Z</time>
      </trkpt>
      <trkpt lat="43.58946" lon="2.31487">
        <ele>330.3502197</ele>
        <time>2014-06-18T07:36:31Z</time>
      </trkpt>
      <trkpt lat="43.58973" lon="2.31465">
        <ele>331.7921143</ele>
        <time>2014-06-18T07:36:36Z</time>
      </trkpt>
      <trkpt lat="43.5899" lon="2.31456">
        <ele>331.3115234</ele>
        <time>2014-06-18T07:36:39Z</time>
      </trkpt>
      <trkpt lat="43.59001" lon="2.31452">
        <ele>330.3502197</ele>
        <time>2014-06-18T07:36:41Z</time>
      </trkpt>
      <trkpt lat="43.59022" lon="2.31454">
        <ele>328.9083252</ele>
        <time>2014-06-18T07:36:44Z</time>
      </trkpt>
      <trkpt lat="43.59057" lon="2.31448">
        <ele>327.9467773</ele>
        <time>2014-06-18T07:36:48Z</time>
      </trkpt>
      <trkpt lat="43.59071" lon="2.31436">
        <ele>327.4661865</ele>
        <time>2014-06-18T07:36:50Z</time>
      </trkpt>
      <trkpt lat="43.59088" lon="2.31418">
        <ele>327.4661865</ele>
        <time>2014-06-18T07:36:53Z</time>
      </trkpt>
      <trkpt lat="43.59107" lon="2.31396">
        <ele>327.4661865</ele>
        <time>2014-06-18T07:36:57Z</time>
      </trkpt>
      <trkpt lat="43.59136" lon="2.31368">
        <ele>327.9467773</ele>
        <time>2014-06-18T07:37:03Z</time>
      </trkpt>
      <trkpt lat="43.59141" lon="2.31364">
        <ele>327.9467773</ele>
        <time>2014-06-18T07:37:04Z</time>
      </trkpt>
      <trkpt lat="43.59168" lon="2.3135">
        <ele>328.4276123</ele>
        <time>2014-06-18T07:37:10Z</time>
      </trkpt>
      <trkpt lat="43.59198" lon="2.31342">
        <ele>333.2341309</ele>
        <time>2014-06-18T07:37:16Z</time>
      </trkpt>
      <trkpt lat="43.59201" lon="2.31341">
        <ele>333.7147217</ele>
        <time>2014-06-18T07:37:17Z</time>
      </trkpt>
      <trkpt lat="43.59229" lon="2.31321">
        <ele>334.1954346</ele>
        <time>2014-06-18T07:37:24Z</time>
      </trkpt>
      <trkpt lat="43.59232" lon="2.31317">
        <ele>333.7147217</ele>
        <time>2014-06-18T07:37:25Z</time>
      </trkpt>
      <trkpt lat="43.59252" lon="2.31301">
        <ele>333.7147217</ele>
        <time>2014-06-18T07:37:30Z</time>
      </trkpt>
      <trkpt lat="43.59257" lon="2.31296">
        <ele>332.75354</ele>
        <time>2014-06-18T07:37:31Z</time>
      </trkpt>
      <trkpt lat="43.59277" lon="2.3127">
        <ele>329.8695068</ele>
        <time>2014-06-18T07:37:36Z</time>
      </trkpt>
      <trkpt lat="43.59286" lon="2.3126">
        <ele>328.9083252</ele>
        <time>2014-06-18T07:37:40Z</time>
      </trkpt>
      <trkpt lat="43.59292" lon="2.31257">
        <ele>326.9855957</ele>
        <time>2014-06-18T07:37:45Z</time>
      </trkpt>
      <trkpt lat="43.5929" lon="2.31255">
        <ele>325.5435791</ele>
        <time>2014-06-18T07:37:49Z</time>
      </trkpt>
      <trkpt lat="43.59286" lon="2.31251">
        <ele>323.6209717</ele>
        <time>2014-06-18T07:37:55Z</time>
      </trkpt>
      <trkpt lat="43.59292" lon="2.31237">
        <ele>322.1789551</ele>
        <time>2014-06-18T07:38:00Z</time>
      </trkpt>
      <trkpt lat="43.59301" lon="2.3122">
        <ele>318.8143311</ele>
        <time>2014-06-18T07:38:04Z</time>
      </trkpt>
      <trkpt lat="43.59312" lon="2.31191">
        <ele>316.4110107</ele>
        <time>2014-06-18T07:38:09Z</time>
      </trkpt>
      <trkpt lat="43.59314" lon="2.31174">
        <ele>315.9304199</ele>
        <time>2014-06-18T07:38:12Z</time>
      </trkpt>
      <trkpt lat="43.59323" lon="2.31141">
        <ele>316.8917236</ele>
        <time>2014-06-18T07:38:19Z</time>
      </trkpt>
      <trkpt lat="43.59332" lon="2.31118">
        <ele>315.9304199</ele>
        <time>2014-06-18T07:38:25Z</time>
      </trkpt>
      <trkpt lat="43.59344" lon="2.31093">
        <ele>314.9691162</ele>
        <time>2014-06-18T07:38:30Z</time>
      </trkpt>
      <trkpt lat="43.59351" lon="2.3108">
        <ele>314.4884033</ele>
        <time>2014-06-18T07:38:34Z</time>
      </trkpt>
      <trkpt lat="43.59351" lon="2.3108">
        <ele>314.4884033</ele>
        <time>2014-06-18T07:38:35Z</time>
      </trkpt>
      <trkpt lat="43.59351" lon="2.31077">
        <ele>314.4884033</ele>
        <time>2014-06-18T07:38:42Z</time>
      </trkpt>
      <trkpt lat="43.59354" lon="2.31074">
        <ele>314.0078125</ele>
        <time>2014-06-18T07:38:47Z</time>
      </trkpt>
      <trkpt lat="43.59365" lon="2.31063">
        <ele>314.0078125</ele>
        <time>2014-06-18T07:38:52Z</time>
      </trkpt>
      <trkpt lat="43.59378" lon="2.31037">
        <ele>313.0465088</ele>
        <time>2014-06-18T07:38:58Z</time>
      </trkpt>
      <trkpt lat="43.59395" lon="2.31008">
        <ele>312.5657959</ele>
        <time>2014-06-18T07:39:04Z</time>
      </trkpt>
      <trkpt lat="43.59396" lon="2.31006">
        <ele>312.5657959</ele>
        <time>2014-06-18T07:39:05Z</time>
      </trkpt>
      <trkpt lat="43.59397" lon="2.31005">
        <ele>313.0465088</ele>
        <time>2014-06-18T07:39:13Z</time>
      </trkpt>
      <trkpt lat="43.59408" lon="2.30989">
        <ele>313.0465088</ele>
        <time>2014-06-18T07:39:19Z</time>
      </trkpt>
      <trkpt lat="43.59425" lon="2.30961">
        <ele>313.0465088</ele>
        <time>2014-06-18T07:39:25Z</time>
      </trkpt>
      <trkpt lat="43.59446" lon="2.30925">
        <ele>314.0078125</ele>
        <time>2014-06-18T07:39:32Z</time>
      </trkpt>
      <trkpt lat="43.59463" lon="2.30901">
        <ele>313.0465088</ele>
        <time>2014-06-18T07:39:37Z</time>
      </trkpt>
      <trkpt lat="43.59479" lon="2.3088">
        <ele>314.9691162</ele>
        <time>2014-06-18T07:39:42Z</time>
      </trkpt>
      <trkpt lat="43.59485" lon="2.30872">
        <ele>315.4498291</ele>
        <time>2014-06-18T07:39:44Z</time>
      </trkpt>
      <trkpt lat="43.59497" lon="2.30858">
        <ele>315.9304199</ele>
        <time>2014-06-18T07:39:48Z</time>
      </trkpt>
      <trkpt lat="43.59505" lon="2.30848">
        <ele>316.4110107</ele>
        <time>2014-06-18T07:39:54Z</time>
      </trkpt>
      <trkpt lat="43.59502" lon="2.30848">
        <ele>314.4884033</ele>
        <time>2014-06-18T07:40:06Z</time>
      </trkpt>
      <trkpt lat="43.59503" lon="2.30848">
        <ele>316.4110107</ele>
        <time>2014-06-18T07:40:15Z</time>
      </trkpt>
      <trkpt lat="43.59503" lon="2.30847">
        <ele>316.8917236</ele>
        <time>2014-06-18T07:40:23Z</time>
      </trkpt>
      <trkpt lat="43.59504" lon="2.30848">
        <ele>317.3724365</ele>
        <time>2014-06-18T07:40:27Z</time>
      </trkpt>
      <trkpt lat="43.59516" lon="2.30844">
        <ele>316.8917236</ele>
        <time>2014-06-18T07:40:33Z</time>
      </trkpt>
      <trkpt lat="43.59538" lon="2.30839">
        <ele>314.0078125</ele>
        <time>2014-06-18T07:40:38Z</time>
      </trkpt>
      <trkpt lat="43.59556" lon="2.30846">
        <ele>311.1237793</ele>
        <time>2014-06-18T07:40:41Z</time>
      </trkpt>
      <trkpt lat="43.59587" lon="2.3087">
        <ele>311.6044922</ele>
        <time>2014-06-18T07:40:46Z</time>
      </trkpt>
      <trkpt lat="43.596" lon="2.30895">
        <ele>307.2785645</ele>
        <time>2014-06-18T07:40:51Z</time>
      </trkpt>
      <trkpt lat="43.59608" lon="2.30918">
        <ele>305.8366699</ele>
        <time>2014-06-18T07:40:55Z</time>
      </trkpt>
      <trkpt lat="43.59619" lon="2.30953">
        <ele>301.991333</ele>
        <time>2014-06-18T07:41:01Z</time>
      </trkpt>
      <trkpt lat="43.59623" lon="2.30974">
        <ele>300.5493164</ele>
        <time>2014-06-18T07:41:05Z</time>
      </trkpt>
      <trkpt lat="43.59638" lon="2.30986">
        <ele>299.1072998</ele>
        <time>2014-06-18T07:41:11Z</time>
      </trkpt>
      <trkpt lat="43.59646" lon="2.30978">
        <ele>295.7426758</ele>
        <time>2014-06-18T07:41:13Z</time>
      </trkpt>
      <trkpt lat="43.59662" lon="2.30966">
        <ele>291.416748</ele>
        <time>2014-06-18T07:41:16Z</time>
      </trkpt>
      <trkpt lat="43.59696" lon="2.30961">
        <ele>289.0135498</ele>
        <time>2014-06-18T07:41:21Z</time>
      </trkpt>
      <trkpt lat="43.59703" lon="2.30959">
        <ele>289.4941406</ele>
        <time>2014-06-18T07:41:22Z</time>
      </trkpt>
      <trkpt lat="43.59721" lon="2.30949">
        <ele>289.4941406</ele>
        <time>2014-06-18T07:41:27Z</time>
      </trkpt>
      <trkpt lat="43.5972" lon="2.3095">
        <ele>287.5714111</ele>
        <time>2014-06-18T07:41:32Z</time>
      </trkpt>
      <trkpt lat="43.59719" lon="2.3095">
        <ele>289.0135498</ele>
        <time>2014-06-18T07:41:40Z</time>
      </trkpt>
      <trkpt lat="43.59724" lon="2.30946">
        <ele>289.9748535</ele>
        <time>2014-06-18T07:41:47Z</time>
      </trkpt>
      <trkpt lat="43.59725" lon="2.30944">
        <ele>289.9748535</ele>
        <time>2014-06-18T07:41:54Z</time>
      </trkpt>
      <trkpt lat="43.59727" lon="2.3094">
        <ele>289.0135498</ele>
        <time>2014-06-18T07:41:57Z</time>
      </trkpt>
      <trkpt lat="43.5973" lon="2.30948">
        <ele>287.5714111</ele>
        <time>2014-06-18T07:42:02Z</time>
      </trkpt>
      <trkpt lat="43.5974" lon="2.3097">
        <ele>285.6488037</ele>
        <time>2014-06-18T07:42:08Z</time>
      </trkpt>
      <trkpt lat="43.59741" lon="2.30976">
        <ele>287.0908203</ele>
        <time>2014-06-18T07:42:12Z</time>
      </trkpt>
      <trkpt lat="43.5974" lon="2.30977">
        <ele>287.5714111</ele>
        <time>2014-06-18T07:42:13Z</time>
      </trkpt>
      <trkpt lat="43.59742" lon="2.30979">
        <ele>289.4941406</ele>
        <time>2014-06-18T07:42:15Z</time>
      </trkpt>
      <trkpt lat="43.59747" lon="2.30976">
        <ele>292.8587646</ele>
        <time>2014-06-18T07:42:22Z</time>
      </trkpt>
      <trkpt lat="43.5975" lon="2.30975">
        <ele>293.8200684</ele>
        <time>2014-06-18T07:42:27Z</time>
      </trkpt>
      <trkpt lat="43.59755" lon="2.30969">
        <ele>295.2619629</ele>
        <time>2014-06-18T07:42:32Z</time>
      </trkpt>
      <trkpt lat="43.59756" lon="2.30968">
        <ele>295.7426758</ele>
        <time>2014-06-18T07:42:34Z</time>
      </trkpt>
      <trkpt lat="43.59762" lon="2.30962">
        <ele>298.1461182</ele>
        <time>2014-06-18T07:42:41Z</time>
      </trkpt>
      <trkpt lat="43.59763" lon="2.30962">
        <ele>298.1461182</ele>
        <time>2014-06-18T07:42:42Z</time>
      </trkpt>
      <trkpt lat="43.59766" lon="2.30957">
        <ele>296.2235107</ele>
        <time>2014-06-18T07:42:47Z</time>
      </trkpt>
      <trkpt lat="43.59773" lon="2.30948">
        <ele>296.7041016</ele>
        <time>2014-06-18T07:42:53Z</time>
      </trkpt>
      <trkpt lat="43.59783" lon="2.30937">
        <ele>296.7041016</ele>
        <time>2014-06-18T07:42:59Z</time>
      </trkpt>
      <trkpt lat="43.59798" lon="2.30922">
        <ele>295.7426758</ele>
        <time>2014-06-18T07:43:05Z</time>
      </trkpt>
      <trkpt lat="43.59813" lon="2.30901">
        <ele>294.7813721</ele>
        <time>2014-06-18T07:43:11Z</time>
      </trkpt>
      <trkpt lat="43.59827" lon="2.3089">
        <ele>294.3007813</ele>
        <time>2014-06-18T07:43:15Z</time>
      </trkpt>
      <trkpt lat="43.59847" lon="2.30878">
        <ele>293.8200684</ele>
        <time>2014-06-18T07:43:20Z</time>
      </trkpt>
      <trkpt lat="43.59856" lon="2.30875">
        <ele>293.8200684</ele>
        <time>2014-06-18T07:43:22Z</time>
      </trkpt>
      <trkpt lat="43.59899" lon="2.30863">
        <ele>292.8587646</ele>
        <time>2014-06-18T07:43:31Z</time>
      </trkpt>
      <trkpt lat="43.59936" lon="2.30855">
        <ele>293.3393555</ele>
        <time>2014-06-18T07:43:40Z</time>
      </trkpt>
      <trkpt lat="43.59961" lon="2.30848">
        <ele>292.3781738</ele>
        <time>2014-06-18T07:43:46Z</time>
      </trkpt>
      <trkpt lat="43.59973" lon="2.30846">
        <ele>291.416748</ele>
        <time>2014-06-18T07:43:49Z</time>
      </trkpt>
      <trkpt lat="43.59985" lon="2.3084">
        <ele>291.416748</ele>
        <time>2014-06-18T07:43:52Z</time>
      </trkpt>
      <trkpt lat="43.6001" lon="2.30816">
        <ele>287.5714111</ele>
        <time>2014-06-18T07:43:58Z</time>
      </trkpt>
      <trkpt lat="43.60024" lon="2.30796">
        <ele>284.2069092</ele>
        <time>2014-06-18T07:44:03Z</time>
      </trkpt>
      <trkpt lat="43.60038" lon="2.3079">
        <ele>283.2456055</ele>
        <time>2014-06-18T07:44:07Z</time>
      </trkpt>
      <trkpt lat="43.60042" lon="2.30791">
        <ele>282.7650146</ele>
        <time>2014-06-18T07:44:08Z</time>
      </trkpt>
      <trkpt lat="43.6007" lon="2.30809">
        <ele>276.9970703</ele>
        <time>2014-06-18T07:44:15Z</time>
      </trkpt>
      <trkpt lat="43.60091" lon="2.3081">
        <ele>272.1904297</ele>
        <time>2014-06-18T07:44:21Z</time>
      </trkpt>
      <trkpt lat="43.60116" lon="2.30809">
        <ele>268.3450928</ele>
        <time>2014-06-18T07:44:27Z</time>
      </trkpt>
      <trkpt lat="43.60132" lon="2.30809">
        <ele>266.4224854</ele>
        <time>2014-06-18T07:44:31Z</time>
      </trkpt>
      <trkpt lat="43.60138" lon="2.30807">
        <ele>264.0192871</ele>
        <time>2014-06-18T07:44:33Z</time>
      </trkpt>
      <trkpt lat="43.60146" lon="2.30804">
        <ele>263.5385742</ele>
        <time>2014-06-18T07:44:35Z</time>
      </trkpt>
      <trkpt lat="43.6017" lon="2.30784">
        <ele>260.1739502</ele>
        <time>2014-06-18T07:44:42Z</time>
      </trkpt>
      <trkpt lat="43.6018" lon="2.30779">
        <ele>257.2900391</ele>
        <time>2014-06-18T07:44:45Z</time>
      </trkpt>
      <trkpt lat="43.60196" lon="2.30786">
        <ele>253.4447021</ele>
        <time>2014-06-18T07:44:50Z</time>
      </trkpt>
      <trkpt lat="43.602" lon="2.30787">
        <ele>252.9639893</ele>
        <time>2014-06-18T07:44:51Z</time>
      </trkpt>
      <trkpt lat="43.60224" lon="2.308">
        <ele>246.2348633</ele>
        <time>2014-06-18T07:44:58Z</time>
      </trkpt>
      <trkpt lat="43.60242" lon="2.30807">
        <ele>242.8702393</ele>
        <time>2014-06-18T07:45:03Z</time>
      </trkpt>
      <trkpt lat="43.60257" lon="2.30816">
        <ele>239.0249023</ele>
        <time>2014-06-18T07:45:08Z</time>
      </trkpt>
      <trkpt lat="43.60276" lon="2.30825">
        <ele>235.6602783</ele>
        <time>2014-06-18T07:45:14Z</time>
      </trkpt>
      <trkpt lat="43.60293" lon="2.30834">
        <ele>232.2957764</ele>
        <time>2014-06-18T07:45:19Z</time>
      </trkpt>
      <trkpt lat="43.60304" lon="2.30839">
        <ele>230.3730469</ele>
        <time>2014-06-18T07:45:24Z</time>
      </trkpt>
      <trkpt lat="43.60316" lon="2.30845">
        <ele>230.3730469</ele>
        <time>2014-06-18T07:45:28Z</time>
      </trkpt>
      <trkpt lat="43.60332" lon="2.30849">
        <ele>229.4117432</ele>
        <time>2014-06-18T07:45:33Z</time>
      </trkpt>
      <trkpt lat="43.60344" lon="2.30854">
        <ele>228.9311523</ele>
        <time>2014-06-18T07:45:38Z</time>
      </trkpt>
      <trkpt lat="43.60362" lon="2.30857">
        <ele>228.4504395</ele>
        <time>2014-06-18T07:45:43Z</time>
      </trkpt>
      <trkpt lat="43.60369" lon="2.30857">
        <ele>229.4117432</ele>
        <time>2014-06-18T07:45:46Z</time>
      </trkpt>
      <trkpt lat="43.60378" lon="2.30868">
        <ele>232.2957764</ele>
        <time>2014-06-18T07:45:51Z</time>
      </trkpt>
      <trkpt lat="43.60393" lon="2.30895">
        <ele>232.7764893</ele>
        <time>2014-06-18T07:45:59Z</time>
      </trkpt>
      <trkpt lat="43.60397" lon="2.30901">
        <ele>231.3343506</ele>
        <time>2014-06-18T07:46:03Z</time>
      </trkpt>
      <trkpt lat="43.604" lon="2.30901">
        <ele>231.8149414</ele>
        <time>2014-06-18T07:46:06Z</time>
      </trkpt>
      <trkpt lat="43.60404" lon="2.30905">
        <ele>233.7376709</ele>
        <time>2014-06-18T07:46:12Z</time>
      </trkpt>
      <trkpt lat="43.60409" lon="2.30908">
        <ele>234.2183838</ele>
        <time>2014-06-18T07:46:17Z</time>
      </trkpt>
      <trkpt lat="43.60414" lon="2.30913">
        <ele>234.6990967</ele>
        <time>2014-06-18T07:46:20Z</time>
      </trkpt>
      <trkpt lat="43.60411" lon="2.30915">
        <ele>233.7376709</ele>
        <time>2014-06-18T07:46:24Z</time>
      </trkpt>
      <trkpt lat="43.60412" lon="2.30907">
        <ele>233.7376709</ele>
        <time>2014-06-18T07:46:27Z</time>
      </trkpt>
      <trkpt lat="43.60424" lon="2.30891">
        <ele>233.7376709</ele>
        <time>2014-06-18T07:46:33Z</time>
      </trkpt>
      <trkpt lat="43.60442" lon="2.30887">
        <ele>235.1796875</ele>
        <time>2014-06-18T07:46:38Z</time>
      </trkpt>
      <trkpt lat="43.60457" lon="2.30895">
        <ele>235.6602783</ele>
        <time>2014-06-18T07:46:44Z</time>
      </trkpt>
      <trkpt lat="43.60469" lon="2.30908">
        <ele>237.1022949</ele>
        <time>2014-06-18T07:46:49Z</time>
      </trkpt>
      <trkpt lat="43.60477" lon="2.30918">
        <ele>237.5828857</ele>
        <time>2014-06-18T07:46:53Z</time>
      </trkpt>
      <trkpt lat="43.60485" lon="2.30935">
        <ele>237.5828857</ele>
        <time>2014-06-18T07:47:00Z</time>
      </trkpt>
      <trkpt lat="43.605" lon="2.30951">
        <ele>240.9476318</ele>
        <time>2014-06-18T07:47:06Z</time>
      </trkpt>
      <trkpt lat="43.60508" lon="2.3096">
        <ele>242.8702393</ele>
        <time>2014-06-18T07:47:10Z</time>
      </trkpt>
      <trkpt lat="43.60515" lon="2.30966">
        <ele>245.2734375</ele>
        <time>2014-06-18T07:47:14Z</time>
      </trkpt>
      <trkpt lat="43.60528" lon="2.30975">
        <ele>244.3122559</ele>
        <time>2014-06-18T07:47:20Z</time>
      </trkpt>
      <trkpt lat="43.60538" lon="2.30987">
        <ele>247.1960449</ele>
        <time>2014-06-18T07:47:25Z</time>
      </trkpt>
      <trkpt lat="43.60556" lon="2.31001">
        <ele>252.9639893</ele>
        <time>2014-06-18T07:47:32Z</time>
      </trkpt>
      <trkpt lat="43.6057" lon="2.31016">
        <ele>255.3673096</ele>
        <time>2014-06-18T07:47:40Z</time>
      </trkpt>
      <trkpt lat="43.60584" lon="2.31032">
        <ele>257.2900391</ele>
        <time>2014-06-18T07:47:48Z</time>
      </trkpt>
      <trkpt lat="43.60596" lon="2.31049">
        <ele>256.8093262</ele>
        <time>2014-06-18T07:47:56Z</time>
      </trkpt>
      <trkpt lat="43.60604" lon="2.31063">
        <ele>259.2126465</ele>
        <time>2014-06-18T07:48:02Z</time>
      </trkpt>
      <trkpt lat="43.60611" lon="2.31074">
        <ele>261.6159668</ele>
        <time>2014-06-18T07:48:08Z</time>
      </trkpt>
      <trkpt lat="43.60621" lon="2.3108">
        <ele>263.5385742</ele>
        <time>2014-06-18T07:48:14Z</time>
      </trkpt>
      <trkpt lat="43.60631" lon="2.31086">
        <ele>264.9805908</ele>
        <time>2014-06-18T07:48:20Z</time>
      </trkpt>
      <trkpt lat="43.60642" lon="2.31087">
        <ele>267.864502</ele>
        <time>2014-06-18T07:48:27Z</time>
      </trkpt>
      <trkpt lat="43.6065" lon="2.31083">
        <ele>270.2677002</ele>
        <time>2014-06-18T07:48:32Z</time>
      </trkpt>
      <trkpt lat="43.60657" lon="2.31075">
        <ele>269.7871094</ele>
        <time>2014-06-18T07:48:38Z</time>
      </trkpt>
      <trkpt lat="43.60661" lon="2.31068">
        <ele>270.7484131</ele>
        <time>2014-06-18T07:48:43Z</time>
      </trkpt>
      <trkpt lat="43.60662" lon="2.31069">
        <ele>271.229126</ele>
        <time>2014-06-18T07:48:44Z</time>
      </trkpt>
      <trkpt lat="43.60662" lon="2.3107">
        <ele>273.6324463</ele>
        <time>2014-06-18T07:48:53Z</time>
      </trkpt>
      <trkpt lat="43.60662" lon="2.31069">
        <ele>273.6324463</ele>
        <time>2014-06-18T07:48:59Z</time>
      </trkpt>
      <trkpt lat="43.60661" lon="2.31068">
        <ele>273.1518555</ele>
        <time>2014-06-18T07:49:05Z</time>
      </trkpt>
      <trkpt lat="43.60661" lon="2.31067">
        <ele>273.1518555</ele>
        <time>2014-06-18T07:49:09Z</time>
      </trkpt>
      <trkpt lat="43.60662" lon="2.31068">
        <ele>271.7097168</ele>
        <time>2014-06-18T07:49:13Z</time>
      </trkpt>
      <trkpt lat="43.60661" lon="2.31067">
        <ele>273.1518555</ele>
        <time>2014-06-18T07:49:17Z</time>
      </trkpt>
      <trkpt lat="43.60661" lon="2.31067">
        <ele>274.1130371</ele>
        <time>2014-06-18T07:49:18Z</time>
      </trkpt>
      <trkpt lat="43.60662" lon="2.31066">
        <ele>274.1130371</ele>
        <time>2014-06-18T07:49:29Z</time>
      </trkpt>
      <trkpt lat="43.60661" lon="2.31066">
        <ele>274.59375</ele>
        <time>2014-06-18T07:49:35Z</time>
      </trkpt>
      <trkpt lat="43.60661" lon="2.31066">
        <ele>273.6324463</ele>
        <time>2014-06-18T07:49:41Z</time>
      </trkpt>
      <trkpt lat="43.60661" lon="2.31065">
        <ele>273.6324463</ele>
        <time>2014-06-18T07:49:48Z</time>
      </trkpt>
      <trkpt lat="43.60661" lon="2.31065">
        <ele>274.1130371</ele>
        <time>2014-06-18T07:49:51Z</time>
      </trkpt>
      <trkpt lat="43.60661" lon="2.31065">
        <ele>274.1130371</ele>
        <time>2014-06-18T07:49:52Z</time>
      </trkpt>
      <trkpt lat="43.60661" lon="2.31065">
        <ele>274.1130371</ele>
        <time>2014-06-18T07:49:53Z</time>
      </trkpt>
      <trkpt lat="43.60661" lon="2.31065">
        <ele>272.6711426</ele>
        <time>2014-06-18T07:50:02Z</time>
      </trkpt>
      <trkpt lat="43.60662" lon="2.31065">
        <ele>270.7484131</ele>
        <time>2014-06-18T07:50:21Z</time>
      </trkpt>
      <trkpt lat="43.60664" lon="2.31065">
        <ele>271.7097168</ele>
        <time>2014-06-18T07:50:23Z</time>
      </trkpt>
      <trkpt lat="43.6067" lon="2.31079">
        <ele>273.6324463</ele>
        <time>2014-06-18T07:50:29Z</time>
      </trkpt>
      <trkpt lat="43.60673" lon="2.31084">
        <ele>274.59375</ele>
        <time>2014-06-18T07:50:34Z</time>
      </trkpt>
      <trkpt lat="43.60677" lon="2.3109">
        <ele>276.0356445</ele>
        <time>2014-06-18T07:50:43Z</time>
      </trkpt>
      <trkpt lat="43.60685" lon="2.31101">
        <ele>278.4389648</ele>
        <time>2014-06-18T07:50:50Z</time>
      </trkpt>
      <trkpt lat="43.60688" lon="2.31119">
        <ele>279.8808594</ele>
        <time>2014-06-18T07:50:57Z</time>
      </trkpt>
      <trkpt lat="43.60687" lon="2.31141">
        <ele>281.322998</ele>
        <time>2014-06-18T07:51:04Z</time>
      </trkpt>
      <trkpt lat="43.60683" lon="2.31169">
        <ele>282.2843018</ele>
        <time>2014-06-18T07:51:11Z</time>
      </trkpt>
      <trkpt lat="43.60681" lon="2.31193">
        <ele>282.2843018</ele>
        <time>2014-06-18T07:51:17Z</time>
      </trkpt>
      <trkpt lat="43.60685" lon="2.31217">
        <ele>284.2069092</ele>
        <time>2014-06-18T07:51:23Z</time>
      </trkpt>
      <trkpt lat="43.60693" lon="2.31238">
        <ele>286.6102295</ele>
        <time>2014-06-18T07:51:29Z</time>
      </trkpt>
      <trkpt lat="43.60702" lon="2.31262">
        <ele>289.9748535</ele>
        <time>2014-06-18T07:51:36Z</time>
      </trkpt>
      <trkpt lat="43.60708" lon="2.3128">
        <ele>289.9748535</ele>
        <time>2014-06-18T07:51:42Z</time>
      </trkpt>
      <trkpt lat="43.60715" lon="2.313">
        <ele>292.3781738</ele>
        <time>2014-06-18T07:51:49Z</time>
      </trkpt>
      <trkpt lat="43.60721" lon="2.3131">
        <ele>292.8587646</ele>
        <time>2014-06-18T07:51:54Z</time>
      </trkpt>
      <trkpt lat="43.6073" lon="2.31326">
        <ele>293.8200684</ele>
        <time>2014-06-18T07:52:00Z</time>
      </trkpt>
      <trkpt lat="43.60735" lon="2.31343">
        <ele>290.9361572</ele>
        <time>2014-06-18T07:52:06Z</time>
      </trkpt>
      <trkpt lat="43.60737" lon="2.31355">
        <ele>291.416748</ele>
        <time>2014-06-18T07:52:10Z</time>
      </trkpt>
      <trkpt lat="43.60739" lon="2.31374">
        <ele>293.8200684</ele>
        <time>2014-06-18T07:52:16Z</time>
      </trkpt>
      <trkpt lat="43.60738" lon="2.31382">
        <ele>294.3007813</ele>
        <time>2014-06-18T07:52:18Z</time>
      </trkpt>
      <trkpt lat="43.60734" lon="2.3141">
        <ele>297.6654053</ele>
        <time>2014-06-18T07:52:26Z</time>
      </trkpt>
      <trkpt lat="43.60734" lon="2.31427">
        <ele>298.626709</ele>
        <time>2014-06-18T07:52:31Z</time>
      </trkpt>
      <trkpt lat="43.60738" lon="2.31443">
        <ele>299.5880127</ele>
        <time>2014-06-18T07:52:36Z</time>
      </trkpt>
      <trkpt lat="43.60745" lon="2.31455">
        <ele>301.991333</ele>
        <time>2014-06-18T07:52:41Z</time>
      </trkpt>
      <trkpt lat="43.60754" lon="2.31468">
        <ele>302.4719238</ele>
        <time>2014-06-18T07:52:48Z</time>
      </trkpt>
      <trkpt lat="43.60758" lon="2.31479">
        <ele>299.5880127</ele>
        <time>2014-06-18T07:52:53Z</time>
      </trkpt>
      <trkpt lat="43.60762" lon="2.3149">
        <ele>300.5493164</ele>
        <time>2014-06-18T07:52:58Z</time>
      </trkpt>
      <trkpt lat="43.60767" lon="2.31506">
        <ele>302.4719238</ele>
        <time>2014-06-18T07:53:05Z</time>
      </trkpt>
      <trkpt lat="43.60772" lon="2.31529">
        <ele>305.355957</ele>
        <time>2014-06-18T07:53:13Z</time>
      </trkpt>
      <trkpt lat="43.60775" lon="2.31541">
        <ele>306.3172607</ele>
        <time>2014-06-18T07:53:19Z</time>
      </trkpt>
      <trkpt lat="43.60778" lon="2.31555">
        <ele>307.7592773</ele>
        <time>2014-06-18T07:53:25Z</time>
      </trkpt>
      <trkpt lat="43.60783" lon="2.3157">
        <ele>306.3172607</ele>
        <time>2014-06-18T07:53:32Z</time>
      </trkpt>
      <trkpt lat="43.60784" lon="2.31583">
        <ele>304.3946533</ele>
        <time>2014-06-18T07:53:38Z</time>
      </trkpt>
      <trkpt lat="43.6079" lon="2.31594">
        <ele>309.2011719</ele>
        <time>2014-06-18T07:53:44Z</time>
      </trkpt>
      <trkpt lat="43.60792" lon="2.31605">
        <ele>311.1237793</ele>
        <time>2014-06-18T07:53:48Z</time>
      </trkpt>
      <trkpt lat="43.60801" lon="2.31622">
        <ele>310.6430664</ele>
        <time>2014-06-18T07:53:55Z</time>
      </trkpt>
      <trkpt lat="43.60813" lon="2.31641">
        <ele>313.0465088</ele>
        <time>2014-06-18T07:54:02Z</time>
      </trkpt>
      <trkpt lat="43.60815" lon="2.31649">
        <ele>314.9691162</ele>
        <time>2014-06-18T07:54:05Z</time>
      </trkpt>
      <trkpt lat="43.60824" lon="2.31654">
        <ele>314.0078125</ele>
        <time>2014-06-18T07:54:09Z</time>
      </trkpt>
      <trkpt lat="43.60829" lon="2.31671">
        <ele>317.3724365</ele>
        <time>2014-06-18T07:54:15Z</time>
      </trkpt>
      <trkpt lat="43.60834" lon="2.31686">
        <ele>319.2950439</ele>
        <time>2014-06-18T07:54:21Z</time>
      </trkpt>
      <trkpt lat="43.60842" lon="2.31698">
        <ele>323.6209717</ele>
        <time>2014-06-18T07:54:27Z</time>
      </trkpt>
      <trkpt lat="43.60851" lon="2.31711">
        <ele>324.1015625</ele>
        <time>2014-06-18T07:54:34Z</time>
      </trkpt>
      <trkpt lat="43.60854" lon="2.31722">
        <ele>325.0629883</ele>
        <time>2014-06-18T07:54:40Z</time>
      </trkpt>
      <trkpt lat="43.60852" lon="2.31745">
        <ele>325.5435791</ele>
        <time>2014-06-18T07:54:48Z</time>
      </trkpt>
      <trkpt lat="43.60849" lon="2.31783">
        <ele>325.5435791</ele>
        <time>2014-06-18T07:54:58Z</time>
      </trkpt>
      <trkpt lat="43.60849" lon="2.31799">
        <ele>324.1015625</ele>
        <time>2014-06-18T07:55:02Z</time>
      </trkpt>
      <trkpt lat="43.6085" lon="2.31828">
        <ele>325.0629883</ele>
        <time>2014-06-18T07:55:09Z</time>
      </trkpt>
      <trkpt lat="43.60849" lon="2.31844">
        <ele>326.0241699</ele>
        <time>2014-06-18T07:55:14Z</time>
      </trkpt>
      <trkpt lat="43.60849" lon="2.31869">
        <ele>327.4661865</ele>
        <time>2014-06-18T07:55:21Z</time>
      </trkpt>
      <trkpt lat="43.60845" lon="2.31885">
        <ele>328.9083252</ele>
        <time>2014-06-18T07:55:26Z</time>
      </trkpt>
      <trkpt lat="43.60836" lon="2.31907">
        <ele>330.8309326</ele>
        <time>2014-06-18T07:55:33Z</time>
      </trkpt>
      <trkpt lat="43.60828" lon="2.31925">
        <ele>330.8309326</ele>
        <time>2014-06-18T07:55:39Z</time>
      </trkpt>
      <trkpt lat="43.60817" lon="2.3195">
        <ele>331.7921143</ele>
        <time>2014-06-18T07:55:46Z</time>
      </trkpt>
      <trkpt lat="43.60807" lon="2.31968">
        <ele>332.75354</ele>
        <time>2014-06-18T07:55:52Z</time>
      </trkpt>
      <trkpt lat="43.608" lon="2.31985">
        <ele>333.7147217</ele>
        <time>2014-06-18T07:55:57Z</time>
      </trkpt>
      <trkpt lat="43.60789" lon="2.32006">
        <ele>333.2341309</ele>
        <time>2014-06-18T07:56:03Z</time>
      </trkpt>
      <trkpt lat="43.60774" lon="2.32034">
        <ele>331.7921143</ele>
        <time>2014-06-18T07:56:08Z</time>
      </trkpt>
      <trkpt lat="43.6076" lon="2.3206">
        <ele>330.8309326</ele>
        <time>2014-06-18T07:56:13Z</time>
      </trkpt>
      <trkpt lat="43.60742" lon="2.32099">
        <ele>329.8695068</ele>
        <time>2014-06-18T07:56:20Z</time>
      </trkpt>
      <trkpt lat="43.60737" lon="2.32108">
        <ele>329.388916</ele>
        <time>2014-06-18T07:56:22Z</time>
      </trkpt>
      <trkpt lat="43.60726" lon="2.3214">
        <ele>328.4276123</ele>
        <time>2014-06-18T07:56:28Z</time>
      </trkpt>
      <trkpt lat="43.60712" lon="2.32177">
        <ele>328.9083252</ele>
        <time>2014-06-18T07:56:35Z</time>
      </trkpt>
      <trkpt lat="43.60697" lon="2.32208">
        <ele>328.4276123</ele>
        <time>2014-06-18T07:56:41Z</time>
      </trkpt>
      <trkpt lat="43.60679" lon="2.32241">
        <ele>327.4661865</ele>
        <time>2014-06-18T07:56:48Z</time>
      </trkpt>
      <trkpt lat="43.60672" lon="2.32257">
        <ele>327.4661865</ele>
        <time>2014-06-18T07:56:51Z</time>
      </trkpt>
      <trkpt lat="43.60667" lon="2.32272">
        <ele>326.9855957</ele>
        <time>2014-06-18T07:56:54Z</time>
      </trkpt>
      <trkpt lat="43.60665" lon="2.32283">
        <ele>327.4661865</ele>
        <time>2014-06-18T07:56:56Z</time>
      </trkpt>
      <trkpt lat="43.60656" lon="2.32319">
        <ele>327.9467773</ele>
        <time>2014-06-18T07:57:03Z</time>
      </trkpt>
      <trkpt lat="43.60645" lon="2.32367">
        <ele>325.5435791</ele>
        <time>2014-06-18T07:57:11Z</time>
      </trkpt>
      <trkpt lat="43.60639" lon="2.32404">
        <ele>324.5822754</ele>
        <time>2014-06-18T07:57:18Z</time>
      </trkpt>
      <trkpt lat="43.60636" lon="2.3244">
        <ele>326.0241699</ele>
        <time>2014-06-18T07:57:26Z</time>
      </trkpt>
      <trkpt lat="43.60638" lon="2.32473">
        <ele>326.9855957</ele>
        <time>2014-06-18T07:57:33Z</time>
      </trkpt>
      <trkpt lat="43.60642" lon="2.32495">
        <ele>331.3115234</ele>
        <time>2014-06-18T07:57:39Z</time>
      </trkpt>
      <trkpt lat="43.6065" lon="2.32512">
        <ele>333.7147217</ele>
        <time>2014-06-18T07:57:45Z</time>
      </trkpt>
      <trkpt lat="43.60661" lon="2.32525">
        <ele>337.0794678</ele>
        <time>2014-06-18T07:57:51Z</time>
      </trkpt>
      <trkpt lat="43.6067" lon="2.32539">
        <ele>340.9246826</ele>
        <time>2014-06-18T07:57:58Z</time>
      </trkpt>
      <trkpt lat="43.60672" lon="2.32539">
        <ele>342.84729</ele>
        <time>2014-06-18T07:58:04Z</time>
      </trkpt>
      <trkpt lat="43.6067" lon="2.32538">
        <ele>341.4052734</ele>
        <time>2014-06-18T07:58:16Z</time>
      </trkpt>
      <trkpt lat="43.60669" lon="2.32538">
        <ele>339.0020752</ele>
        <time>2014-06-18T07:58:22Z</time>
      </trkpt>
      <trkpt lat="43.60668" lon="2.32539">
        <ele>336.598877</ele>
        <time>2014-06-18T07:58:29Z</time>
      </trkpt>
      <trkpt lat="43.60667" lon="2.32539">
        <ele>338.0407715</ele>
        <time>2014-06-18T07:58:35Z</time>
      </trkpt>
      <trkpt lat="43.60667" lon="2.32539">
        <ele>339.0020752</ele>
        <time>2014-06-18T07:58:40Z</time>
      </trkpt>
      <trkpt lat="43.60671" lon="2.32543">
        <ele>341.4052734</ele>
        <time>2014-06-18T07:58:46Z</time>
      </trkpt>
      <trkpt lat="43.60676" lon="2.3255">
        <ele>341.4052734</ele>
        <time>2014-06-18T07:58:50Z</time>
      </trkpt>
      <trkpt lat="43.60685" lon="2.32564">
        <ele>342.84729</ele>
        <time>2014-06-18T07:58:57Z</time>
      </trkpt>
      <trkpt lat="43.60689" lon="2.3257">
        <ele>343.3278809</ele>
        <time>2014-06-18T07:59:00Z</time>
      </trkpt>
      <trkpt lat="43.607" lon="2.32586">
        <ele>342.84729</ele>
        <time>2014-06-18T07:59:08Z</time>
      </trkpt>
      <trkpt lat="43.60708" lon="2.32599">
        <ele>340.4440918</ele>
        <time>2014-06-18T07:59:14Z</time>
      </trkpt>
      <trkpt lat="43.60717" lon="2.32607">
        <ele>342.3666992</ele>
        <time>2014-06-18T07:59:19Z</time>
      </trkpt>
      <trkpt lat="43.60729" lon="2.32622">
        <ele>344.2894287</ele>
        <time>2014-06-18T07:59:27Z</time>
      </trkpt>
      <trkpt lat="43.60733" lon="2.32632">
        <ele>345.2506104</ele>
        <time>2014-06-18T07:59:31Z</time>
      </trkpt>
      <trkpt lat="43.60739" lon="2.32647">
        <ele>346.692627</ele>
        <time>2014-06-18T07:59:37Z</time>
      </trkpt>
      <trkpt lat="43.6074" lon="2.32662">
        <ele>349.0958252</ele>
        <time>2014-06-18T07:59:44Z</time>
      </trkpt>
      <trkpt lat="43.60741" lon="2.32678">
        <ele>351.4991455</ele>
        <time>2014-06-18T07:59:52Z</time>
      </trkpt>
      <trkpt lat="43.60744" lon="2.32689">
        <ele>354.3831787</ele>
        <time>2014-06-18T07:59:57Z</time>
      </trkpt>
      <trkpt lat="43.60746" lon="2.32698">
        <ele>355.8251953</ele>
        <time>2014-06-18T08:00:01Z</time>
      </trkpt>
      <trkpt lat="43.60749" lon="2.32716">
        <ele>361.1124268</ele>
        <time>2014-06-18T08:00:09Z</time>
      </trkpt>
      <trkpt lat="43.60748" lon="2.3273">
        <ele>363.9963379</ele>
        <time>2014-06-18T08:00:15Z</time>
      </trkpt>
      <trkpt lat="43.60743" lon="2.32743">
        <ele>363.9963379</ele>
        <time>2014-06-18T08:00:22Z</time>
      </trkpt>
      <trkpt lat="43.60739" lon="2.32755">
        <ele>362.5543213</ele>
        <time>2014-06-18T08:00:28Z</time>
      </trkpt>
      <trkpt lat="43.6074" lon="2.32769">
        <ele>365.4383545</ele>
        <time>2014-06-18T08:00:35Z</time>
      </trkpt>
      <trkpt lat="43.60741" lon="2.32782">
        <ele>365.4383545</ele>
        <time>2014-06-18T08:00:41Z</time>
      </trkpt>
      <trkpt lat="43.60737" lon="2.32791">
        <ele>365.9189453</ele>
        <time>2014-06-18T08:00:46Z</time>
      </trkpt>
      <trkpt lat="43.6073" lon="2.32804">
        <ele>366.3995361</ele>
        <time>2014-06-18T08:00:53Z</time>
      </trkpt>
      <trkpt lat="43.60721" lon="2.32815">
        <ele>366.3995361</ele>
        <time>2014-06-18T08:00:59Z</time>
      </trkpt>
      <trkpt lat="43.60711" lon="2.32826">
        <ele>367.3609619</ele>
        <time>2014-06-18T08:01:06Z</time>
      </trkpt>
      <trkpt lat="43.60701" lon="2.32834">
        <ele>366.880249</ele>
        <time>2014-06-18T08:01:12Z</time>
      </trkpt>
      <trkpt lat="43.60689" lon="2.32848">
        <ele>368.8029785</ele>
        <time>2014-06-18T08:01:19Z</time>
      </trkpt>
      <trkpt lat="43.60681" lon="2.32856">
        <ele>371.2062988</ele>
        <time>2014-06-18T08:01:24Z</time>
      </trkpt>
      <trkpt lat="43.60667" lon="2.3287">
        <ele>374.0900879</ele>
        <time>2014-06-18T08:01:32Z</time>
      </trkpt>
      <trkpt lat="43.6065" lon="2.32881">
        <ele>373.1289063</ele>
        <time>2014-06-18T08:01:40Z</time>
      </trkpt>
      <trkpt lat="43.60633" lon="2.32897">
        <ele>372.6481934</ele>
        <time>2014-06-18T08:01:48Z</time>
      </trkpt>
      <trkpt lat="43.60618" lon="2.32917">
        <ele>371.6868896</ele>
        <time>2014-06-18T08:01:55Z</time>
      </trkpt>
      <trkpt lat="43.60602" lon="2.32943">
        <ele>370.244873</ele>
        <time>2014-06-18T08:02:02Z</time>
      </trkpt>
      <trkpt lat="43.6059" lon="2.32973">
        <ele>370.7255859</ele>
        <time>2014-06-18T08:02:08Z</time>
      </trkpt>
      <trkpt lat="43.60578" lon="2.33014">
        <ele>373.6094971</ele>
        <time>2014-06-18T08:02:15Z</time>
      </trkpt>
      <trkpt lat="43.60565" lon="2.33069">
        <ele>374.5708008</ele>
        <time>2014-06-18T08:02:24Z</time>
      </trkpt>
      <trkpt lat="43.60553" lon="2.33114">
        <ele>375.0515137</ele>
        <time>2014-06-18T08:02:32Z</time>
      </trkpt>
      <trkpt lat="43.60548" lon="2.33141">
        <ele>376.4935303</ele>
        <time>2014-06-18T08:02:38Z</time>
      </trkpt>
      <trkpt lat="43.60542" lon="2.33168">
        <ele>376.9742432</ele>
        <time>2014-06-18T08:02:44Z</time>
      </trkpt>
      <trkpt lat="43.60534" lon="2.33206">
        <ele>376.0128174</ele>
        <time>2014-06-18T08:02:50Z</time>
      </trkpt>
      <trkpt lat="43.60528" lon="2.33253">
        <ele>373.6094971</ele>
        <time>2014-06-18T08:02:56Z</time>
      </trkpt>
      <trkpt lat="43.60526" lon="2.3328">
        <ele>373.1289063</ele>
        <time>2014-06-18T08:02:59Z</time>
      </trkpt>
      <trkpt lat="43.60528" lon="2.33315">
        <ele>372.1674805</ele>
        <time>2014-06-18T08:03:03Z</time>
      </trkpt>
      <trkpt lat="43.60533" lon="2.33353">
        <ele>373.1289063</ele>
        <time>2014-06-18T08:03:09Z</time>
      </trkpt>
      <trkpt lat="43.60539" lon="2.33391">
        <ele>375.0515137</ele>
        <time>2014-06-18T08:03:16Z</time>
      </trkpt>
      <trkpt lat="43.6054" lon="2.33396">
        <ele>374.5708008</ele>
        <time>2014-06-18T08:03:17Z</time>
      </trkpt>
      <trkpt lat="43.60542" lon="2.33437">
        <ele>372.1674805</ele>
        <time>2014-06-18T08:03:23Z</time>
      </trkpt>
      <trkpt lat="43.60544" lon="2.33485">
        <ele>368.3222656</ele>
        <time>2014-06-18T08:03:29Z</time>
      </trkpt>
      <trkpt lat="43.60545" lon="2.33523">
        <ele>367.8415527</ele>
        <time>2014-06-18T08:03:33Z</time>
      </trkpt>
      <trkpt lat="43.6054" lon="2.33571">
        <ele>367.3609619</ele>
        <time>2014-06-18T08:03:38Z</time>
      </trkpt>
      <trkpt lat="43.6054" lon="2.33591">
        <ele>368.3222656</ele>
        <time>2014-06-18T08:03:41Z</time>
      </trkpt>
      <trkpt lat="43.6054" lon="2.336">
        <ele>370.244873</ele>
        <time>2014-06-18T08:03:43Z</time>
      </trkpt>
      <trkpt lat="43.6054" lon="2.33604">
        <ele>372.1674805</ele>
        <time>2014-06-18T08:03:48Z</time>
      </trkpt>
      <trkpt lat="43.6054" lon="2.33605">
        <ele>371.6868896</ele>
        <time>2014-06-18T08:03:49Z</time>
      </trkpt>
      <trkpt lat="43.60541" lon="2.33616">
        <ele>371.6868896</ele>
        <time>2014-06-18T08:03:53Z</time>
      </trkpt>
      <trkpt lat="43.60538" lon="2.33637">
        <ele>372.6481934</ele>
        <time>2014-06-18T08:04:01Z</time>
      </trkpt>
      <trkpt lat="43.60534" lon="2.33653">
        <ele>375.0515137</ele>
        <time>2014-06-18T08:04:07Z</time>
      </trkpt>
      <trkpt lat="43.60531" lon="2.3367">
        <ele>376.4935303</ele>
        <time>2014-06-18T08:04:12Z</time>
      </trkpt>
      <trkpt lat="43.60526" lon="2.33688">
        <ele>377.9354248</ele>
        <time>2014-06-18T08:04:18Z</time>
      </trkpt>
      <trkpt lat="43.6052" lon="2.33707">
        <ele>383.2226563</ele>
        <time>2014-06-18T08:04:24Z</time>
      </trkpt>
      <trkpt lat="43.60515" lon="2.33723">
        <ele>384.184082</ele>
        <time>2014-06-18T08:04:30Z</time>
      </trkpt>
      <trkpt lat="43.60509" lon="2.33739">
        <ele>380.819458</ele>
        <time>2014-06-18T08:04:36Z</time>
      </trkpt>
      <trkpt lat="43.60505" lon="2.33751">
        <ele>378.4161377</ele>
        <time>2014-06-18T08:04:40Z</time>
      </trkpt>
      <trkpt lat="43.605" lon="2.33762">
        <ele>378.8968506</ele>
        <time>2014-06-18T08:04:44Z</time>
      </trkpt>
      <trkpt lat="43.60491" lon="2.33777">
        <ele>377.9354248</ele>
        <time>2014-06-18T08:04:49Z</time>
      </trkpt>
      <trkpt lat="43.60479" lon="2.33786">
        <ele>378.8968506</ele>
        <time>2014-06-18T08:04:55Z</time>
      </trkpt>
      <trkpt lat="43.6047" lon="2.33791">
        <ele>378.8968506</ele>
        <time>2014-06-18T08:05:01Z</time>
      </trkpt>
      <trkpt lat="43.60462" lon="2.33804">
        <ele>374.5708008</ele>
        <time>2014-06-18T08:05:08Z</time>
      </trkpt>
      <trkpt lat="43.60454" lon="2.33813">
        <ele>379.8580322</ele>
        <time>2014-06-18T08:05:14Z</time>
      </trkpt>
      <trkpt lat="43.60454" lon="2.33814">
        <ele>379.8580322</ele>
        <time>2014-06-18T08:05:15Z</time>
      </trkpt>
      <trkpt lat="43.60454" lon="2.33826">
        <ele>382.2613525</ele>
        <time>2014-06-18T08:05:22Z</time>
      </trkpt>
      <trkpt lat="43.6045" lon="2.33844">
        <ele>388.0292969</ele>
        <time>2014-06-18T08:05:30Z</time>
      </trkpt>
      <trkpt lat="43.60447" lon="2.33854">
        <ele>391.3937988</ele>
        <time>2014-06-18T08:05:34Z</time>
      </trkpt>
      <trkpt lat="43.60442" lon="2.33869">
        <ele>397.6424561</ele>
        <time>2014-06-18T08:05:41Z</time>
      </trkpt>
      <trkpt lat="43.60439" lon="2.33883">
        <ele>399.5650635</ele>
        <time>2014-06-18T08:05:47Z</time>
      </trkpt>
      <trkpt lat="43.60437" lon="2.33896">
        <ele>400.5264893</ele>
        <time>2014-06-18T08:05:53Z</time>
      </trkpt>
      <trkpt lat="43.60437" lon="2.33909">
        <ele>400.0458984</ele>
        <time>2014-06-18T08:05:58Z</time>
      </trkpt>
      <trkpt lat="43.60437" lon="2.33911">
        <ele>400.5264893</ele>
        <time>2014-06-18T08:05:59Z</time>
      </trkpt>
      <trkpt lat="43.60436" lon="2.33927">
        <ele>402.9296875</ele>
        <time>2014-06-18T08:06:06Z</time>
      </trkpt>
      <trkpt lat="43.60434" lon="2.33937">
        <ele>405.8137207</ele>
        <time>2014-06-18T08:06:09Z</time>
      </trkpt>
      <trkpt lat="43.60435" lon="2.33954">
        <ele>407.7363281</ele>
        <time>2014-06-18T08:06:16Z</time>
      </trkpt>
      <trkpt lat="43.60437" lon="2.33969">
        <ele>407.7363281</ele>
        <time>2014-06-18T08:06:22Z</time>
      </trkpt>
      <trkpt lat="43.60439" lon="2.33977">
        <ele>405.3330078</ele>
        <time>2014-06-18T08:06:25Z</time>
      </trkpt>
      <trkpt lat="43.60444" lon="2.33999">
        <ele>406.2943115</ele>
        <time>2014-06-18T08:06:33Z</time>
      </trkpt>
      <trkpt lat="43.60444" lon="2.34003">
        <ele>405.8137207</ele>
        <time>2014-06-18T08:06:35Z</time>
      </trkpt>
      <trkpt lat="43.60448" lon="2.34025">
        <ele>406.7749023</ele>
        <time>2014-06-18T08:06:45Z</time>
      </trkpt>
      <trkpt lat="43.60451" lon="2.34045">
        <ele>407.7363281</ele>
        <time>2014-06-18T08:06:52Z</time>
      </trkpt>
      <trkpt lat="43.60451" lon="2.34048">
        <ele>408.217041</ele>
        <time>2014-06-18T08:06:53Z</time>
      </trkpt>
      <trkpt lat="43.60455" lon="2.34064">
        <ele>409.1783447</ele>
        <time>2014-06-18T08:07:00Z</time>
      </trkpt>
      <trkpt lat="43.60456" lon="2.34081">
        <ele>411.1009521</ele>
        <time>2014-06-18T08:07:07Z</time>
      </trkpt>
      <trkpt lat="43.60458" lon="2.34103">
        <ele>410.1396484</ele>
        <time>2014-06-18T08:07:15Z</time>
      </trkpt>
      <trkpt lat="43.60457" lon="2.3412">
        <ele>409.1783447</ele>
        <time>2014-06-18T08:07:21Z</time>
      </trkpt>
      <trkpt lat="43.60455" lon="2.34134">
        <ele>410.1396484</ele>
        <time>2014-06-18T08:07:27Z</time>
      </trkpt>
      <trkpt lat="43.60455" lon="2.34147">
        <ele>407.7363281</ele>
        <time>2014-06-18T08:07:32Z</time>
      </trkpt>
      <trkpt lat="43.60448" lon="2.34167">
        <ele>409.1783447</ele>
        <time>2014-06-18T08:07:39Z</time>
      </trkpt>
      <trkpt lat="43.60442" lon="2.34183">
        <ele>410.1396484</ele>
        <time>2014-06-18T08:07:45Z</time>
      </trkpt>
      <trkpt lat="43.60435" lon="2.34201">
        <ele>416.3881836</ele>
        <time>2014-06-18T08:07:52Z</time>
      </trkpt>
      <trkpt lat="43.60433" lon="2.34225">
        <ele>416.3881836</ele>
        <time>2014-06-18T08:08:01Z</time>
      </trkpt>
      <trkpt lat="43.60433" lon="2.34246">
        <ele>417.3496094</ele>
        <time>2014-06-18T08:08:08Z</time>
      </trkpt>
      <trkpt lat="43.60436" lon="2.34267">
        <ele>417.8302002</ele>
        <time>2014-06-18T08:08:15Z</time>
      </trkpt>
      <trkpt lat="43.60442" lon="2.34283">
        <ele>417.8302002</ele>
        <time>2014-06-18T08:08:21Z</time>
      </trkpt>
      <trkpt lat="43.60449" lon="2.34297">
        <ele>418.310791</ele>
        <time>2014-06-18T08:08:27Z</time>
      </trkpt>
      <trkpt lat="43.60451" lon="2.343">
        <ele>418.7915039</ele>
        <time>2014-06-18T08:08:29Z</time>
      </trkpt>
      <trkpt lat="43.60457" lon="2.34312">
        <ele>420.7141113</ele>
        <time>2014-06-18T08:08:34Z</time>
      </trkpt>
      <trkpt lat="43.60462" lon="2.34329">
        <ele>420.2333984</ele>
        <time>2014-06-18T08:08:41Z</time>
      </trkpt>
      <trkpt lat="43.60463" lon="2.34348">
        <ele>422.1560059</ele>
        <time>2014-06-18T08:08:47Z</time>
      </trkpt>
      <trkpt lat="43.60469" lon="2.34364">
        <ele>424.0787354</ele>
        <time>2014-06-18T08:08:54Z</time>
      </trkpt>
      <trkpt lat="43.60476" lon="2.34383">
        <ele>427.9239502</ele>
        <time>2014-06-18T08:09:01Z</time>
      </trkpt>
      <trkpt lat="43.6048" lon="2.344">
        <ele>430.3272705</ele>
        <time>2014-06-18T08:09:08Z</time>
      </trkpt>
      <trkpt lat="43.60481" lon="2.34403">
        <ele>430.3272705</ele>
        <time>2014-06-18T08:09:09Z</time>
      </trkpt>
      <trkpt lat="43.60486" lon="2.34418">
        <ele>431.2885742</ele>
        <time>2014-06-18T08:09:15Z</time>
      </trkpt>
      <trkpt lat="43.60488" lon="2.34422">
        <ele>432.25</ele>
        <time>2014-06-18T08:09:17Z</time>
      </trkpt>
      <trkpt lat="43.60495" lon="2.34441">
        <ele>436.0952148</ele>
        <time>2014-06-18T08:09:25Z</time>
      </trkpt>
      <trkpt lat="43.60497" lon="2.34461">
        <ele>437.0565186</ele>
        <time>2014-06-18T08:09:32Z</time>
      </trkpt>
      <trkpt lat="43.60496" lon="2.34469">
        <ele>439.4597168</ele>
        <time>2014-06-18T08:09:37Z</time>
      </trkpt>
      <trkpt lat="43.60489" lon="2.34479">
        <ele>445.2276611</ele>
        <time>2014-06-18T08:09:43Z</time>
      </trkpt>
      <trkpt lat="43.60488" lon="2.34487">
        <ele>444.2664795</ele>
        <time>2014-06-18T08:09:45Z</time>
      </trkpt>
      <trkpt lat="43.60489" lon="2.3451">
        <ele>436.5759277</ele>
        <time>2014-06-18T08:09:52Z</time>
      </trkpt>
      <trkpt lat="43.6049" lon="2.34516">
        <ele>433.2113037</ele>
        <time>2014-06-18T08:09:54Z</time>
      </trkpt>
      <trkpt lat="43.60495" lon="2.34531">
        <ele>430.8079834</ele>
        <time>2014-06-18T08:10:00Z</time>
      </trkpt>
      <trkpt lat="43.60497" lon="2.34537">
        <ele>431.2885742</ele>
        <time>2014-06-18T08:10:02Z</time>
      </trkpt>
      <trkpt lat="43.60502" lon="2.34552">
        <ele>429.3659668</ele>
        <time>2014-06-18T08:10:07Z</time>
      </trkpt>
      <trkpt lat="43.60499" lon="2.34568">
        <ele>421.675415</ele>
        <time>2014-06-18T08:10:12Z</time>
      </trkpt>
      <trkpt lat="43.60497" lon="2.34569">
        <ele>419.7528076</ele>
        <time>2014-06-18T08:10:13Z</time>
      </trkpt>
      <trkpt lat="43.60489" lon="2.34565">
        <ele>417.3496094</ele>
        <time>2014-06-18T08:10:19Z</time>
      </trkpt>
      <trkpt lat="43.60488" lon="2.34564">
        <ele>418.310791</ele>
        <time>2014-06-18T08:10:20Z</time>
      </trkpt>
      <trkpt lat="43.60477" lon="2.34557">
        <ele>421.675415</ele>
        <time>2014-06-18T08:10:25Z</time>
      </trkpt>
      <trkpt lat="43.60456" lon="2.34555">
        <ele>425.0401611</ele>
        <time>2014-06-18T08:10:32Z</time>
      </trkpt>
      <trkpt lat="43.60446" lon="2.34563">
        <ele>428.4046631</ele>
        <time>2014-06-18T08:10:37Z</time>
      </trkpt>
      <trkpt lat="43.60445" lon="2.34576">
        <ele>427.9239502</ele>
        <time>2014-06-18T08:10:42Z</time>
      </trkpt>
      <trkpt lat="43.60442" lon="2.3459">
        <ele>428.885376</ele>
        <time>2014-06-18T08:10:47Z</time>
      </trkpt>
      <trkpt lat="43.6044" lon="2.34604">
        <ele>429.3659668</ele>
        <time>2014-06-18T08:10:54Z</time>
      </trkpt>
      <trkpt lat="43.6044" lon="2.3461">
        <ele>429.8465576</ele>
        <time>2014-06-18T08:10:57Z</time>
      </trkpt>
      <trkpt lat="43.60438" lon="2.34626">
        <ele>433.6918945</ele>
        <time>2014-06-18T08:11:02Z</time>
      </trkpt>
      <trkpt lat="43.60434" lon="2.34644">
        <ele>440.9018555</ele>
        <time>2014-06-18T08:11:10Z</time>
      </trkpt>
      <trkpt lat="43.60433" lon="2.34648">
        <ele>441.8631592</ele>
        <time>2014-06-18T08:11:12Z</time>
      </trkpt>
      <trkpt lat="43.60427" lon="2.34664">
        <ele>444.2664795</ele>
        <time>2014-06-18T08:11:19Z</time>
      </trkpt>
      <trkpt lat="43.60425" lon="2.34669">
        <ele>445.2276611</ele>
        <time>2014-06-18T08:11:25Z</time>
      </trkpt>
      <trkpt lat="43.60426" lon="2.34669">
        <ele>443.7857666</ele>
        <time>2014-06-18T08:11:26Z</time>
      </trkpt>
      <trkpt lat="43.60426" lon="2.34673">
        <ele>442.8244629</ele>
        <time>2014-06-18T08:11:33Z</time>
      </trkpt>
      <trkpt lat="43.60429" lon="2.34673">
        <ele>441.3824463</ele>
        <time>2014-06-18T08:11:37Z</time>
      </trkpt>
      <trkpt lat="43.60429" lon="2.34676">
        <ele>447.1502686</ele>
        <time>2014-06-18T08:11:45Z</time>
      </trkpt>
      <trkpt lat="43.60429" lon="2.34679">
        <ele>448.1118164</ele>
        <time>2014-06-18T08:11:48Z</time>
      </trkpt>
      <trkpt lat="43.60424" lon="2.34692">
        <ele>446.1890869</ele>
        <time>2014-06-18T08:11:54Z</time>
      </trkpt>
      <trkpt lat="43.60422" lon="2.34701">
        <ele>444.2664795</ele>
        <time>2014-06-18T08:11:58Z</time>
      </trkpt>
      <trkpt lat="43.60417" lon="2.34716">
        <ele>442.8244629</ele>
        <time>2014-06-18T08:12:04Z</time>
      </trkpt>
      <trkpt lat="43.60416" lon="2.34722">
        <ele>442.8244629</ele>
        <time>2014-06-18T08:12:06Z</time>
      </trkpt>
      <trkpt lat="43.60411" lon="2.34738">
        <ele>443.3050537</ele>
        <time>2014-06-18T08:12:12Z</time>
      </trkpt>
      <trkpt lat="43.60407" lon="2.34747">
        <ele>443.3050537</ele>
        <time>2014-06-18T08:12:16Z</time>
      </trkpt>
      <trkpt lat="43.604" lon="2.34765">
        <ele>447.1502686</ele>
        <time>2014-06-18T08:12:24Z</time>
      </trkpt>
      <trkpt lat="43.60394" lon="2.34781">
        <ele>448.5924072</ele>
        <time>2014-06-18T08:12:30Z</time>
      </trkpt>
      <trkpt lat="43.60391" lon="2.34793">
        <ele>450.9956055</ele>
        <time>2014-06-18T08:12:35Z</time>
      </trkpt>
      <trkpt lat="43.6039" lon="2.34813">
        <ele>451.4763184</ele>
        <time>2014-06-18T08:12:42Z</time>
      </trkpt>
      <trkpt lat="43.60391" lon="2.34831">
        <ele>452.4376221</ele>
        <time>2014-06-18T08:12:48Z</time>
      </trkpt>
      <trkpt lat="43.6039" lon="2.34855">
        <ele>452.9182129</ele>
        <time>2014-06-18T08:12:56Z</time>
      </trkpt>
      <trkpt lat="43.60389" lon="2.34872">
        <ele>451.9570313</ele>
        <time>2014-06-18T08:13:01Z</time>
      </trkpt>
      <trkpt lat="43.60393" lon="2.3489">
        <ele>453.8796387</ele>
        <time>2014-06-18T08:13:07Z</time>
      </trkpt>
      <trkpt lat="43.60394" lon="2.34912">
        <ele>449.072998</ele>
        <time>2014-06-18T08:13:14Z</time>
      </trkpt>
      <trkpt lat="43.60395" lon="2.34937">
        <ele>450.9956055</ele>
        <time>2014-06-18T08:13:22Z</time>
      </trkpt>
      <trkpt lat="43.60395" lon="2.34939">
        <ele>451.4763184</ele>
        <time>2014-06-18T08:13:23Z</time>
      </trkpt>
      <trkpt lat="43.60403" lon="2.34937">
        <ele>452.4376221</ele>
        <time>2014-06-18T08:13:28Z</time>
      </trkpt>
      <trkpt lat="43.60406" lon="2.3493">
        <ele>450.0344238</ele>
        <time>2014-06-18T08:13:31Z</time>
      </trkpt>
      <trkpt lat="43.60409" lon="2.3491">
        <ele>446.1890869</ele>
        <time>2014-06-18T08:13:39Z</time>
      </trkpt>
      <trkpt lat="43.60418" lon="2.3489">
        <ele>444.2664795</ele>
        <time>2014-06-18T08:13:48Z</time>
      </trkpt>
      <trkpt lat="43.60428" lon="2.34871">
        <ele>446.6696777</ele>
        <time>2014-06-18T08:13:57Z</time>
      </trkpt>
      <trkpt lat="43.60435" lon="2.34855">
        <ele>448.1118164</ele>
        <time>2014-06-18T08:14:04Z</time>
      </trkpt>
      <trkpt lat="43.60437" lon="2.34851">
        <ele>449.072998</ele>
        <time>2014-06-18T08:14:06Z</time>
      </trkpt>
      <trkpt lat="43.60444" lon="2.3485">
        <ele>451.4763184</ele>
        <time>2014-06-18T08:14:12Z</time>
      </trkpt>
      <trkpt lat="43.60443" lon="2.34856">
        <ele>452.4376221</ele>
        <time>2014-06-18T08:14:15Z</time>
      </trkpt>
      <trkpt lat="43.60438" lon="2.34876">
        <ele>454.8408203</ele>
        <time>2014-06-18T08:14:23Z</time>
      </trkpt>
      <trkpt lat="43.60439" lon="2.34892">
        <ele>456.7635498</ele>
        <time>2014-06-18T08:14:29Z</time>
      </trkpt>
      <trkpt lat="43.6044" lon="2.34916">
        <ele>458.6861572</ele>
        <time>2014-06-18T08:14:35Z</time>
      </trkpt>
      <trkpt lat="43.6044" lon="2.34936">
        <ele>461.5701904</ele>
        <time>2014-06-18T08:14:40Z</time>
      </trkpt>
      <trkpt lat="43.60443" lon="2.34953">
        <ele>464.4541016</ele>
        <time>2014-06-18T08:14:45Z</time>
      </trkpt>
      <trkpt lat="43.60445" lon="2.34954">
        <ele>464.4541016</ele>
        <time>2014-06-18T08:14:46Z</time>
      </trkpt>
      <trkpt lat="43.60455" lon="2.34946">
        <ele>465.8961182</ele>
        <time>2014-06-18T08:14:51Z</time>
      </trkpt>
      <trkpt lat="43.60465" lon="2.34926">
        <ele>462.5313721</ele>
        <time>2014-06-18T08:14:57Z</time>
      </trkpt>
      <trkpt lat="43.60486" lon="2.34904">
        <ele>455.8022461</ele>
        <time>2014-06-18T08:15:06Z</time>
      </trkpt>
      <trkpt lat="43.60502" lon="2.34891">
        <ele>450.9956055</ele>
        <time>2014-06-18T08:15:13Z</time>
      </trkpt>
      <trkpt lat="43.60519" lon="2.34874">
        <ele>453.8796387</ele>
        <time>2014-06-18T08:15:21Z</time>
      </trkpt>
      <trkpt lat="43.60527" lon="2.34866">
        <ele>454.8408203</ele>
        <time>2014-06-18T08:15:26Z</time>
      </trkpt>
      <trkpt lat="43.60528" lon="2.34866">
        <ele>455.3215332</ele>
        <time>2014-06-18T08:15:27Z</time>
      </trkpt>
      <trkpt lat="43.60528" lon="2.34871">
        <ele>456.7635498</ele>
        <time>2014-06-18T08:15:31Z</time>
      </trkpt>
      <trkpt lat="43.60523" lon="2.34888">
        <ele>459.1668701</ele>
        <time>2014-06-18T08:15:38Z</time>
      </trkpt>
      <trkpt lat="43.60518" lon="2.34917">
        <ele>466.8574219</ele>
        <time>2014-06-18T08:15:46Z</time>
      </trkpt>
      <trkpt lat="43.60518" lon="2.34935">
        <ele>471.1833496</ele>
        <time>2014-06-18T08:15:53Z</time>
      </trkpt>
      <trkpt lat="43.60518" lon="2.34936">
        <ele>473.1060791</ele>
        <time>2014-06-18T08:15:57Z</time>
      </trkpt>
      <trkpt lat="43.60516" lon="2.34934">
        <ele>470.2219238</ele>
        <time>2014-06-18T08:16:04Z</time>
      </trkpt>
      <trkpt lat="43.60516" lon="2.34933">
        <ele>470.7026367</ele>
        <time>2014-06-18T08:16:10Z</time>
      </trkpt>
      <trkpt lat="43.60514" lon="2.34932">
        <ele>469.2607422</ele>
        <time>2014-06-18T08:16:13Z</time>
      </trkpt>
      <trkpt lat="43.60512" lon="2.34931">
        <ele>467.8187256</ele>
        <time>2014-06-18T08:16:16Z</time>
      </trkpt>
      <trkpt lat="43.60515" lon="2.34931">
        <ele>468.2993164</ele>
        <time>2014-06-18T08:16:18Z</time>
      </trkpt>
      <trkpt lat="43.60524" lon="2.34939">
        <ele>470.2219238</ele>
        <time>2014-06-18T08:16:24Z</time>
      </trkpt>
      <trkpt lat="43.60542" lon="2.34953">
        <ele>471.6639404</ele>
        <time>2014-06-18T08:16:31Z</time>
      </trkpt>
      <trkpt lat="43.60556" lon="2.34966">
        <ele>471.6639404</ele>
        <time>2014-06-18T08:16:37Z</time>
      </trkpt>
      <trkpt lat="43.60578" lon="2.34986">
        <ele>474.0672607</ele>
        <time>2014-06-18T08:16:45Z</time>
      </trkpt>
      <trkpt lat="43.60606" lon="2.35014">
        <ele>475.9898682</ele>
        <time>2014-06-18T08:16:54Z</time>
      </trkpt>
      <trkpt lat="43.60632" lon="2.35043">
        <ele>476.4705811</ele>
        <time>2014-06-18T08:17:01Z</time>
      </trkpt>
      <trkpt lat="43.60645" lon="2.35055">
        <ele>476.9512939</ele>
        <time>2014-06-18T08:17:05Z</time>
      </trkpt>
      <trkpt lat="43.60656" lon="2.35067">
        <ele>476.9512939</ele>
        <time>2014-06-18T08:17:09Z</time>
      </trkpt>
      <trkpt lat="43.60673" lon="2.35103">
        <ele>477.9124756</ele>
        <time>2014-06-18T08:17:16Z</time>
      </trkpt>
      <trkpt lat="43.60679" lon="2.35116">
        <ele>477.9124756</ele>
        <time>2014-06-18T08:17:18Z</time>
      </trkpt>
      <trkpt lat="43.60683" lon="2.35144">
        <ele>479.835083</ele>
        <time>2014-06-18T08:17:22Z</time>
      </trkpt>
      <trkpt lat="43.60684" lon="2.35158">
        <ele>480.7966309</ele>
        <time>2014-06-18T08:17:24Z</time>
      </trkpt>
      <trkpt lat="43.60683" lon="2.35188">
        <ele>482.2385254</ele>
        <time>2014-06-18T08:17:28Z</time>
      </trkpt>
      <trkpt lat="43.60683" lon="2.35205">
        <ele>483.1998291</ele>
        <time>2014-06-18T08:17:30Z</time>
      </trkpt>
      <trkpt lat="43.60682" lon="2.35216">
        <ele>485.1224365</ele>
        <time>2014-06-18T08:17:32Z</time>
      </trkpt>
      <trkpt lat="43.60689" lon="2.35245">
        <ele>485.1224365</ele>
        <time>2014-06-18T08:17:38Z</time>
      </trkpt>
      <trkpt lat="43.60693" lon="2.35258">
        <ele>483.6804199</ele>
        <time>2014-06-18T08:17:40Z</time>
      </trkpt>
      <trkpt lat="43.60695" lon="2.35269">
        <ele>485.6030273</ele>
        <time>2014-06-18T08:17:42Z</time>
      </trkpt>
      <trkpt lat="43.60703" lon="2.35302">
        <ele>475.9898682</ele>
        <time>2014-06-18T08:17:49Z</time>
      </trkpt>
      <trkpt lat="43.60708" lon="2.35322">
        <ele>466.8574219</ele>
        <time>2014-06-18T08:17:55Z</time>
      </trkpt>
      <trkpt lat="43.60722" lon="2.35324">
        <ele>464.9348145</ele>
        <time>2014-06-18T08:18:01Z</time>
      </trkpt>
      <trkpt lat="43.6073" lon="2.35319">
        <ele>463.9733887</ele>
        <time>2014-06-18T08:18:03Z</time>
      </trkpt>
      <trkpt lat="43.60754" lon="2.35299">
        <ele>463.4927979</ele>
        <time>2014-06-18T08:18:09Z</time>
      </trkpt>
      <trkpt lat="43.60778" lon="2.35281">
        <ele>462.0507813</ele>
        <time>2014-06-18T08:18:14Z</time>
      </trkpt>
      <trkpt lat="43.60795" lon="2.35283">
        <ele>462.5313721</ele>
        <time>2014-06-18T08:18:18Z</time>
      </trkpt>
      <trkpt lat="43.60807" lon="2.35287">
        <ele>462.5313721</ele>
        <time>2014-06-18T08:18:21Z</time>
      </trkpt>
      <trkpt lat="43.60817" lon="2.35301">
        <ele>460.6087646</ele>
        <time>2014-06-18T08:18:27Z</time>
      </trkpt>
      <trkpt lat="43.60817" lon="2.35306">
        <ele>461.0894775</ele>
        <time>2014-06-18T08:18:28Z</time>
      </trkpt>
      <trkpt lat="43.60825" lon="2.35328">
        <ele>460.6087646</ele>
        <time>2014-06-18T08:18:34Z</time>
      </trkpt>
      <trkpt lat="43.6084" lon="2.35339">
        <ele>463.9733887</ele>
        <time>2014-06-18T08:18:39Z</time>
      </trkpt>
      <trkpt lat="43.60851" lon="2.35345">
        <ele>464.9348145</ele>
        <time>2014-06-18T08:18:43Z</time>
      </trkpt>
      <trkpt lat="43.60862" lon="2.35355">
        <ele>463.9733887</ele>
        <time>2014-06-18T08:18:48Z</time>
      </trkpt>
      <trkpt lat="43.60872" lon="2.35369">
        <ele>462.5313721</ele>
        <time>2014-06-18T08:18:53Z</time>
      </trkpt>
      <trkpt lat="43.60883" lon="2.35381">
        <ele>461.0894775</ele>
        <time>2014-06-18T08:18:59Z</time>
      </trkpt>
      <trkpt lat="43.60886" lon="2.35381">
        <ele>461.5701904</ele>
        <time>2014-06-18T08:19:04Z</time>
      </trkpt>
      <trkpt lat="43.60887" lon="2.35382">
        <ele>461.5701904</ele>
        <time>2014-06-18T08:19:09Z</time>
      </trkpt>
      <trkpt lat="43.6089" lon="2.35383">
        <ele>462.0507813</ele>
        <time>2014-06-18T08:19:13Z</time>
      </trkpt>
      <trkpt lat="43.60896" lon="2.35384">
        <ele>463.4927979</ele>
        <time>2014-06-18T08:19:20Z</time>
      </trkpt>
      <trkpt lat="43.60902" lon="2.35381">
        <ele>463.9733887</ele>
        <time>2014-06-18T08:19:26Z</time>
      </trkpt>
      <trkpt lat="43.60907" lon="2.35376">
        <ele>462.0507813</ele>
        <time>2014-06-18T08:19:30Z</time>
      </trkpt>
      <trkpt lat="43.60911" lon="2.35374">
        <ele>461.5701904</ele>
        <time>2014-06-18T08:19:37Z</time>
      </trkpt>
      <trkpt lat="43.60912" lon="2.35368">
        <ele>460.6087646</ele>
        <time>2014-06-18T08:19:42Z</time>
      </trkpt>
      <trkpt lat="43.6092" lon="2.35358">
        <ele>460.6087646</ele>
        <time>2014-06-18T08:19:47Z</time>
      </trkpt>
      <trkpt lat="43.6093" lon="2.3535">
        <ele>459.647583</ele>
        <time>2014-06-18T08:19:53Z</time>
      </trkpt>
      <trkpt lat="43.60943" lon="2.35338">
        <ele>459.1668701</ele>
        <time>2014-06-18T08:20:00Z</time>
      </trkpt>
      <trkpt lat="43.60952" lon="2.35328">
        <ele>461.0894775</ele>
        <time>2014-06-18T08:20:05Z</time>
      </trkpt>
      <trkpt lat="43.60959" lon="2.35321">
        <ele>463.4927979</ele>
        <time>2014-06-18T08:20:10Z</time>
      </trkpt>
      <trkpt lat="43.60966" lon="2.35315">
        <ele>465.8961182</ele>
        <time>2014-06-18T08:20:15Z</time>
      </trkpt>
      <trkpt lat="43.60976" lon="2.35306">
        <ele>469.2607422</ele>
        <time>2014-06-18T08:20:21Z</time>
      </trkpt>
      <trkpt lat="43.60984" lon="2.353">
        <ele>469.2607422</ele>
        <time>2014-06-18T08:20:27Z</time>
      </trkpt>
      <trkpt lat="43.60994" lon="2.35292">
        <ele>469.2607422</ele>
        <time>2014-06-18T08:20:34Z</time>
      </trkpt>
      <trkpt lat="43.61002" lon="2.35287">
        <ele>468.7800293</ele>
        <time>2014-06-18T08:20:39Z</time>
      </trkpt>
      <trkpt lat="43.6101" lon="2.35281">
        <ele>472.1446533</ele>
        <time>2014-06-18T08:20:44Z</time>
      </trkpt>
      <trkpt lat="43.61023" lon="2.35275">
        <ele>474.5479736</ele>
        <time>2014-06-18T08:20:51Z</time>
      </trkpt>
      <trkpt lat="43.61036" lon="2.35269">
        <ele>475.5092773</ele>
        <time>2014-06-18T08:20:57Z</time>
      </trkpt>
      <trkpt lat="43.61053" lon="2.35261">
        <ele>476.4705811</ele>
        <time>2014-06-18T08:21:04Z</time>
      </trkpt>
      <trkpt lat="43.61066" lon="2.35253">
        <ele>476.9512939</ele>
        <time>2014-06-18T08:21:10Z</time>
      </trkpt>
      <trkpt lat="43.61076" lon="2.35242">
        <ele>476.4705811</ele>
        <time>2014-06-18T08:21:16Z</time>
      </trkpt>
      <trkpt lat="43.61088" lon="2.35226">
        <ele>475.9898682</ele>
        <time>2014-06-18T08:21:21Z</time>
      </trkpt>
      <trkpt lat="43.611" lon="2.35211">
        <ele>475.0286865</ele>
        <time>2014-06-18T08:21:26Z</time>
      </trkpt>
      <trkpt lat="43.61117" lon="2.35199">
        <ele>472.1446533</ele>
        <time>2014-06-18T08:21:32Z</time>
      </trkpt>
      <trkpt lat="43.61138" lon="2.35188">
        <ele>474.0672607</ele>
        <time>2014-06-18T08:21:39Z</time>
      </trkpt>
      <trkpt lat="43.61163" lon="2.35177">
        <ele>478.3931885</ele>
        <time>2014-06-18T08:21:47Z</time>
      </trkpt>
      <trkpt lat="43.61184" lon="2.35168">
        <ele>478.8739014</ele>
        <time>2014-06-18T08:21:54Z</time>
      </trkpt>
      <trkpt lat="43.612" lon="2.35158">
        <ele>479.3544922</ele>
        <time>2014-06-18T08:21:59Z</time>
      </trkpt>
      <trkpt lat="43.61221" lon="2.35145">
        <ele>481.7578125</ele>
        <time>2014-06-18T08:22:05Z</time>
      </trkpt>
      <trkpt lat="43.61242" lon="2.35134">
        <ele>483.6804199</ele>
        <time>2014-06-18T08:22:12Z</time>
      </trkpt>
      <trkpt lat="43.61252" lon="2.3513">
        <ele>488.0064697</ele>
        <time>2014-06-18T08:22:17Z</time>
      </trkpt>
      <trkpt lat="43.61265" lon="2.3513">
        <ele>489.9290771</ele>
        <time>2014-06-18T08:22:22Z</time>
      </trkpt>
      <trkpt lat="43.61282" lon="2.3513">
        <ele>486.5644531</ele>
        <time>2014-06-18T08:22:27Z</time>
      </trkpt>
      <trkpt lat="43.61284" lon="2.35129">
        <ele>486.0837402</ele>
        <time>2014-06-18T08:22:28Z</time>
      </trkpt>
      <trkpt lat="43.61303" lon="2.35133">
        <ele>485.1224365</ele>
        <time>2014-06-18T08:22:35Z</time>
      </trkpt>
      <trkpt lat="43.61321" lon="2.35145">
        <ele>488.9677734</ele>
        <time>2014-06-18T08:22:39Z</time>
      </trkpt>
      <trkpt lat="43.61332" lon="2.35155">
        <ele>486.0837402</ele>
        <time>2014-06-18T08:22:43Z</time>
      </trkpt>
      <trkpt lat="43.61347" lon="2.35175">
        <ele>478.8739014</ele>
        <time>2014-06-18T08:22:49Z</time>
      </trkpt>
      <trkpt lat="43.61357" lon="2.35191">
        <ele>481.2772217</ele>
        <time>2014-06-18T08:22:54Z</time>
      </trkpt>
      <trkpt lat="43.61367" lon="2.35213">
        <ele>472.1446533</ele>
        <time>2014-06-18T08:23:00Z</time>
      </trkpt>
      <trkpt lat="43.61367" lon="2.35217">
        <ele>468.2993164</ele>
        <time>2014-06-18T08:23:01Z</time>
      </trkpt>
      <trkpt lat="43.61382" lon="2.35224">
        <ele>465.8961182</ele>
        <time>2014-06-18T08:23:06Z</time>
      </trkpt>
      <trkpt lat="43.61394" lon="2.35226">
        <ele>467.8187256</ele>
        <time>2014-06-18T08:23:09Z</time>
      </trkpt>
      <trkpt lat="43.61415" lon="2.35228">
        <ele>470.7026367</ele>
        <time>2014-06-18T08:23:16Z</time>
      </trkpt>
      <trkpt lat="43.61428" lon="2.35229">
        <ele>481.7578125</ele>
        <time>2014-06-18T08:23:24Z</time>
      </trkpt>
      <trkpt lat="43.61432" lon="2.35228">
        <ele>484.6418457</ele>
        <time>2014-06-18T08:23:28Z</time>
      </trkpt>
      <trkpt lat="43.6144" lon="2.35213">
        <ele>486.0837402</ele>
        <time>2014-06-18T08:23:33Z</time>
      </trkpt>
      <trkpt lat="43.61448" lon="2.35176">
        <ele>482.7192383</ele>
        <time>2014-06-18T08:23:40Z</time>
      </trkpt>
      <trkpt lat="43.61452" lon="2.35149">
        <ele>482.7192383</ele>
        <time>2014-06-18T08:23:46Z</time>
      </trkpt>
      <trkpt lat="43.61451" lon="2.35129">
        <ele>482.2385254</ele>
        <time>2014-06-18T08:23:52Z</time>
      </trkpt>
      <trkpt lat="43.61447" lon="2.35114">
        <ele>482.2385254</ele>
        <time>2014-06-18T08:23:57Z</time>
      </trkpt>
      <trkpt lat="43.61447" lon="2.35119">
        <ele>483.6804199</ele>
        <time>2014-06-18T08:24:03Z</time>
      </trkpt>
      <trkpt lat="43.61448" lon="2.35121">
        <ele>483.6804199</ele>
        <time>2014-06-18T08:24:04Z</time>
      </trkpt>
      <trkpt lat="43.61456" lon="2.35127">
        <ele>483.6804199</ele>
        <time>2014-06-18T08:24:08Z</time>
      </trkpt>
      <trkpt lat="43.6147" lon="2.35118">
        <ele>483.1998291</ele>
        <time>2014-06-18T08:24:13Z</time>
      </trkpt>
      <trkpt lat="43.61472" lon="2.35115">
        <ele>483.1998291</ele>
        <time>2014-06-18T08:24:14Z</time>
      </trkpt>
      <trkpt lat="43.61486" lon="2.35097">
        <ele>484.1611328</ele>
        <time>2014-06-18T08:24:20Z</time>
      </trkpt>
      <trkpt lat="43.61493" lon="2.35078">
        <ele>484.6418457</ele>
        <time>2014-06-18T08:24:26Z</time>
      </trkpt>
      <trkpt lat="43.61498" lon="2.35065">
        <ele>487.0450439</ele>
        <time>2014-06-18T08:24:31Z</time>
      </trkpt>
      <trkpt lat="43.615" lon="2.35063">
        <ele>488.0064697</ele>
        <time>2014-06-18T08:24:32Z</time>
      </trkpt>
      <trkpt lat="43.61505" lon="2.35052">
        <ele>492.3323975</ele>
        <time>2014-06-18T08:24:37Z</time>
      </trkpt>
      <trkpt lat="43.61511" lon="2.35046">
        <ele>496.6583252</ele>
        <time>2014-06-18T08:24:42Z</time>
      </trkpt>
      <trkpt lat="43.61513" lon="2.35045">
        <ele>497.138916</ele>
        <time>2014-06-18T08:24:43Z</time>
      </trkpt>
      <trkpt lat="43.61522" lon="2.35037">
        <ele>500.50354</ele>
        <time>2014-06-18T08:24:49Z</time>
      </trkpt>
      <trkpt lat="43.61531" lon="2.35034">
        <ele>500.50354</ele>
        <time>2014-06-18T08:24:55Z</time>
      </trkpt>
      <trkpt lat="43.61534" lon="2.35035">
        <ele>499.5422363</ele>
        <time>2014-06-18T08:24:57Z</time>
      </trkpt>
      <trkpt lat="43.6154" lon="2.35045">
        <ele>499.0615234</ele>
        <time>2014-06-18T08:25:04Z</time>
      </trkpt>
      <trkpt lat="43.61548" lon="2.35063">
        <ele>499.0615234</ele>
        <time>2014-06-18T08:25:10Z</time>
      </trkpt>
      <trkpt lat="43.61552" lon="2.35079">
        <ele>500.0229492</ele>
        <time>2014-06-18T08:25:16Z</time>
      </trkpt>
      <trkpt lat="43.61555" lon="2.35095">
        <ele>500.50354</ele>
        <time>2014-06-18T08:25:23Z</time>
      </trkpt>
      <trkpt lat="43.6156" lon="2.35108">
        <ele>501.9455566</ele>
        <time>2014-06-18T08:25:30Z</time>
      </trkpt>
      <trkpt lat="43.61563" lon="2.35123">
        <ele>503.8681641</ele>
        <time>2014-06-18T08:25:36Z</time>
      </trkpt>
      <trkpt lat="43.61567" lon="2.3514">
        <ele>504.8294678</ele>
        <time>2014-06-18T08:25:42Z</time>
      </trkpt>
      <trkpt lat="43.61575" lon="2.35164">
        <ele>505.7908936</ele>
        <time>2014-06-18T08:25:50Z</time>
      </trkpt>
      <trkpt lat="43.61581" lon="2.35189">
        <ele>506.7520752</ele>
        <time>2014-06-18T08:25:58Z</time>
      </trkpt>
      <trkpt lat="43.61582" lon="2.35208">
        <ele>508.6746826</ele>
        <time>2014-06-18T08:26:05Z</time>
      </trkpt>
      <trkpt lat="43.61579" lon="2.35225">
        <ele>510.59729</ele>
        <time>2014-06-18T08:26:12Z</time>
      </trkpt>
      <trkpt lat="43.61578" lon="2.35234">
        <ele>512.0394287</ele>
        <time>2014-06-18T08:26:18Z</time>
      </trkpt>
      <trkpt lat="43.61577" lon="2.35245">
        <ele>512.5200195</ele>
        <time>2014-06-18T08:26:23Z</time>
      </trkpt>
      <trkpt lat="43.6158" lon="2.35265">
        <ele>515.4040527</ele>
        <time>2014-06-18T08:26:31Z</time>
      </trkpt>
      <trkpt lat="43.61583" lon="2.3528">
        <ele>517.3266602</ele>
        <time>2014-06-18T08:26:37Z</time>
      </trkpt>
      <trkpt lat="43.61586" lon="2.35299">
        <ele>519.7298584</ele>
        <time>2014-06-18T08:26:44Z</time>
      </trkpt>
      <trkpt lat="43.6159" lon="2.35322">
        <ele>522.1331787</ele>
        <time>2014-06-18T08:26:52Z</time>
      </trkpt>
      <trkpt lat="43.61594" lon="2.35345">
        <ele>526.4591064</ele>
        <time>2014-06-18T08:27:01Z</time>
      </trkpt>
      <trkpt lat="43.61597" lon="2.35368">
        <ele>529.8237305</ele>
        <time>2014-06-18T08:27:10Z</time>
      </trkpt>
      <trkpt lat="43.616" lon="2.35386">
        <ele>532.7077637</ele>
        <time>2014-06-18T08:27:17Z</time>
      </trkpt>
      <trkpt lat="43.61602" lon="2.35402">
        <ele>536.0723877</ele>
        <time>2014-06-18T08:27:23Z</time>
      </trkpt>
      <trkpt lat="43.61602" lon="2.35417">
        <ele>537.9949951</ele>
        <time>2014-06-18T08:27:29Z</time>
      </trkpt>
      <trkpt lat="43.61603" lon="2.35434">
        <ele>539.9176025</ele>
        <time>2014-06-18T08:27:35Z</time>
      </trkpt>
      <trkpt lat="43.61604" lon="2.3545">
        <ele>541.3594971</ele>
        <time>2014-06-18T08:27:41Z</time>
      </trkpt>
      <trkpt lat="43.61607" lon="2.35473">
        <ele>539.9176025</ele>
        <time>2014-06-18T08:27:49Z</time>
      </trkpt>
      <trkpt lat="43.61608" lon="2.35491">
        <ele>541.3594971</ele>
        <time>2014-06-18T08:27:55Z</time>
      </trkpt>
      <trkpt lat="43.61607" lon="2.35496">
        <ele>541.3594971</ele>
        <time>2014-06-18T08:27:57Z</time>
      </trkpt>
      <trkpt lat="43.61606" lon="2.35517">
        <ele>540.8789063</ele>
        <time>2014-06-18T08:28:04Z</time>
      </trkpt>
      <trkpt lat="43.61601" lon="2.35545">
        <ele>544.7242432</ele>
        <time>2014-06-18T08:28:11Z</time>
      </trkpt>
      <trkpt lat="43.61594" lon="2.35572">
        <ele>547.6081543</ele>
        <time>2014-06-18T08:28:19Z</time>
      </trkpt>
      <trkpt lat="43.6159" lon="2.35589">
        <ele>548.5693359</ele>
        <time>2014-06-18T08:28:24Z</time>
      </trkpt>
      <trkpt lat="43.61586" lon="2.35606">
        <ele>549.0500488</ele>
        <time>2014-06-18T08:28:29Z</time>
      </trkpt>
      <trkpt lat="43.61584" lon="2.35623">
        <ele>548.0888672</ele>
        <time>2014-06-18T08:28:34Z</time>
      </trkpt>
      <trkpt lat="43.61578" lon="2.35646">
        <ele>547.1274414</ele>
        <time>2014-06-18T08:28:41Z</time>
      </trkpt>
      <trkpt lat="43.61573" lon="2.35665">
        <ele>545.6855469</ele>
        <time>2014-06-18T08:28:48Z</time>
      </trkpt>
      <trkpt lat="43.61564" lon="2.35683">
        <ele>547.6081543</ele>
        <time>2014-06-18T08:28:54Z</time>
      </trkpt>
      <trkpt lat="43.61557" lon="2.35706">
        <ele>548.5693359</ele>
        <time>2014-06-18T08:29:01Z</time>
      </trkpt>
      <trkpt lat="43.61549" lon="2.35726">
        <ele>550.4921875</ele>
        <time>2014-06-18T08:29:07Z</time>
      </trkpt>
      <trkpt lat="43.61545" lon="2.35749">
        <ele>550.4921875</ele>
        <time>2014-06-18T08:29:13Z</time>
      </trkpt>
      <trkpt lat="43.61537" lon="2.35779">
        <ele>551.4533691</ele>
        <time>2014-06-18T08:29:22Z</time>
      </trkpt>
      <trkpt lat="43.61534" lon="2.358">
        <ele>554.8178711</ele>
        <time>2014-06-18T08:29:28Z</time>
      </trkpt>
      <trkpt lat="43.6153" lon="2.35825">
        <ele>559.144043</ele>
        <time>2014-06-18T08:29:35Z</time>
      </trkpt>
      <trkpt lat="43.6153" lon="2.35841">
        <ele>560.5859375</ele>
        <time>2014-06-18T08:29:41Z</time>
      </trkpt>
      <trkpt lat="43.61528" lon="2.35856">
        <ele>559.6247559</ele>
        <time>2014-06-18T08:29:48Z</time>
      </trkpt>
      <trkpt lat="43.61527" lon="2.35875">
        <ele>559.6247559</ele>
        <time>2014-06-18T08:29:56Z</time>
      </trkpt>
      <trkpt lat="43.61526" lon="2.35896">
        <ele>562.5085449</ele>
        <time>2014-06-18T08:30:04Z</time>
      </trkpt>
      <trkpt lat="43.61526" lon="2.35914">
        <ele>563.9504395</ele>
        <time>2014-06-18T08:30:11Z</time>
      </trkpt>
      <trkpt lat="43.61527" lon="2.35933">
        <ele>566.3537598</ele>
        <time>2014-06-18T08:30:19Z</time>
      </trkpt>
      <trkpt lat="43.61529" lon="2.35946">
        <ele>568.2763672</ele>
        <time>2014-06-18T08:30:26Z</time>
      </trkpt>
      <trkpt lat="43.61529" lon="2.35966">
        <ele>567.7956543</ele>
        <time>2014-06-18T08:30:35Z</time>
      </trkpt>
      <trkpt lat="43.61532" lon="2.35983">
        <ele>567.7956543</ele>
        <time>2014-06-18T08:30:43Z</time>
      </trkpt>
      <trkpt lat="43.61533" lon="2.35996">
        <ele>570.1989746</ele>
        <time>2014-06-18T08:30:50Z</time>
      </trkpt>
      <trkpt lat="43.61533" lon="2.3601">
        <ele>571.6408691</ele>
        <time>2014-06-18T08:30:58Z</time>
      </trkpt>
      <trkpt lat="43.61533" lon="2.36023">
        <ele>574.0444336</ele>
        <time>2014-06-18T08:31:05Z</time>
      </trkpt>
      <trkpt lat="43.61534" lon="2.36044">
        <ele>575.4863281</ele>
        <time>2014-06-18T08:31:14Z</time>
      </trkpt>
      <trkpt lat="43.61535" lon="2.36063">
        <ele>575.967041</ele>
        <time>2014-06-18T08:31:22Z</time>
      </trkpt>
      <trkpt lat="43.61536" lon="2.36081">
        <ele>576.9284668</ele>
        <time>2014-06-18T08:31:30Z</time>
      </trkpt>
      <trkpt lat="43.61538" lon="2.36098">
        <ele>577.8896484</ele>
        <time>2014-06-18T08:31:37Z</time>
      </trkpt>
      <trkpt lat="43.6154" lon="2.36115">
        <ele>579.8122559</ele>
        <time>2014-06-18T08:31:44Z</time>
      </trkpt>
      <trkpt lat="43.61544" lon="2.36132">
        <ele>581.2543945</ele>
        <time>2014-06-18T08:31:51Z</time>
      </trkpt>
      <trkpt lat="43.61548" lon="2.36152">
        <ele>582.6962891</ele>
        <time>2014-06-18T08:31:59Z</time>
      </trkpt>
      <trkpt lat="43.61549" lon="2.36179">
        <ele>584.6188965</ele>
        <time>2014-06-18T08:32:08Z</time>
      </trkpt>
      <trkpt lat="43.61548" lon="2.36204">
        <ele>586.5415039</ele>
        <time>2014-06-18T08:32:16Z</time>
      </trkpt>
      <trkpt lat="43.61547" lon="2.36234">
        <ele>587.9833984</ele>
        <time>2014-06-18T08:32:25Z</time>
      </trkpt>
      <trkpt lat="43.61546" lon="2.36258">
        <ele>588.4643555</ele>
        <time>2014-06-18T08:32:32Z</time>
      </trkpt>
      <trkpt lat="43.61544" lon="2.36288">
        <ele>587.9833984</ele>
        <time>2014-06-18T08:32:41Z</time>
      </trkpt>
      <trkpt lat="43.61542" lon="2.36307">
        <ele>587.0219727</ele>
        <time>2014-06-18T08:32:47Z</time>
      </trkpt>
      <trkpt lat="43.6154" lon="2.36324">
        <ele>587.0219727</ele>
        <time>2014-06-18T08:32:53Z</time>
      </trkpt>
      <trkpt lat="43.61539" lon="2.36335">
        <ele>587.0219727</ele>
        <time>2014-06-18T08:32:58Z</time>
      </trkpt>
      <trkpt lat="43.61537" lon="2.36344">
        <ele>587.9833984</ele>
        <time>2014-06-18T08:33:03Z</time>
      </trkpt>
      <trkpt lat="43.61534" lon="2.36362">
        <ele>589.4255371</ele>
        <time>2014-06-18T08:33:09Z</time>
      </trkpt>
      <trkpt lat="43.61531" lon="2.36389">
        <ele>595.6740723</ele>
        <time>2014-06-18T08:33:15Z</time>
      </trkpt>
      <trkpt lat="43.61523" lon="2.36409">
        <ele>596.635498</ele>
        <time>2014-06-18T08:33:20Z</time>
      </trkpt>
      <trkpt lat="43.61518" lon="2.36428">
        <ele>596.635498</ele>
        <time>2014-06-18T08:33:25Z</time>
      </trkpt>
      <trkpt lat="43.6151" lon="2.36449">
        <ele>595.1933594</ele>
        <time>2014-06-18T08:33:30Z</time>
      </trkpt>
      <trkpt lat="43.61503" lon="2.3647">
        <ele>596.635498</ele>
        <time>2014-06-18T08:33:35Z</time>
      </trkpt>
      <trkpt lat="43.61496" lon="2.3649">
        <ele>589.90625</ele>
        <time>2014-06-18T08:33:40Z</time>
      </trkpt>
      <trkpt lat="43.61487" lon="2.36518">
        <ele>587.5026855</ele>
        <time>2014-06-18T08:33:46Z</time>
      </trkpt>
      <trkpt lat="43.61481" lon="2.36535">
        <ele>584.6188965</ele>
        <time>2014-06-18T08:33:50Z</time>
      </trkpt>
      <trkpt lat="43.6147" lon="2.36565">
        <ele>584.6188965</ele>
        <time>2014-06-18T08:33:57Z</time>
      </trkpt>
      <trkpt lat="43.61462" lon="2.36592">
        <ele>588.9450684</ele>
        <time>2014-06-18T08:34:03Z</time>
      </trkpt>
      <trkpt lat="43.61457" lon="2.36616">
        <ele>593.270752</ele>
        <time>2014-06-18T08:34:09Z</time>
      </trkpt>
      <trkpt lat="43.61454" lon="2.36631">
        <ele>594.2321777</ele>
        <time>2014-06-18T08:34:13Z</time>
      </trkpt>
      <trkpt lat="43.61442" lon="2.36659">
        <ele>591.3481445</ele>
        <time>2014-06-18T08:34:20Z</time>
      </trkpt>
      <trkpt lat="43.61435" lon="2.36679">
        <ele>590.3869629</ele>
        <time>2014-06-18T08:34:25Z</time>
      </trkpt>
      <trkpt lat="43.61425" lon="2.36705">
        <ele>588.9450684</ele>
        <time>2014-06-18T08:34:29Z</time>
      </trkpt>
      <trkpt lat="43.61402" lon="2.36747">
        <ele>587.0219727</ele>
        <time>2014-06-18T08:34:35Z</time>
      </trkpt>
      <trkpt lat="43.61398" lon="2.36753">
        <ele>587.5026855</ele>
        <time>2014-06-18T08:34:36Z</time>
      </trkpt>
      <trkpt lat="43.61381" lon="2.36802">
        <ele>587.5026855</ele>
        <time>2014-06-18T08:34:42Z</time>
      </trkpt>
      <trkpt lat="43.61365" lon="2.36849">
        <ele>585.0996094</ele>
        <time>2014-06-18T08:34:48Z</time>
      </trkpt>
      <trkpt lat="43.61358" lon="2.36876">
        <ele>585.5800781</ele>
        <time>2014-06-18T08:34:51Z</time>
      </trkpt>
      <trkpt lat="43.61344" lon="2.36922">
        <ele>585.0996094</ele>
        <time>2014-06-18T08:34:56Z</time>
      </trkpt>
      <trkpt lat="43.61338" lon="2.3695">
        <ele>584.6188965</ele>
        <time>2014-06-18T08:34:59Z</time>
      </trkpt>
      <trkpt lat="43.61333" lon="2.36973">
        <ele>584.1381836</ele>
        <time>2014-06-18T08:35:02Z</time>
      </trkpt>
      <trkpt lat="43.61322" lon="2.3702">
        <ele>589.4255371</ele>
        <time>2014-06-18T08:35:09Z</time>
      </trkpt>
      <trkpt lat="43.61315" lon="2.37032">
        <ele>591.8288574</ele>
        <time>2014-06-18T08:35:12Z</time>
      </trkpt>
      <trkpt lat="43.61309" lon="2.37043">
        <ele>593.7514648</ele>
        <time>2014-06-18T08:35:16Z</time>
      </trkpt>
      <trkpt lat="43.61304" lon="2.37058">
        <ele>595.6740723</ele>
        <time>2014-06-18T08:35:22Z</time>
      </trkpt>
      <trkpt lat="43.61297" lon="2.37077">
        <ele>594.7126465</ele>
        <time>2014-06-18T08:35:27Z</time>
      </trkpt>
      <trkpt lat="43.61289" lon="2.37106">
        <ele>594.2321777</ele>
        <time>2014-06-18T08:35:32Z</time>
      </trkpt>
      <trkpt lat="43.61284" lon="2.37144">
        <ele>589.4255371</ele>
        <time>2014-06-18T08:35:39Z</time>
      </trkpt>
      <trkpt lat="43.61278" lon="2.37176">
        <ele>587.0219727</ele>
        <time>2014-06-18T08:35:45Z</time>
      </trkpt>
      <trkpt lat="43.61272" lon="2.37214">
        <ele>586.5415039</ele>
        <time>2014-06-18T08:35:52Z</time>
      </trkpt>
      <trkpt lat="43.6127" lon="2.37232">
        <ele>588.4643555</ele>
        <time>2014-06-18T08:35:55Z</time>
      </trkpt>
      <trkpt lat="43.61274" lon="2.37265">
        <ele>587.0219727</ele>
        <time>2014-06-18T08:36:02Z</time>
      </trkpt>
      <trkpt lat="43.61274" lon="2.3729">
        <ele>586.5415039</ele>
        <time>2014-06-18T08:36:08Z</time>
      </trkpt>
      <trkpt lat="43.61271" lon="2.37326">
        <ele>587.9833984</ele>
        <time>2014-06-18T08:36:15Z</time>
      </trkpt>
      <trkpt lat="43.61268" lon="2.37369">
        <ele>588.9450684</ele>
        <time>2014-06-18T08:36:23Z</time>
      </trkpt>
      <trkpt lat="43.61267" lon="2.37394">
        <ele>589.4255371</ele>
        <time>2014-06-18T08:36:28Z</time>
      </trkpt>
      <trkpt lat="43.61261" lon="2.37427">
        <ele>591.3481445</ele>
        <time>2014-06-18T08:36:34Z</time>
      </trkpt>
      <trkpt lat="43.61259" lon="2.3744">
        <ele>591.8288574</ele>
        <time>2014-06-18T08:36:36Z</time>
      </trkpt>
      <trkpt lat="43.61258" lon="2.37467">
        <ele>593.270752</ele>
        <time>2014-06-18T08:36:40Z</time>
      </trkpt>
      <trkpt lat="43.61255" lon="2.37491">
        <ele>593.7514648</ele>
        <time>2014-06-18T08:36:43Z</time>
      </trkpt>
      <trkpt lat="43.61254" lon="2.37529">
        <ele>588.9450684</ele>
        <time>2014-06-18T08:36:48Z</time>
      </trkpt>
      <trkpt lat="43.61252" lon="2.3756">
        <ele>590.3869629</ele>
        <time>2014-06-18T08:36:52Z</time>
      </trkpt>
      <trkpt lat="43.61246" lon="2.37599">
        <ele>591.3481445</ele>
        <time>2014-06-18T08:36:57Z</time>
      </trkpt>
      <trkpt lat="43.61238" lon="2.3764">
        <ele>596.1547852</ele>
        <time>2014-06-18T08:37:02Z</time>
      </trkpt>
      <trkpt lat="43.61236" lon="2.37655">
        <ele>598.5578613</ele>
        <time>2014-06-18T08:37:04Z</time>
      </trkpt>
      <trkpt lat="43.61233" lon="2.37675">
        <ele>602.8837891</ele>
        <time>2014-06-18T08:37:07Z</time>
      </trkpt>
      <trkpt lat="43.61233" lon="2.37683">
        <ele>601.9226074</ele>
        <time>2014-06-18T08:37:09Z</time>
      </trkpt>
      <trkpt lat="43.61228" lon="2.37702">
        <ele>606.729248</ele>
        <time>2014-06-18T08:37:13Z</time>
      </trkpt>
      <trkpt lat="43.61226" lon="2.37722">
        <ele>609.1325684</ele>
        <time>2014-06-18T08:37:17Z</time>
      </trkpt>
      <trkpt lat="43.61226" lon="2.3775">
        <ele>606.2485352</ele>
        <time>2014-06-18T08:37:22Z</time>
      </trkpt>
      <trkpt lat="43.61225" lon="2.37763">
        <ele>604.8066406</ele>
        <time>2014-06-18T08:37:25Z</time>
      </trkpt>
      <trkpt lat="43.61225" lon="2.37776">
        <ele>604.3261719</ele>
        <time>2014-06-18T08:37:28Z</time>
      </trkpt>
      <trkpt lat="43.61224" lon="2.37785">
        <ele>605.7680664</ele>
        <time>2014-06-18T08:37:30Z</time>
      </trkpt>
      <trkpt lat="43.61225" lon="2.37799">
        <ele>605.7680664</ele>
        <time>2014-06-18T08:37:33Z</time>
      </trkpt>
      <trkpt lat="43.61221" lon="2.37831">
        <ele>603.8452148</ele>
        <time>2014-06-18T08:37:38Z</time>
      </trkpt>
      <trkpt lat="43.61221" lon="2.37836">
        <ele>602.8837891</ele>
        <time>2014-06-18T08:37:39Z</time>
      </trkpt>
      <trkpt lat="43.61205" lon="2.37876">
        <ele>602.8837891</ele>
        <time>2014-06-18T08:37:46Z</time>
      </trkpt>
      <trkpt lat="43.61187" lon="2.37922">
        <ele>601.4418945</ele>
        <time>2014-06-18T08:37:53Z</time>
      </trkpt>
      <trkpt lat="43.61176" lon="2.37967">
        <ele>598.5578613</ele>
        <time>2014-06-18T08:37:59Z</time>
      </trkpt>
      <trkpt lat="43.61162" lon="2.38027">
        <ele>595.1933594</ele>
        <time>2014-06-18T08:38:06Z</time>
      </trkpt>
      <trkpt lat="43.61155" lon="2.38081">
        <ele>594.7126465</ele>
        <time>2014-06-18T08:38:12Z</time>
      </trkpt>
      <trkpt lat="43.61157" lon="2.38133">
        <ele>593.270752</ele>
        <time>2014-06-18T08:38:17Z</time>
      </trkpt>
      <trkpt lat="43.6116" lon="2.38179">
        <ele>594.7126465</ele>
        <time>2014-06-18T08:38:22Z</time>
      </trkpt>
      <trkpt lat="43.61164" lon="2.38222">
        <ele>596.635498</ele>
        <time>2014-06-18T08:38:27Z</time>
      </trkpt>
      <trkpt lat="43.6116" lon="2.3825">
        <ele>596.635498</ele>
        <time>2014-06-18T08:38:31Z</time>
      </trkpt>
      <trkpt lat="43.61155" lon="2.38271">
        <ele>598.5578613</ele>
        <time>2014-06-18T08:38:35Z</time>
      </trkpt>
      <trkpt lat="43.61156" lon="2.38291">
        <ele>598.5578613</ele>
        <time>2014-06-18T08:38:39Z</time>
      </trkpt>
      <trkpt lat="43.61166" lon="2.3832">
        <ele>600.4807129</ele>
        <time>2014-06-18T08:38:44Z</time>
      </trkpt>
      <trkpt lat="43.6119" lon="2.38369">
        <ele>601.4418945</ele>
        <time>2014-06-18T08:38:52Z</time>
      </trkpt>
      <trkpt lat="43.61204" lon="2.38407">
        <ele>602.8837891</ele>
        <time>2014-06-18T08:38:58Z</time>
      </trkpt>
      <trkpt lat="43.61212" lon="2.38425">
        <ele>603.364502</ele>
        <time>2014-06-18T08:39:01Z</time>
      </trkpt>
      <trkpt lat="43.61215" lon="2.38441">
        <ele>602.8837891</ele>
        <time>2014-06-18T08:39:04Z</time>
      </trkpt>
      <trkpt lat="43.61217" lon="2.38449">
        <ele>603.364502</ele>
        <time>2014-06-18T08:39:06Z</time>
      </trkpt>
      <trkpt lat="43.61216" lon="2.38468">
        <ele>605.7680664</ele>
        <time>2014-06-18T08:39:10Z</time>
      </trkpt>
      <trkpt lat="43.61223" lon="2.38499">
        <ele>606.2485352</ele>
        <time>2014-06-18T08:39:16Z</time>
      </trkpt>
      <trkpt lat="43.61231" lon="2.38532">
        <ele>602.8837891</ele>
        <time>2014-06-18T08:39:21Z</time>
      </trkpt>
      <trkpt lat="43.61243" lon="2.38577">
        <ele>600.4807129</ele>
        <time>2014-06-18T08:39:27Z</time>
      </trkpt>
      <trkpt lat="43.61262" lon="2.38629">
        <ele>595.6740723</ele>
        <time>2014-06-18T08:39:34Z</time>
      </trkpt>
      <trkpt lat="43.61276" lon="2.38655">
        <ele>594.7126465</ele>
        <time>2014-06-18T08:39:38Z</time>
      </trkpt>
      <trkpt lat="43.61299" lon="2.38676">
        <ele>595.1933594</ele>
        <time>2014-06-18T08:39:43Z</time>
      </trkpt>
      <trkpt lat="43.61312" lon="2.38691">
        <ele>595.1933594</ele>
        <time>2014-06-18T08:39:46Z</time>
      </trkpt>
      <trkpt lat="43.6132" lon="2.3871">
        <ele>598.0773926</ele>
        <time>2014-06-18T08:39:49Z</time>
      </trkpt>
      <trkpt lat="43.61327" lon="2.3873">
        <ele>599.5192871</ele>
        <time>2014-06-18T08:39:52Z</time>
      </trkpt>
      <trkpt lat="43.61335" lon="2.38749">
        <ele>600</ele>
        <time>2014-06-18T08:39:55Z</time>
      </trkpt>
      <trkpt lat="43.61341" lon="2.38771">
        <ele>598.5578613</ele>
        <time>2014-06-18T08:39:58Z</time>
      </trkpt>
      <trkpt lat="43.61342" lon="2.38787">
        <ele>598.5578613</ele>
        <time>2014-06-18T08:40:00Z</time>
      </trkpt>
      <trkpt lat="43.61343" lon="2.38811">
        <ele>598.0773926</ele>
        <time>2014-06-18T08:40:04Z</time>
      </trkpt>
      <trkpt lat="43.61338" lon="2.38835">
        <ele>600</ele>
        <time>2014-06-18T08:40:08Z</time>
      </trkpt>
      <trkpt lat="43.61326" lon="2.38882">
        <ele>610.5744629</ele>
        <time>2014-06-18T08:40:14Z</time>
      </trkpt>
      <trkpt lat="43.61324" lon="2.3889">
        <ele>611.0551758</ele>
        <time>2014-06-18T08:40:15Z</time>
      </trkpt>
      <trkpt lat="43.61329" lon="2.38945">
        <ele>607.6906738</ele>
        <time>2014-06-18T08:40:22Z</time>
      </trkpt>
      <trkpt lat="43.61331" lon="2.38951">
        <ele>608.1713867</ele>
        <time>2014-06-18T08:40:23Z</time>
      </trkpt>
      <trkpt lat="43.61331" lon="2.38959">
        <ele>608.6518555</ele>
        <time>2014-06-18T08:40:25Z</time>
      </trkpt>
      <trkpt lat="43.61333" lon="2.38965">
        <ele>608.6518555</ele>
        <time>2014-06-18T08:40:27Z</time>
      </trkpt>
      <trkpt lat="43.61329" lon="2.38982">
        <ele>609.6132813</ele>
        <time>2014-06-18T08:40:32Z</time>
      </trkpt>
      <trkpt lat="43.61317" lon="2.39008">
        <ele>604.8066406</ele>
        <time>2014-06-18T08:40:38Z</time>
      </trkpt>
      <trkpt lat="43.6131" lon="2.39026">
        <ele>606.729248</ele>
        <time>2014-06-18T08:40:41Z</time>
      </trkpt>
      <trkpt lat="43.61311" lon="2.39071">
        <ele>600</ele>
        <time>2014-06-18T08:40:48Z</time>
      </trkpt>
      <trkpt lat="43.61311" lon="2.39077">
        <ele>599.5192871</ele>
        <time>2014-06-18T08:40:49Z</time>
      </trkpt>
      <trkpt lat="43.6131" lon="2.39094">
        <ele>599.5192871</ele>
        <time>2014-06-18T08:40:52Z</time>
      </trkpt>
      <trkpt lat="43.6131" lon="2.39112">
        <ele>598.5578613</ele>
        <time>2014-06-18T08:40:55Z</time>
      </trkpt>
      <trkpt lat="43.61314" lon="2.39136">
        <ele>597.1159668</ele>
        <time>2014-06-18T08:40:59Z</time>
      </trkpt>
      <trkpt lat="43.61311" lon="2.3916">
        <ele>601.9226074</ele>
        <time>2014-06-18T08:41:04Z</time>
      </trkpt>
      <trkpt lat="43.61307" lon="2.39177">
        <ele>604.8066406</ele>
        <time>2014-06-18T08:41:09Z</time>
      </trkpt>
      <trkpt lat="43.61307" lon="2.392">
        <ele>609.1325684</ele>
        <time>2014-06-18T08:41:14Z</time>
      </trkpt>
      <trkpt lat="43.61303" lon="2.39228">
        <ele>609.1325684</ele>
        <time>2014-06-18T08:41:20Z</time>
      </trkpt>
      <trkpt lat="43.61296" lon="2.39255">
        <ele>607.2099609</ele>
        <time>2014-06-18T08:41:24Z</time>
      </trkpt>
      <trkpt lat="43.61291" lon="2.3931">
        <ele>606.2485352</ele>
        <time>2014-06-18T08:41:31Z</time>
      </trkpt>
      <trkpt lat="43.61291" lon="2.39329">
        <ele>603.8452148</ele>
        <time>2014-06-18T08:41:34Z</time>
      </trkpt>
      <trkpt lat="43.61287" lon="2.39358">
        <ele>604.8066406</ele>
        <time>2014-06-18T08:41:39Z</time>
      </trkpt>
      <trkpt lat="43.61279" lon="2.39412">
        <ele>606.2485352</ele>
        <time>2014-06-18T08:41:46Z</time>
      </trkpt>
      <trkpt lat="43.61271" lon="2.39449">
        <ele>609.6132813</ele>
        <time>2014-06-18T08:41:51Z</time>
      </trkpt>
      <trkpt lat="43.61269" lon="2.39468">
        <ele>612.4970703</ele>
        <time>2014-06-18T08:41:54Z</time>
      </trkpt>
      <trkpt lat="43.61269" lon="2.39497">
        <ele>615.3811035</ele>
        <time>2014-06-18T08:41:58Z</time>
      </trkpt>
      <trkpt lat="43.61268" lon="2.39522">
        <ele>613.9389648</ele>
        <time>2014-06-18T08:42:02Z</time>
      </trkpt>
      <trkpt lat="43.61264" lon="2.39565">
        <ele>610.09375</ele>
        <time>2014-06-18T08:42:09Z</time>
      </trkpt>
      <trkpt lat="43.6126" lon="2.39611">
        <ele>608.6518555</ele>
        <time>2014-06-18T08:42:16Z</time>
      </trkpt>
      <trkpt lat="43.61256" lon="2.39651">
        <ele>609.1325684</ele>
        <time>2014-06-18T08:42:22Z</time>
      </trkpt>
      <trkpt lat="43.6124" lon="2.39687">
        <ele>609.1325684</ele>
        <time>2014-06-18T08:42:29Z</time>
      </trkpt>
      <trkpt lat="43.61223" lon="2.39716">
        <ele>609.6132813</ele>
        <time>2014-06-18T08:42:37Z</time>
      </trkpt>
      <trkpt lat="43.61208" lon="2.39737">
        <ele>607.6906738</ele>
        <time>2014-06-18T08:42:42Z</time>
      </trkpt>
      <trkpt lat="43.61202" lon="2.39748">
        <ele>606.729248</ele>
        <time>2014-06-18T08:42:44Z</time>
      </trkpt>
      <trkpt lat="43.61166" lon="2.39787">
        <ele>604.3261719</ele>
        <time>2014-06-18T08:42:52Z</time>
      </trkpt>
      <trkpt lat="43.61136" lon="2.39815">
        <ele>602.4030762</ele>
        <time>2014-06-18T08:42:58Z</time>
      </trkpt>
      <trkpt lat="43.61132" lon="2.39821">
        <ele>602.8837891</ele>
        <time>2014-06-18T08:42:59Z</time>
      </trkpt>
      <trkpt lat="43.61119" lon="2.39849">
        <ele>602.4030762</ele>
        <time>2014-06-18T08:43:04Z</time>
      </trkpt>
      <trkpt lat="43.61115" lon="2.39871">
        <ele>602.8837891</ele>
        <time>2014-06-18T08:43:08Z</time>
      </trkpt>
      <trkpt lat="43.61113" lon="2.3988">
        <ele>602.8837891</ele>
        <time>2014-06-18T08:43:12Z</time>
      </trkpt>
      <trkpt lat="43.6111" lon="2.39885">
        <ele>603.364502</ele>
        <time>2014-06-18T08:43:21Z</time>
      </trkpt>
      <trkpt lat="43.61109" lon="2.39887">
        <ele>603.364502</ele>
        <time>2014-06-18T08:43:22Z</time>
      </trkpt>
      <trkpt lat="43.61106" lon="2.39905">
        <ele>602.8837891</ele>
        <time>2014-06-18T08:43:27Z</time>
      </trkpt>
      <trkpt lat="43.61098" lon="2.39919">
        <ele>602.8837891</ele>
        <time>2014-06-18T08:43:31Z</time>
      </trkpt>
      <trkpt lat="43.61092" lon="2.39927">
        <ele>602.4030762</ele>
        <time>2014-06-18T08:43:34Z</time>
      </trkpt>
      <trkpt lat="43.61093" lon="2.39929">
        <ele>601.9226074</ele>
        <time>2014-06-18T08:43:38Z</time>
      </trkpt>
      <trkpt lat="43.611" lon="2.39916">
        <ele>601.9226074</ele>
        <time>2014-06-18T08:43:42Z</time>
      </trkpt>
      <trkpt lat="43.61107" lon="2.39898">
        <ele>602.8837891</ele>
        <time>2014-06-18T08:43:46Z</time>
      </trkpt>
      <trkpt lat="43.61099" lon="2.39881">
        <ele>603.364502</ele>
        <time>2014-06-18T08:43:51Z</time>
      </trkpt>
      <trkpt lat="43.61087" lon="2.39881">
        <ele>603.8452148</ele>
        <time>2014-06-18T08:43:56Z</time>
      </trkpt>
      <trkpt lat="43.61075" lon="2.39889">
        <ele>603.364502</ele>
        <time>2014-06-18T08:44:01Z</time>
      </trkpt>
      <trkpt lat="43.61061" lon="2.39887">
        <ele>601.4418945</ele>
        <time>2014-06-18T08:44:05Z</time>
      </trkpt>
      <trkpt lat="43.61052" lon="2.3988">
        <ele>595.6740723</ele>
        <time>2014-06-18T08:44:11Z</time>
      </trkpt>
      <trkpt lat="43.61053" lon="2.39876">
        <ele>594.2321777</ele>
        <time>2014-06-18T08:44:15Z</time>
      </trkpt>
      <trkpt lat="43.61053" lon="2.39865">
        <ele>594.2321777</ele>
        <time>2014-06-18T08:44:20Z</time>
      </trkpt>
      <trkpt lat="43.61045" lon="2.39854">
        <ele>594.7126465</ele>
        <time>2014-06-18T08:44:25Z</time>
      </trkpt>
      <trkpt lat="43.61035" lon="2.39834">
        <ele>593.7514648</ele>
        <time>2014-06-18T08:44:32Z</time>
      </trkpt>
      <trkpt lat="43.61028" lon="2.39819">
        <ele>590.8674316</ele>
        <time>2014-06-18T08:44:38Z</time>
      </trkpt>
      <trkpt lat="43.61017" lon="2.3982">
        <ele>587.9833984</ele>
        <time>2014-06-18T08:44:43Z</time>
      </trkpt>
      <trkpt lat="43.61009" lon="2.39816">
        <ele>584.6188965</ele>
        <time>2014-06-18T08:44:49Z</time>
      </trkpt>
      <trkpt lat="43.61007" lon="2.39817">
        <ele>585.0996094</ele>
        <time>2014-06-18T08:44:54Z</time>
      </trkpt>
      <trkpt lat="43.61006" lon="2.39817">
        <ele>589.90625</ele>
        <time>2014-06-18T08:45:00Z</time>
      </trkpt>
      <trkpt lat="43.61003" lon="2.39818">
        <ele>591.3481445</ele>
        <time>2014-06-18T08:45:10Z</time>
      </trkpt>
      <trkpt lat="43.61001" lon="2.39819">
        <ele>590.3869629</ele>
        <time>2014-06-18T08:45:15Z</time>
      </trkpt>
      <trkpt lat="43.60982" lon="2.39819">
        <ele>585.5800781</ele>
        <time>2014-06-18T08:45:22Z</time>
      </trkpt>
      <trkpt lat="43.60978" lon="2.39816">
        <ele>584.6188965</ele>
        <time>2014-06-18T08:45:26Z</time>
      </trkpt>
      <trkpt lat="43.60975" lon="2.39816">
        <ele>586.060791</ele>
        <time>2014-06-18T08:45:28Z</time>
      </trkpt>
      <trkpt lat="43.60973" lon="2.39814">
        <ele>587.0219727</ele>
        <time>2014-06-18T08:45:33Z</time>
      </trkpt>
      <trkpt lat="43.60968" lon="2.39805">
        <ele>584.1381836</ele>
        <time>2014-06-18T08:45:39Z</time>
      </trkpt>
      <trkpt lat="43.60965" lon="2.39799">
        <ele>582.6962891</ele>
        <time>2014-06-18T08:45:46Z</time>
      </trkpt>
      <trkpt lat="43.60962" lon="2.39797">
        <ele>584.6188965</ele>
        <time>2014-06-18T08:45:50Z</time>
      </trkpt>
      <trkpt lat="43.60957" lon="2.39794">
        <ele>587.5026855</ele>
        <time>2014-06-18T08:45:57Z</time>
      </trkpt>
      <trkpt lat="43.60957" lon="2.39793">
        <ele>587.9833984</ele>
        <time>2014-06-18T08:46:07Z</time>
      </trkpt>
      <trkpt lat="43.60958" lon="2.3979">
        <ele>587.5026855</ele>
        <time>2014-06-18T08:46:09Z</time>
      </trkpt>
      <trkpt lat="43.60958" lon="2.39784">
        <ele>584.1381836</ele>
        <time>2014-06-18T08:46:11Z</time>
      </trkpt>
      <trkpt lat="43.60955" lon="2.39778">
        <ele>584.6188965</ele>
        <time>2014-06-18T08:46:15Z</time>
      </trkpt>
      <trkpt lat="43.60952" lon="2.39773">
        <ele>583.1767578</ele>
        <time>2014-06-18T08:46:18Z</time>
      </trkpt>
      <trkpt lat="43.60951" lon="2.39757">
        <ele>583.6574707</ele>
        <time>2014-06-18T08:46:23Z</time>
      </trkpt>
      <trkpt lat="43.60948" lon="2.39734">
        <ele>572.6025391</ele>
        <time>2014-06-18T08:46:30Z</time>
      </trkpt>
      <trkpt lat="43.60938" lon="2.39709">
        <ele>570.6796875</ele>
        <time>2014-06-18T08:46:37Z</time>
      </trkpt>
      <trkpt lat="43.6093" lon="2.39698">
        <ele>570.1989746</ele>
        <time>2014-06-18T08:46:42Z</time>
      </trkpt>
      <trkpt lat="43.60916" lon="2.39682">
        <ele>570.6796875</ele>
        <time>2014-06-18T08:46:48Z</time>
      </trkpt>
      <trkpt lat="43.60905" lon="2.3967">
        <ele>569.237793</ele>
        <time>2014-06-18T08:46:54Z</time>
      </trkpt>
      <trkpt lat="43.60897" lon="2.39657">
        <ele>565.3925781</ele>
        <time>2014-06-18T08:47:01Z</time>
      </trkpt>
      <trkpt lat="43.60889" lon="2.39645">
        <ele>559.6247559</ele>
        <time>2014-06-18T08:47:08Z</time>
      </trkpt>
      <trkpt lat="43.60888" lon="2.39639">
        <ele>555.7792969</ele>
        <time>2014-06-18T08:47:11Z</time>
      </trkpt>
      <trkpt lat="43.60886" lon="2.39633">
        <ele>554.3374023</ele>
        <time>2014-06-18T08:47:15Z</time>
      </trkpt>
      <trkpt lat="43.60885" lon="2.39627">
        <ele>553.8566895</ele>
        <time>2014-06-18T08:47:17Z</time>
      </trkpt>
      <trkpt lat="43.60883" lon="2.39619">
        <ele>551.934082</ele>
        <time>2014-06-18T08:47:20Z</time>
      </trkpt>
      <trkpt lat="43.60881" lon="2.39603">
        <ele>550.0114746</ele>
        <time>2014-06-18T08:47:25Z</time>
      </trkpt>
      <trkpt lat="43.60881" lon="2.3958">
        <ele>550.9726563</ele>
        <time>2014-06-18T08:47:31Z</time>
      </trkpt>
      <trkpt lat="43.60877" lon="2.3957">
        <ele>549.0500488</ele>
        <time>2014-06-18T08:47:36Z</time>
      </trkpt>
      <trkpt lat="43.60878" lon="2.39578">
        <ele>557.2214355</ele>
        <time>2014-06-18T08:47:50Z</time>
      </trkpt>
      <trkpt lat="43.60877" lon="2.39572">
        <ele>562.0280762</ele>
        <time>2014-06-18T08:47:53Z</time>
      </trkpt>
      <trkpt lat="43.60876" lon="2.39555">
        <ele>558.1828613</ele>
        <time>2014-06-18T08:48:00Z</time>
      </trkpt>
      <trkpt lat="43.60876" lon="2.39554">
        <ele>565.3925781</ele>
        <time>2014-06-18T08:48:06Z</time>
      </trkpt>
      <trkpt lat="43.60884" lon="2.39554">
        <ele>562.5085449</ele>
        <time>2014-06-18T08:48:12Z</time>
      </trkpt>
      <trkpt lat="43.60884" lon="2.39555">
        <ele>562.5085449</ele>
        <time>2014-06-18T08:48:17Z</time>
      </trkpt>
      <trkpt lat="43.60884" lon="2.39562">
        <ele>561.5473633</ele>
        <time>2014-06-18T08:48:21Z</time>
      </trkpt>
      <trkpt lat="43.60885" lon="2.39563">
        <ele>563.4699707</ele>
        <time>2014-06-18T08:48:24Z</time>
      </trkpt>
      <trkpt lat="43.60886" lon="2.39563">
        <ele>563.4699707</ele>
        <time>2014-06-18T08:48:27Z</time>
      </trkpt>
      <trkpt lat="43.60892" lon="2.39559">
        <ele>554.8178711</ele>
        <time>2014-06-18T08:48:32Z</time>
      </trkpt>
      <trkpt lat="43.60896" lon="2.39558">
        <ele>551.934082</ele>
        <time>2014-06-18T08:48:36Z</time>
      </trkpt>
      <trkpt lat="43.60904" lon="2.39552">
        <ele>551.4533691</ele>
        <time>2014-06-18T08:48:41Z</time>
      </trkpt>
      <trkpt lat="43.60907" lon="2.3955">
        <ele>550.4921875</ele>
        <time>2014-06-18T08:48:44Z</time>
      </trkpt>
      <trkpt lat="43.60914" lon="2.39544">
        <ele>549.0500488</ele>
        <time>2014-06-18T08:48:51Z</time>
      </trkpt>
      <trkpt lat="43.60915" lon="2.39543">
        <ele>549.0500488</ele>
        <time>2014-06-18T08:48:52Z</time>
      </trkpt>
      <trkpt lat="43.60929" lon="2.39542">
        <ele>549.5307617</ele>
        <time>2014-06-18T08:48:59Z</time>
      </trkpt>
      <trkpt lat="43.60932" lon="2.3954">
        <ele>550.4921875</ele>
        <time>2014-06-18T08:49:01Z</time>
      </trkpt>
      <trkpt lat="43.60935" lon="2.39532">
        <ele>547.1274414</ele>
        <time>2014-06-18T08:49:06Z</time>
      </trkpt>
      <trkpt lat="43.60936" lon="2.39529">
        <ele>546.1662598</ele>
        <time>2014-06-18T08:49:08Z</time>
      </trkpt>
      <trkpt lat="43.60938" lon="2.39525">
        <ele>546.6468506</ele>
        <time>2014-06-18T08:49:10Z</time>
      </trkpt>
      <trkpt lat="43.60945" lon="2.39509">
        <ele>549.5307617</ele>
        <time>2014-06-18T08:49:17Z</time>
      </trkpt>
      <trkpt lat="43.60945" lon="2.39482">
        <ele>550.0114746</ele>
        <time>2014-06-18T08:49:22Z</time>
      </trkpt>
      <trkpt lat="43.60953" lon="2.39453">
        <ele>548.0888672</ele>
        <time>2014-06-18T08:49:28Z</time>
      </trkpt>
      <trkpt lat="43.60964" lon="2.39434">
        <ele>549.0500488</ele>
        <time>2014-06-18T08:49:32Z</time>
      </trkpt>
      <trkpt lat="43.60975" lon="2.39415">
        <ele>550.0114746</ele>
        <time>2014-06-18T08:49:36Z</time>
      </trkpt>
      <trkpt lat="43.60986" lon="2.39386">
        <ele>550.4921875</ele>
        <time>2014-06-18T08:49:42Z</time>
      </trkpt>
      <trkpt lat="43.60985" lon="2.39378">
        <ele>552.8952637</ele>
        <time>2014-06-18T08:49:44Z</time>
      </trkpt>
      <trkpt lat="43.60986" lon="2.3936">
        <ele>558.6633301</ele>
        <time>2014-06-18T08:49:50Z</time>
      </trkpt>
      <trkpt lat="43.6099" lon="2.39358">
        <ele>559.144043</ele>
        <time>2014-06-18T08:49:53Z</time>
      </trkpt>
      <trkpt lat="43.60991" lon="2.39356">
        <ele>560.1052246</ele>
        <time>2014-06-18T08:49:55Z</time>
      </trkpt>
      <trkpt lat="43.60991" lon="2.3935">
        <ele>560.5859375</ele>
        <time>2014-06-18T08:50:03Z</time>
      </trkpt>
      <trkpt lat="43.60993" lon="2.39345">
        <ele>560.5859375</ele>
        <time>2014-06-18T08:50:07Z</time>
      </trkpt>
      <trkpt lat="43.61001" lon="2.39338">
        <ele>563.4699707</ele>
        <time>2014-06-18T08:50:13Z</time>
      </trkpt>
      <trkpt lat="43.61006" lon="2.39341">
        <ele>562.0280762</ele>
        <time>2014-06-18T08:50:16Z</time>
      </trkpt>
      <trkpt lat="43.61017" lon="2.39358">
        <ele>561.5473633</ele>
        <time>2014-06-18T08:50:23Z</time>
      </trkpt>
      <trkpt lat="43.61032" lon="2.39368">
        <ele>561.5473633</ele>
        <time>2014-06-18T08:50:28Z</time>
      </trkpt>
      <trkpt lat="43.61045" lon="2.39378">
        <ele>566.8344727</ele>
        <time>2014-06-18T08:50:32Z</time>
      </trkpt>
      <trkpt lat="43.61058" lon="2.39383">
        <ele>567.7956543</ele>
        <time>2014-06-18T08:50:37Z</time>
      </trkpt>
      <trkpt lat="43.61067" lon="2.39372">
        <ele>568.7570801</ele>
        <time>2014-06-18T08:50:42Z</time>
      </trkpt>
      <trkpt lat="43.61074" lon="2.39352">
        <ele>569.7185059</ele>
        <time>2014-06-18T08:50:49Z</time>
      </trkpt>
      <trkpt lat="43.6108" lon="2.39332">
        <ele>571.6408691</ele>
        <time>2014-06-18T08:50:56Z</time>
      </trkpt>
      <trkpt lat="43.61083" lon="2.39312">
        <ele>572.6025391</ele>
        <time>2014-06-18T08:51:03Z</time>
      </trkpt>
      <trkpt lat="43.61081" lon="2.39283">
        <ele>575.4863281</ele>
        <time>2014-06-18T08:51:11Z</time>
      </trkpt>
      <trkpt lat="43.61083" lon="2.39257">
        <ele>577.4091797</ele>
        <time>2014-06-18T08:51:18Z</time>
      </trkpt>
      <trkpt lat="43.61077" lon="2.39252">
        <ele>575.967041</ele>
        <time>2014-06-18T08:51:23Z</time>
      </trkpt>
      <trkpt lat="43.61075" lon="2.39249">
        <ele>575.4863281</ele>
        <time>2014-06-18T08:51:24Z</time>
      </trkpt>
      <trkpt lat="43.61069" lon="2.39239">
        <ele>576.9284668</ele>
        <time>2014-06-18T08:51:30Z</time>
      </trkpt>
      <trkpt lat="43.61065" lon="2.39236">
        <ele>576.9284668</ele>
        <time>2014-06-18T08:51:36Z</time>
      </trkpt>
      <trkpt lat="43.61064" lon="2.39233">
        <ele>574.5251465</ele>
        <time>2014-06-18T08:51:41Z</time>
      </trkpt>
      <trkpt lat="43.61064" lon="2.39228">
        <ele>571.6408691</ele>
        <time>2014-06-18T08:51:48Z</time>
      </trkpt>
      <trkpt lat="43.61057" lon="2.3922">
        <ele>569.237793</ele>
        <time>2014-06-18T08:51:54Z</time>
      </trkpt>
      <trkpt lat="43.61048" lon="2.39211">
        <ele>567.7956543</ele>
        <time>2014-06-18T08:51:59Z</time>
      </trkpt>
      <trkpt lat="43.61043" lon="2.39212">
        <ele>566.3537598</ele>
        <time>2014-06-18T08:52:01Z</time>
      </trkpt>
      <trkpt lat="43.61035" lon="2.39207">
        <ele>568.2763672</ele>
        <time>2014-06-18T08:52:07Z</time>
      </trkpt>
      <trkpt lat="43.6103" lon="2.39204">
        <ele>566.3537598</ele>
        <time>2014-06-18T08:52:19Z</time>
      </trkpt>
      <trkpt lat="43.61024" lon="2.392">
        <ele>574.0444336</ele>
        <time>2014-06-18T08:52:29Z</time>
      </trkpt>
      <trkpt lat="43.61017" lon="2.39186">
        <ele>569.7185059</ele>
        <time>2014-06-18T08:52:34Z</time>
      </trkpt>
      <trkpt lat="43.61018" lon="2.39174">
        <ele>568.7570801</ele>
        <time>2014-06-18T08:52:36Z</time>
      </trkpt>
      <trkpt lat="43.6102" lon="2.39156">
        <ele>567.7956543</ele>
        <time>2014-06-18T08:52:42Z</time>
      </trkpt>
      <trkpt lat="43.61004" lon="2.39141">
        <ele>570.1989746</ele>
        <time>2014-06-18T08:52:48Z</time>
      </trkpt>
      <trkpt lat="43.60992" lon="2.39142">
        <ele>568.7570801</ele>
        <time>2014-06-18T08:52:53Z</time>
      </trkpt>
      <trkpt lat="43.60988" lon="2.39141">
        <ele>570.1989746</ele>
        <time>2014-06-18T08:52:54Z</time>
      </trkpt>
      <trkpt lat="43.60975" lon="2.3914">
        <ele>568.7570801</ele>
        <time>2014-06-18T08:52:58Z</time>
      </trkpt>
      <trkpt lat="43.6097" lon="2.39137">
        <ele>569.7185059</ele>
        <time>2014-06-18T08:53:04Z</time>
      </trkpt>
      <trkpt lat="43.60967" lon="2.39137">
        <ele>569.237793</ele>
        <time>2014-06-18T08:53:09Z</time>
      </trkpt>
      <trkpt lat="43.60967" lon="2.39135">
        <ele>568.7570801</ele>
        <time>2014-06-18T08:53:10Z</time>
      </trkpt>
      <trkpt lat="43.60966" lon="2.39112">
        <ele>564.4311523</ele>
        <time>2014-06-18T08:53:17Z</time>
      </trkpt>
      <trkpt lat="43.60968" lon="2.39091">
        <ele>562.0280762</ele>
        <time>2014-06-18T08:53:22Z</time>
      </trkpt>
      <trkpt lat="43.60967" lon="2.39066">
        <ele>562.5085449</ele>
        <time>2014-06-18T08:53:27Z</time>
      </trkpt>
      <trkpt lat="43.6096" lon="2.39035">
        <ele>562.9892578</ele>
        <time>2014-06-18T08:53:33Z</time>
      </trkpt>
      <trkpt lat="43.60954" lon="2.39019">
        <ele>562.9892578</ele>
        <time>2014-06-18T08:53:36Z</time>
      </trkpt>
      <trkpt lat="43.60931" lon="2.38988">
        <ele>563.9504395</ele>
        <time>2014-06-18T08:53:42Z</time>
      </trkpt>
      <trkpt lat="43.60923" lon="2.38981">
        <ele>563.4699707</ele>
        <time>2014-06-18T08:53:44Z</time>
      </trkpt>
      <trkpt lat="43.60907" lon="2.38965">
        <ele>560.5859375</ele>
        <time>2014-06-18T08:53:49Z</time>
      </trkpt>
      <trkpt lat="43.609" lon="2.38948">
        <ele>560.1052246</ele>
        <time>2014-06-18T08:53:52Z</time>
      </trkpt>
      <trkpt lat="43.6089" lon="2.38918">
        <ele>563.9504395</ele>
        <time>2014-06-18T08:53:57Z</time>
      </trkpt>
      <trkpt lat="43.60877" lon="2.38901">
        <ele>560.1052246</ele>
        <time>2014-06-18T08:54:01Z</time>
      </trkpt>
      <trkpt lat="43.60866" lon="2.38864">
        <ele>557.7021484</ele>
        <time>2014-06-18T08:54:05Z</time>
      </trkpt>
      <trkpt lat="43.60867" lon="2.38845">
        <ele>556.7407227</ele>
        <time>2014-06-18T08:54:07Z</time>
      </trkpt>
      <trkpt lat="43.60863" lon="2.38795">
        <ele>555.298584</ele>
        <time>2014-06-18T08:54:13Z</time>
      </trkpt>
      <trkpt lat="43.60849" lon="2.38774">
        <ele>554.8178711</ele>
        <time>2014-06-18T08:54:18Z</time>
      </trkpt>
      <trkpt lat="43.60839" lon="2.38772">
        <ele>554.8178711</ele>
        <time>2014-06-18T08:54:20Z</time>
      </trkpt>
      <trkpt lat="43.60833" lon="2.38764">
        <ele>557.2214355</ele>
        <time>2014-06-18T08:54:25Z</time>
      </trkpt>
      <trkpt lat="43.60835" lon="2.38748">
        <ele>557.2214355</ele>
        <time>2014-06-18T08:54:30Z</time>
      </trkpt>
      <trkpt lat="43.60833" lon="2.38732">
        <ele>557.2214355</ele>
        <time>2014-06-18T08:54:34Z</time>
      </trkpt>
      <trkpt lat="43.60829" lon="2.38708">
        <ele>558.6633301</ele>
        <time>2014-06-18T08:54:39Z</time>
      </trkpt>
      <trkpt lat="43.60829" lon="2.38689">
        <ele>559.6247559</ele>
        <time>2014-06-18T08:54:43Z</time>
      </trkpt>
      <trkpt lat="43.60825" lon="2.38667">
        <ele>562.0280762</ele>
        <time>2014-06-18T08:54:47Z</time>
      </trkpt>
      <trkpt lat="43.60819" lon="2.38638">
        <ele>562.5085449</ele>
        <time>2014-06-18T08:54:54Z</time>
      </trkpt>
      <trkpt lat="43.60811" lon="2.38611">
        <ele>562.0280762</ele>
        <time>2014-06-18T08:54:59Z</time>
      </trkpt>
      <trkpt lat="43.6081" lon="2.38587">
        <ele>566.3537598</ele>
        <time>2014-06-18T08:55:04Z</time>
      </trkpt>
      <trkpt lat="43.60812" lon="2.38587">
        <ele>563.4699707</ele>
        <time>2014-06-18T08:55:08Z</time>
      </trkpt>
      <trkpt lat="43.60814" lon="2.38584">
        <ele>560.5859375</ele>
        <time>2014-06-18T08:55:15Z</time>
      </trkpt>
      <trkpt lat="43.60819" lon="2.38588">
        <ele>559.6247559</ele>
        <time>2014-06-18T08:55:19Z</time>
      </trkpt>
      <trkpt lat="43.60817" lon="2.38584">
        <ele>559.144043</ele>
        <time>2014-06-18T08:55:24Z</time>
      </trkpt>
      <trkpt lat="43.60812" lon="2.38565">
        <ele>564.4311523</ele>
        <time>2014-06-18T08:55:29Z</time>
      </trkpt>
      <trkpt lat="43.60805" lon="2.38524">
        <ele>567.3151855</ele>
        <time>2014-06-18T08:55:35Z</time>
      </trkpt>
      <trkpt lat="43.60784" lon="2.38508">
        <ele>565.3925781</ele>
        <time>2014-06-18T08:55:39Z</time>
      </trkpt>
      <trkpt lat="43.60771" lon="2.385">
        <ele>563.9504395</ele>
        <time>2014-06-18T08:55:43Z</time>
      </trkpt>
      <trkpt lat="43.60765" lon="2.38495">
        <ele>563.9504395</ele>
        <time>2014-06-18T08:55:45Z</time>
      </trkpt>
      <trkpt lat="43.60758" lon="2.38485">
        <ele>562.5085449</ele>
        <time>2014-06-18T08:55:48Z</time>
      </trkpt>
      <trkpt lat="43.60748" lon="2.38471">
        <ele>565.873291</ele>
        <time>2014-06-18T08:55:53Z</time>
      </trkpt>
      <trkpt lat="43.60746" lon="2.38475">
        <ele>563.4699707</ele>
        <time>2014-06-18T08:55:57Z</time>
      </trkpt>
      <trkpt lat="43.60751" lon="2.38481">
        <ele>562.9892578</ele>
        <time>2014-06-18T08:55:59Z</time>
      </trkpt>
      <trkpt lat="43.60761" lon="2.38492">
        <ele>562.0280762</ele>
        <time>2014-06-18T08:56:03Z</time>
      </trkpt>
      <trkpt lat="43.60775" lon="2.38507">
        <ele>562.9892578</ele>
        <time>2014-06-18T08:56:07Z</time>
      </trkpt>
      <trkpt lat="43.60785" lon="2.38517">
        <ele>561.5473633</ele>
        <time>2014-06-18T08:56:11Z</time>
      </trkpt>
      <trkpt lat="43.60786" lon="2.38519">
        <ele>562.9892578</ele>
        <time>2014-06-18T08:56:12Z</time>
      </trkpt>
      <trkpt lat="43.60782" lon="2.38521">
        <ele>563.9504395</ele>
        <time>2014-06-18T08:56:15Z</time>
      </trkpt>
      <trkpt lat="43.60779" lon="2.3853">
        <ele>563.4699707</ele>
        <time>2014-06-18T08:56:21Z</time>
      </trkpt>
      <trkpt lat="43.60778" lon="2.3853">
        <ele>563.4699707</ele>
        <time>2014-06-18T08:56:22Z</time>
      </trkpt>
      <trkpt lat="43.60775" lon="2.38531">
        <ele>561.5473633</ele>
        <time>2014-06-18T08:56:24Z</time>
      </trkpt>
      <trkpt lat="43.60769" lon="2.38534">
        <ele>559.144043</ele>
        <time>2014-06-18T08:56:28Z</time>
      </trkpt>
      <trkpt lat="43.60759" lon="2.38541">
        <ele>560.5859375</ele>
        <time>2014-06-18T08:56:33Z</time>
      </trkpt>
      <trkpt lat="43.60755" lon="2.38544">
        <ele>560.1052246</ele>
        <time>2014-06-18T08:56:41Z</time>
      </trkpt>
      <trkpt lat="43.60752" lon="2.38542">
        <ele>565.873291</ele>
        <time>2014-06-18T08:56:47Z</time>
      </trkpt>
      <trkpt lat="43.60749" lon="2.38549">
        <ele>565.3925781</ele>
        <time>2014-06-18T08:56:52Z</time>
      </trkpt>
      <trkpt lat="43.60744" lon="2.38553">
        <ele>564.9118652</ele>
        <time>2014-06-18T08:56:57Z</time>
      </trkpt>
      <trkpt lat="43.60745" lon="2.38559">
        <ele>562.9892578</ele>
        <time>2014-06-18T08:57:01Z</time>
      </trkpt>
      <trkpt lat="43.60746" lon="2.3857">
        <ele>558.6633301</ele>
        <time>2014-06-18T08:57:09Z</time>
      </trkpt>
      <trkpt lat="43.60734" lon="2.38577">
        <ele>559.144043</ele>
        <time>2014-06-18T08:57:14Z</time>
      </trkpt>
      <trkpt lat="43.60719" lon="2.38595">
        <ele>552.4145508</ele>
        <time>2014-06-18T08:57:18Z</time>
      </trkpt>
      <trkpt lat="43.60706" lon="2.38606">
        <ele>550.0114746</ele>
        <time>2014-06-18T08:57:22Z</time>
      </trkpt>
      <trkpt lat="43.60704" lon="2.38613">
        <ele>552.4145508</ele>
        <time>2014-06-18T08:57:27Z</time>
      </trkpt>
      <trkpt lat="43.60701" lon="2.3861">
        <ele>548.5693359</ele>
        <time>2014-06-18T08:57:33Z</time>
      </trkpt>
      <trkpt lat="43.60693" lon="2.38606">
        <ele>549.0500488</ele>
        <time>2014-06-18T08:57:38Z</time>
      </trkpt>
      <trkpt lat="43.60689" lon="2.38599">
        <ele>547.1274414</ele>
        <time>2014-06-18T08:57:42Z</time>
      </trkpt>
      <trkpt lat="43.60684" lon="2.38586">
        <ele>545.204834</ele>
        <time>2014-06-18T08:57:48Z</time>
      </trkpt>
      <trkpt lat="43.60679" lon="2.38574">
        <ele>545.204834</ele>
        <time>2014-06-18T08:57:53Z</time>
      </trkpt>
      <trkpt lat="43.60672" lon="2.38556">
        <ele>545.204834</ele>
        <time>2014-06-18T08:57:59Z</time>
      </trkpt>
      <trkpt lat="43.60664" lon="2.38543">
        <ele>545.6855469</ele>
        <time>2014-06-18T08:58:04Z</time>
      </trkpt>
      <trkpt lat="43.6065" lon="2.38537">
        <ele>548.0888672</ele>
        <time>2014-06-18T08:58:10Z</time>
      </trkpt>
      <trkpt lat="43.60639" lon="2.38537">
        <ele>555.298584</ele>
        <time>2014-06-18T08:58:16Z</time>
      </trkpt>
      <trkpt lat="43.6063" lon="2.38527">
        <ele>558.1828613</ele>
        <time>2014-06-18T08:58:22Z</time>
      </trkpt>
      <trkpt lat="43.60627" lon="2.38525">
        <ele>560.1052246</ele>
        <time>2014-06-18T08:58:26Z</time>
      </trkpt>
      <trkpt lat="43.6062" lon="2.38524">
        <ele>558.6633301</ele>
        <time>2014-06-18T08:58:31Z</time>
      </trkpt>
      <trkpt lat="43.60612" lon="2.38524">
        <ele>557.7021484</ele>
        <time>2014-06-18T08:58:36Z</time>
      </trkpt>
      <trkpt lat="43.60603" lon="2.38524">
        <ele>555.7792969</ele>
        <time>2014-06-18T08:58:42Z</time>
      </trkpt>
      <trkpt lat="43.60601" lon="2.38525">
        <ele>553.8566895</ele>
        <time>2014-06-18T08:58:44Z</time>
      </trkpt>
      <trkpt lat="43.60594" lon="2.38525">
        <ele>554.8178711</ele>
        <time>2014-06-18T08:58:48Z</time>
      </trkpt>
      <trkpt lat="43.60588" lon="2.38523">
        <ele>553.3759766</ele>
        <time>2014-06-18T08:58:51Z</time>
      </trkpt>
      <trkpt lat="43.60582" lon="2.38517">
        <ele>553.3759766</ele>
        <time>2014-06-18T08:58:56Z</time>
      </trkpt>
      <trkpt lat="43.60578" lon="2.3851">
        <ele>555.7792969</ele>
        <time>2014-06-18T08:59:00Z</time>
      </trkpt>
      <trkpt lat="43.60573" lon="2.38503">
        <ele>555.298584</ele>
        <time>2014-06-18T08:59:07Z</time>
      </trkpt>
      <trkpt lat="43.60569" lon="2.38498">
        <ele>555.7792969</ele>
        <time>2014-06-18T08:59:10Z</time>
      </trkpt>
      <trkpt lat="43.60559" lon="2.38493">
        <ele>554.3374023</ele>
        <time>2014-06-18T08:59:17Z</time>
      </trkpt>
      <trkpt lat="43.60553" lon="2.38482">
        <ele>555.7792969</ele>
        <time>2014-06-18T08:59:23Z</time>
      </trkpt>
      <trkpt lat="43.60543" lon="2.38472">
        <ele>559.144043</ele>
        <time>2014-06-18T08:59:28Z</time>
      </trkpt>
      <trkpt lat="43.6054" lon="2.38466">
        <ele>558.6633301</ele>
        <time>2014-06-18T08:59:31Z</time>
      </trkpt>
      <trkpt lat="43.60522" lon="2.38459">
        <ele>550.9726563</ele>
        <time>2014-06-18T08:59:38Z</time>
      </trkpt>
      <trkpt lat="43.6052" lon="2.38459">
        <ele>551.934082</ele>
        <time>2014-06-18T08:59:39Z</time>
      </trkpt>
      <trkpt lat="43.60511" lon="2.38455">
        <ele>552.4145508</ele>
        <time>2014-06-18T08:59:44Z</time>
      </trkpt>
      <trkpt lat="43.60502" lon="2.38458">
        <ele>552.4145508</ele>
        <time>2014-06-18T08:59:50Z</time>
      </trkpt>
      <trkpt lat="43.605" lon="2.38459">
        <ele>552.4145508</ele>
        <time>2014-06-18T08:59:54Z</time>
      </trkpt>
      <trkpt lat="43.60501" lon="2.38457">
        <ele>551.4533691</ele>
        <time>2014-06-18T08:59:59Z</time>
      </trkpt>
      <trkpt lat="43.60503" lon="2.38435">
        <ele>550.4921875</ele>
        <time>2014-06-18T09:00:07Z</time>
      </trkpt>
      <trkpt lat="43.60503" lon="2.384">
        <ele>549.5307617</ele>
        <time>2014-06-18T09:00:14Z</time>
      </trkpt>
      <trkpt lat="43.60504" lon="2.38365">
        <ele>547.1274414</ele>
        <time>2014-06-18T09:00:20Z</time>
      </trkpt>
      <trkpt lat="43.60503" lon="2.38352">
        <ele>548.5693359</ele>
        <time>2014-06-18T09:00:23Z</time>
      </trkpt>
      <trkpt lat="43.60494" lon="2.38351">
        <ele>547.6081543</ele>
        <time>2014-06-18T09:00:28Z</time>
      </trkpt>
      <trkpt lat="43.60492" lon="2.38353">
        <ele>547.6081543</ele>
        <time>2014-06-18T09:00:29Z</time>
      </trkpt>
      <trkpt lat="43.60483" lon="2.3836">
        <ele>546.6468506</ele>
        <time>2014-06-18T09:00:35Z</time>
      </trkpt>
      <trkpt lat="43.60489" lon="2.38358">
        <ele>543.2821045</ele>
        <time>2014-06-18T09:00:42Z</time>
      </trkpt>
      <trkpt lat="43.60479" lon="2.38365">
        <ele>539.9176025</ele>
        <time>2014-06-18T09:00:58Z</time>
      </trkpt>
      <trkpt lat="43.60469" lon="2.38374">
        <ele>539.9176025</ele>
        <time>2014-06-18T09:01:02Z</time>
      </trkpt>
      <trkpt lat="43.60459" lon="2.38381">
        <ele>539.9176025</ele>
        <time>2014-06-18T09:01:07Z</time>
      </trkpt>
      <trkpt lat="43.60455" lon="2.3838">
        <ele>539.9176025</ele>
        <time>2014-06-18T09:01:12Z</time>
      </trkpt>
      <trkpt lat="43.60464" lon="2.38375">
        <ele>539.4368896</ele>
        <time>2014-06-18T09:01:18Z</time>
      </trkpt>
      <trkpt lat="43.60472" lon="2.38368">
        <ele>538.475708</ele>
        <time>2014-06-18T09:01:22Z</time>
      </trkpt>
      <trkpt lat="43.60484" lon="2.3836">
        <ele>543.2821045</ele>
        <time>2014-06-18T09:01:27Z</time>
      </trkpt>
      <trkpt lat="43.60493" lon="2.38351">
        <ele>544.2436523</ele>
        <time>2014-06-18T09:01:32Z</time>
      </trkpt>
      <trkpt lat="43.605" lon="2.38338">
        <ele>544.7242432</ele>
        <time>2014-06-18T09:01:37Z</time>
      </trkpt>
      <trkpt lat="43.60506" lon="2.38321">
        <ele>545.6855469</ele>
        <time>2014-06-18T09:01:43Z</time>
      </trkpt>
      <trkpt lat="43.60511" lon="2.38303">
        <ele>546.1662598</ele>
        <time>2014-06-18T09:01:49Z</time>
      </trkpt>
      <trkpt lat="43.60521" lon="2.38278">
        <ele>546.1662598</ele>
        <time>2014-06-18T09:01:57Z</time>
      </trkpt>
      <trkpt lat="43.60525" lon="2.38259">
        <ele>545.6855469</ele>
        <time>2014-06-18T09:02:03Z</time>
      </trkpt>
      <trkpt lat="43.60527" lon="2.38256">
        <ele>545.6855469</ele>
        <time>2014-06-18T09:02:04Z</time>
      </trkpt>
      <trkpt lat="43.60536" lon="2.38251">
        <ele>547.1274414</ele>
        <time>2014-06-18T09:02:08Z</time>
      </trkpt>
      <trkpt lat="43.60544" lon="2.38251">
        <ele>548.0888672</ele>
        <time>2014-06-18T09:02:13Z</time>
      </trkpt>
      <trkpt lat="43.60543" lon="2.38251">
        <ele>548.5693359</ele>
        <time>2014-06-18T09:02:22Z</time>
      </trkpt>
      <trkpt lat="43.60542" lon="2.38252">
        <ele>549.5307617</ele>
        <time>2014-06-18T09:02:26Z</time>
      </trkpt>
      <trkpt lat="43.60542" lon="2.38252">
        <ele>550.0114746</ele>
        <time>2014-06-18T09:02:31Z</time>
      </trkpt>
      <trkpt lat="43.60542" lon="2.38252">
        <ele>550.4921875</ele>
        <time>2014-06-18T09:02:36Z</time>
      </trkpt>
      <trkpt lat="43.60539" lon="2.38251">
        <ele>549.5307617</ele>
        <time>2014-06-18T09:02:41Z</time>
      </trkpt>
      <trkpt lat="43.60526" lon="2.38256">
        <ele>548.0888672</ele>
        <time>2014-06-18T09:02:46Z</time>
      </trkpt>
      <trkpt lat="43.60522" lon="2.38272">
        <ele>548.0888672</ele>
        <time>2014-06-18T09:02:52Z</time>
      </trkpt>
      <trkpt lat="43.60521" lon="2.38276">
        <ele>548.0888672</ele>
        <time>2014-06-18T09:02:53Z</time>
      </trkpt>
      <trkpt lat="43.60512" lon="2.38299">
        <ele>548.5693359</ele>
        <time>2014-06-18T09:02:58Z</time>
      </trkpt>
      <trkpt lat="43.6051" lon="2.38302">
        <ele>548.5693359</ele>
        <time>2014-06-18T09:02:59Z</time>
      </trkpt>
      <trkpt lat="43.60503" lon="2.38302">
        <ele>547.6081543</ele>
        <time>2014-06-18T09:03:04Z</time>
      </trkpt>
      <trkpt lat="43.60502" lon="2.38295">
        <ele>546.6468506</ele>
        <time>2014-06-18T09:03:06Z</time>
      </trkpt>
      <trkpt lat="43.60504" lon="2.38252">
        <ele>544.7242432</ele>
        <time>2014-06-18T09:03:13Z</time>
      </trkpt>
      <trkpt lat="43.6051" lon="2.38227">
        <ele>543.7628174</ele>
        <time>2014-06-18T09:03:18Z</time>
      </trkpt>
      <trkpt lat="43.60512" lon="2.38201">
        <ele>544.2436523</ele>
        <time>2014-06-18T09:03:24Z</time>
      </trkpt>
      <trkpt lat="43.60518" lon="2.38169">
        <ele>543.7628174</ele>
        <time>2014-06-18T09:03:31Z</time>
      </trkpt>
      <trkpt lat="43.60526" lon="2.38151">
        <ele>548.0888672</ele>
        <time>2014-06-18T09:03:37Z</time>
      </trkpt>
      <trkpt lat="43.60528" lon="2.38132">
        <ele>549.0500488</ele>
        <time>2014-06-18T09:03:41Z</time>
      </trkpt>
      <trkpt lat="43.60528" lon="2.38109">
        <ele>547.6081543</ele>
        <time>2014-06-18T09:03:46Z</time>
      </trkpt>
      <trkpt lat="43.60524" lon="2.38105">
        <ele>546.1662598</ele>
        <time>2014-06-18T09:03:50Z</time>
      </trkpt>
      <trkpt lat="43.60524" lon="2.38094">
        <ele>547.1274414</ele>
        <time>2014-06-18T09:04:00Z</time>
      </trkpt>
      <trkpt lat="43.60518" lon="2.38071">
        <ele>547.1274414</ele>
        <time>2014-06-18T09:04:05Z</time>
      </trkpt>
      <trkpt lat="43.60515" lon="2.38044">
        <ele>543.2821045</ele>
        <time>2014-06-18T09:04:09Z</time>
      </trkpt>
      <trkpt lat="43.60513" lon="2.38028">
        <ele>545.204834</ele>
        <time>2014-06-18T09:04:11Z</time>
      </trkpt>
      <trkpt lat="43.60515" lon="2.3801">
        <ele>543.2821045</ele>
        <time>2014-06-18T09:04:14Z</time>
      </trkpt>
      <trkpt lat="43.60514" lon="2.37993">
        <ele>540.3983154</ele>
        <time>2014-06-18T09:04:18Z</time>
      </trkpt>
      <trkpt lat="43.6051" lon="2.37974">
        <ele>534.6303711</ele>
        <time>2014-06-18T09:04:24Z</time>
      </trkpt>
      <trkpt lat="43.60509" lon="2.37954">
        <ele>529.8237305</ele>
        <time>2014-06-18T09:04:28Z</time>
      </trkpt>
      <trkpt lat="43.60501" lon="2.3792">
        <ele>526.4591064</ele>
        <time>2014-06-18T09:04:33Z</time>
      </trkpt>
      <trkpt lat="43.60494" lon="2.3787">
        <ele>521.6525879</ele>
        <time>2014-06-18T09:04:41Z</time>
      </trkpt>
      <trkpt lat="43.60491" lon="2.37855">
        <ele>522.1331787</ele>
        <time>2014-06-18T09:04:44Z</time>
      </trkpt>
      <trkpt lat="43.60487" lon="2.37837">
        <ele>521.1719971</ele>
        <time>2014-06-18T09:04:49Z</time>
      </trkpt>
      <trkpt lat="43.60484" lon="2.37837">
        <ele>520.6912842</ele>
        <time>2014-06-18T09:04:55Z</time>
      </trkpt>
      <trkpt lat="43.60482" lon="2.37836">
        <ele>523.0946045</ele>
        <time>2014-06-18T09:04:56Z</time>
      </trkpt>
      <trkpt lat="43.60484" lon="2.37816">
        <ele>522.1331787</ele>
        <time>2014-06-18T09:05:02Z</time>
      </trkpt>
      <trkpt lat="43.60487" lon="2.37799">
        <ele>517.807251</ele>
        <time>2014-06-18T09:05:05Z</time>
      </trkpt>
      <trkpt lat="43.60487" lon="2.37782">
        <ele>517.3266602</ele>
        <time>2014-06-18T09:05:07Z</time>
      </trkpt>
      <trkpt lat="43.60486" lon="2.37774">
        <ele>517.3266602</ele>
        <time>2014-06-18T09:05:08Z</time>
      </trkpt>
      <trkpt lat="43.60487" lon="2.37739">
        <ele>516.3652344</ele>
        <time>2014-06-18T09:05:13Z</time>
      </trkpt>
      <trkpt lat="43.60487" lon="2.37717">
        <ele>511.5587158</ele>
        <time>2014-06-18T09:05:17Z</time>
      </trkpt>
      <trkpt lat="43.60486" lon="2.37709">
        <ele>510.59729</ele>
        <time>2014-06-18T09:05:19Z</time>
      </trkpt>
      <trkpt lat="43.60473" lon="2.37688">
        <ele>521.1719971</ele>
        <time>2014-06-18T09:05:25Z</time>
      </trkpt>
      <trkpt lat="43.6046" lon="2.37668">
        <ele>525.4978027</ele>
        <time>2014-06-18T09:05:31Z</time>
      </trkpt>
      <trkpt lat="43.60454" lon="2.37655">
        <ele>525.9783936</ele>
        <time>2014-06-18T09:05:35Z</time>
      </trkpt>
      <trkpt lat="43.60445" lon="2.37642">
        <ele>516.3652344</ele>
        <time>2014-06-18T09:05:40Z</time>
      </trkpt>
      <trkpt lat="43.60439" lon="2.37635">
        <ele>515.4040527</ele>
        <time>2014-06-18T09:05:44Z</time>
      </trkpt>
      <trkpt lat="43.60436" lon="2.37633">
        <ele>515.4040527</ele>
        <time>2014-06-18T09:05:45Z</time>
      </trkpt>
      <trkpt lat="43.60431" lon="2.37628">
        <ele>515.4040527</ele>
        <time>2014-06-18T09:05:49Z</time>
      </trkpt>
      <trkpt lat="43.60427" lon="2.37618">
        <ele>516.3652344</ele>
        <time>2014-06-18T09:05:54Z</time>
      </trkpt>
      <trkpt lat="43.60427" lon="2.37612">
        <ele>516.8459473</ele>
        <time>2014-06-18T09:05:56Z</time>
      </trkpt>
      <trkpt lat="43.60418" lon="2.37586">
        <ele>521.1719971</ele>
        <time>2014-06-18T09:06:02Z</time>
      </trkpt>
      <trkpt lat="43.6041" lon="2.3756">
        <ele>521.1719971</ele>
        <time>2014-06-18T09:06:09Z</time>
      </trkpt>
      <trkpt lat="43.60403" lon="2.37538">
        <ele>521.1719971</ele>
        <time>2014-06-18T09:06:16Z</time>
      </trkpt>
      <trkpt lat="43.60394" lon="2.37524">
        <ele>521.1719971</ele>
        <time>2014-06-18T09:06:22Z</time>
      </trkpt>
      <trkpt lat="43.60379" lon="2.37516">
        <ele>522.1331787</ele>
        <time>2014-06-18T09:06:27Z</time>
      </trkpt>
      <trkpt lat="43.60364" lon="2.37507">
        <ele>521.1719971</ele>
        <time>2014-06-18T09:06:33Z</time>
      </trkpt>
      <trkpt lat="43.60362" lon="2.37504">
        <ele>519.7298584</ele>
        <time>2014-06-18T09:06:35Z</time>
      </trkpt>
      <trkpt lat="43.60348" lon="2.37499">
        <ele>517.3266602</ele>
        <time>2014-06-18T09:06:42Z</time>
      </trkpt>
      <trkpt lat="43.60331" lon="2.37494">
        <ele>518.2878418</ele>
        <time>2014-06-18T09:06:48Z</time>
      </trkpt>
      <trkpt lat="43.6031" lon="2.37492">
        <ele>519.7298584</ele>
        <time>2014-06-18T09:06:54Z</time>
      </trkpt>
      <trkpt lat="43.60281" lon="2.37495">
        <ele>521.1719971</ele>
        <time>2014-06-18T09:07:01Z</time>
      </trkpt>
      <trkpt lat="43.60272" lon="2.37497">
        <ele>521.1719971</ele>
        <time>2014-06-18T09:07:03Z</time>
      </trkpt>
      <trkpt lat="43.60251" lon="2.37508">
        <ele>520.2105713</ele>
        <time>2014-06-18T09:07:08Z</time>
      </trkpt>
      <trkpt lat="43.60233" lon="2.37515">
        <ele>521.6525879</ele>
        <time>2014-06-18T09:07:13Z</time>
      </trkpt>
      <trkpt lat="43.60217" lon="2.37525">
        <ele>522.6138916</ele>
        <time>2014-06-18T09:07:18Z</time>
      </trkpt>
      <trkpt lat="43.60208" lon="2.37533">
        <ele>524.0557861</ele>
        <time>2014-06-18T09:07:22Z</time>
      </trkpt>
      <trkpt lat="43.60199" lon="2.37538">
        <ele>527.901001</ele>
        <time>2014-06-18T09:07:26Z</time>
      </trkpt>
      <trkpt lat="43.60183" lon="2.3755">
        <ele>532.2270508</ele>
        <time>2014-06-18T09:07:32Z</time>
      </trkpt>
      <trkpt lat="43.60171" lon="2.3756">
        <ele>536.5531006</ele>
        <time>2014-06-18T09:07:37Z</time>
      </trkpt>
      <trkpt lat="43.60151" lon="2.37572">
        <ele>536.5531006</ele>
        <time>2014-06-18T09:07:44Z</time>
      </trkpt>
      <trkpt lat="43.60137" lon="2.37578">
        <ele>537.0336914</ele>
        <time>2014-06-18T09:07:50Z</time>
      </trkpt>
      <trkpt lat="43.60129" lon="2.37582">
        <ele>536.0723877</ele>
        <time>2014-06-18T09:07:54Z</time>
      </trkpt>
      <trkpt lat="43.60114" lon="2.37579">
        <ele>534.6303711</ele>
        <time>2014-06-18T09:08:01Z</time>
      </trkpt>
      <trkpt lat="43.60095" lon="2.37572">
        <ele>531.7463379</ele>
        <time>2014-06-18T09:08:05Z</time>
      </trkpt>
      <trkpt lat="43.60077" lon="2.37568">
        <ele>529.8237305</ele>
        <time>2014-06-18T09:08:09Z</time>
      </trkpt>
      <trkpt lat="43.60065" lon="2.37562">
        <ele>529.3431396</ele>
        <time>2014-06-18T09:08:12Z</time>
      </trkpt>
      <trkpt lat="43.60054" lon="2.37554">
        <ele>530.7851563</ele>
        <time>2014-06-18T09:08:15Z</time>
      </trkpt>
      <trkpt lat="43.60032" lon="2.37538">
        <ele>533.1883545</ele>
        <time>2014-06-18T09:08:21Z</time>
      </trkpt>
      <trkpt lat="43.6002" lon="2.37531">
        <ele>532.7077637</ele>
        <time>2014-06-18T09:08:25Z</time>
      </trkpt>
      <trkpt lat="43.59997" lon="2.37511">
        <ele>530.7851563</ele>
        <time>2014-06-18T09:08:32Z</time>
      </trkpt>
      <trkpt lat="43.59994" lon="2.37509">
        <ele>531.2657471</ele>
        <time>2014-06-18T09:08:33Z</time>
      </trkpt>
      <trkpt lat="43.59987" lon="2.375">
        <ele>528.3818359</ele>
        <time>2014-06-18T09:08:37Z</time>
      </trkpt>
      <trkpt lat="43.59971" lon="2.37485">
        <ele>523.0946045</ele>
        <time>2014-06-18T09:08:43Z</time>
      </trkpt>
      <trkpt lat="43.59955" lon="2.37465">
        <ele>518.2878418</ele>
        <time>2014-06-18T09:08:50Z</time>
      </trkpt>
      <trkpt lat="43.59945" lon="2.37453">
        <ele>513.4814453</ele>
        <time>2014-06-18T09:08:55Z</time>
      </trkpt>
      <trkpt lat="43.59928" lon="2.37437">
        <ele>501.9455566</ele>
        <time>2014-06-18T09:09:01Z</time>
      </trkpt>
      <trkpt lat="43.59925" lon="2.37435">
        <ele>500.0229492</ele>
        <time>2014-06-18T09:09:02Z</time>
      </trkpt>
      <trkpt lat="43.59911" lon="2.3742">
        <ele>493.774292</ele>
        <time>2014-06-18T09:09:09Z</time>
      </trkpt>
      <trkpt lat="43.59903" lon="2.37412">
        <ele>494.2550049</ele>
        <time>2014-06-18T09:09:17Z</time>
      </trkpt>
      <trkpt lat="43.59896" lon="2.37402">
        <ele>498.1003418</ele>
        <time>2014-06-18T09:09:24Z</time>
      </trkpt>
      <trkpt lat="43.59892" lon="2.37395">
        <ele>494.7355957</ele>
        <time>2014-06-18T09:09:28Z</time>
      </trkpt>
      <trkpt lat="43.59885" lon="2.37382">
        <ele>493.2935791</ele>
        <time>2014-06-18T09:09:35Z</time>
      </trkpt>
      <trkpt lat="43.59878" lon="2.37372">
        <ele>494.7355957</ele>
        <time>2014-06-18T09:09:40Z</time>
      </trkpt>
      <trkpt lat="43.5987" lon="2.3736">
        <ele>493.774292</ele>
        <time>2014-06-18T09:09:45Z</time>
      </trkpt>
      <trkpt lat="43.59857" lon="2.37344">
        <ele>490.8903809</ele>
        <time>2014-06-18T09:09:50Z</time>
      </trkpt>
      <trkpt lat="43.59844" lon="2.37326">
        <ele>488.4871826</ele>
        <time>2014-06-18T09:09:55Z</time>
      </trkpt>
      <trkpt lat="43.59838" lon="2.37315">
        <ele>486.5644531</ele>
        <time>2014-06-18T09:09:59Z</time>
      </trkpt>
      <trkpt lat="43.5983" lon="2.37305">
        <ele>483.1998291</ele>
        <time>2014-06-18T09:10:03Z</time>
      </trkpt>
      <trkpt lat="43.59824" lon="2.37301">
        <ele>481.2772217</ele>
        <time>2014-06-18T09:10:07Z</time>
      </trkpt>
      <trkpt lat="43.59814" lon="2.373">
        <ele>482.2385254</ele>
        <time>2014-06-18T09:10:12Z</time>
      </trkpt>
      <trkpt lat="43.59791" lon="2.37308">
        <ele>481.7578125</ele>
        <time>2014-06-18T09:10:17Z</time>
      </trkpt>
      <trkpt lat="43.5976" lon="2.3731">
        <ele>479.3544922</ele>
        <time>2014-06-18T09:10:22Z</time>
      </trkpt>
      <trkpt lat="43.59726" lon="2.3731">
        <ele>476.4705811</ele>
        <time>2014-06-18T09:10:27Z</time>
      </trkpt>
      <trkpt lat="43.59665" lon="2.37313">
        <ele>474.0672607</ele>
        <time>2014-06-18T09:10:35Z</time>
      </trkpt>
      <trkpt lat="43.59618" lon="2.3732">
        <ele>472.1446533</ele>
        <time>2014-06-18T09:10:41Z</time>
      </trkpt>
      <trkpt lat="43.59557" lon="2.37333">
        <ele>470.2219238</ele>
        <time>2014-06-18T09:10:48Z</time>
      </trkpt>
      <trkpt lat="43.5953" lon="2.37339">
        <ele>469.741333</ele>
        <time>2014-06-18T09:10:51Z</time>
      </trkpt>
      <trkpt lat="43.59496" lon="2.37333">
        <ele>468.2993164</ele>
        <time>2014-06-18T09:10:55Z</time>
      </trkpt>
      <trkpt lat="43.59464" lon="2.37336">
        <ele>466.8574219</ele>
        <time>2014-06-18T09:10:59Z</time>
      </trkpt>
      <trkpt lat="43.59456" lon="2.37341">
        <ele>466.376709</ele>
        <time>2014-06-18T09:11:00Z</time>
      </trkpt>
      <trkpt lat="43.59411" lon="2.37381">
        <ele>464.4541016</ele>
        <time>2014-06-18T09:11:06Z</time>
      </trkpt>
      <trkpt lat="43.59379" lon="2.37429">
        <ele>463.4927979</ele>
        <time>2014-06-18T09:11:11Z</time>
      </trkpt>
      <trkpt lat="43.59351" lon="2.37492">
        <ele>462.5313721</ele>
        <time>2014-06-18T09:11:17Z</time>
      </trkpt>
      <trkpt lat="43.5934" lon="2.37511">
        <ele>463.012085</ele>
        <time>2014-06-18T09:11:19Z</time>
      </trkpt>
      <trkpt lat="43.59323" lon="2.37531">
        <ele>461.5701904</ele>
        <time>2014-06-18T09:11:22Z</time>
      </trkpt>
      <trkpt lat="43.59309" lon="2.37537">
        <ele>460.1281738</ele>
        <time>2014-06-18T09:11:24Z</time>
      </trkpt>
      <trkpt lat="43.59288" lon="2.37545">
        <ele>459.647583</ele>
        <time>2014-06-18T09:11:27Z</time>
      </trkpt>
      <trkpt lat="43.59258" lon="2.37566">
        <ele>458.6861572</ele>
        <time>2014-06-18T09:11:32Z</time>
      </trkpt>
      <trkpt lat="43.59247" lon="2.37569">
        <ele>457.7249756</ele>
        <time>2014-06-18T09:11:34Z</time>
      </trkpt>
      <trkpt lat="43.59237" lon="2.37568">
        <ele>456.282959</ele>
        <time>2014-06-18T09:11:38Z</time>
      </trkpt>
      <trkpt lat="43.59237" lon="2.37568">
        <ele>454.8408203</ele>
        <time>2014-06-18T09:11:46Z</time>
      </trkpt>
      <trkpt lat="43.59236" lon="2.37564">
        <ele>453.8796387</ele>
        <time>2014-06-18T09:11:52Z</time>
      </trkpt>
      <trkpt lat="43.59235" lon="2.37563">
        <ele>455.3215332</ele>
        <time>2014-06-18T09:11:58Z</time>
      </trkpt>
      <trkpt lat="43.59235" lon="2.37562">
        <ele>454.3602295</ele>
        <time>2014-06-18T09:12:03Z</time>
      </trkpt>
      <trkpt lat="43.59237" lon="2.37558">
        <ele>454.3602295</ele>
        <time>2014-06-18T09:12:06Z</time>
      </trkpt>
      <trkpt lat="43.59239" lon="2.37543">
        <ele>455.3215332</ele>
        <time>2014-06-18T09:12:11Z</time>
      </trkpt>
      <trkpt lat="43.59241" lon="2.37522">
        <ele>455.8022461</ele>
        <time>2014-06-18T09:12:17Z</time>
      </trkpt>
      <trkpt lat="43.59244" lon="2.3751">
        <ele>455.8022461</ele>
        <time>2014-06-18T09:12:20Z</time>
      </trkpt>
      <trkpt lat="43.5925" lon="2.37482">
        <ele>456.282959</ele>
        <time>2014-06-18T09:12:27Z</time>
      </trkpt>
      <trkpt lat="43.5925" lon="2.37467">
        <ele>457.2442627</ele>
        <time>2014-06-18T09:12:32Z</time>
      </trkpt>
      <trkpt lat="43.59251" lon="2.37459">
        <ele>457.2442627</ele>
        <time>2014-06-18T09:12:35Z</time>
      </trkpt>
      <trkpt lat="43.5925" lon="2.37454">
        <ele>457.2442627</ele>
        <time>2014-06-18T09:12:41Z</time>
      </trkpt>
      <trkpt lat="43.59249" lon="2.37454">
        <ele>457.2442627</ele>
        <time>2014-06-18T09:12:49Z</time>
      </trkpt>
      <trkpt lat="43.59248" lon="2.37452">
        <ele>455.3215332</ele>
        <time>2014-06-18T09:12:55Z</time>
      </trkpt>
      <trkpt lat="43.59247" lon="2.37449">
        <ele>455.8022461</ele>
        <time>2014-06-18T09:12:59Z</time>
      </trkpt>
      <trkpt lat="43.59248" lon="2.37444">
        <ele>454.8408203</ele>
        <time>2014-06-18T09:13:04Z</time>
      </trkpt>
      <trkpt lat="43.59247" lon="2.37437">
        <ele>457.2442627</ele>
        <time>2014-06-18T09:13:11Z</time>
      </trkpt>
      <trkpt lat="43.59248" lon="2.37437">
        <ele>459.1668701</ele>
        <time>2014-06-18T09:13:17Z</time>
      </trkpt>
      <trkpt lat="43.59248" lon="2.37452">
        <ele>458.6861572</ele>
        <time>2014-06-18T09:13:22Z</time>
      </trkpt>
      <trkpt lat="43.59238" lon="2.3745">
        <ele>457.2442627</ele>
        <time>2014-06-18T09:13:26Z</time>
      </trkpt>
      <trkpt lat="43.59221" lon="2.37442">
        <ele>455.3215332</ele>
        <time>2014-06-18T09:13:30Z</time>
      </trkpt>
      <trkpt lat="43.5921" lon="2.37432">
        <ele>453.8796387</ele>
        <time>2014-06-18T09:13:32Z</time>
      </trkpt>
      <trkpt lat="43.59199" lon="2.37419">
        <ele>452.4376221</ele>
        <time>2014-06-18T09:13:35Z</time>
      </trkpt>
      <trkpt lat="43.59184" lon="2.3741">
        <ele>450.5150146</ele>
        <time>2014-06-18T09:13:40Z</time>
      </trkpt>
      <trkpt lat="43.59173" lon="2.37405">
        <ele>452.9182129</ele>
        <time>2014-06-18T09:13:45Z</time>
      </trkpt>
      <trkpt lat="43.59158" lon="2.37399">
        <ele>452.4376221</ele>
        <time>2014-06-18T09:13:50Z</time>
      </trkpt>
      <trkpt lat="43.5914" lon="2.37382">
        <ele>451.4763184</ele>
        <time>2014-06-18T09:13:54Z</time>
      </trkpt>
      <trkpt lat="43.59138" lon="2.37376">
        <ele>449.5537109</ele>
        <time>2014-06-18T09:13:55Z</time>
      </trkpt>
      <trkpt lat="43.59128" lon="2.37337">
        <ele>453.8796387</ele>
        <time>2014-06-18T09:14:01Z</time>
      </trkpt>
      <trkpt lat="43.59127" lon="2.37331">
        <ele>455.3215332</ele>
        <time>2014-06-18T09:14:02Z</time>
      </trkpt>
      <trkpt lat="43.59116" lon="2.37313">
        <ele>458.6861572</ele>
        <time>2014-06-18T09:14:06Z</time>
      </trkpt>
      <trkpt lat="43.59097" lon="2.37282">
        <ele>461.5701904</ele>
        <time>2014-06-18T09:14:12Z</time>
      </trkpt>
      <trkpt lat="43.59085" lon="2.37261">
        <ele>459.1668701</ele>
        <time>2014-06-18T09:14:17Z</time>
      </trkpt>
      <trkpt lat="43.59075" lon="2.37249">
        <ele>455.8022461</ele>
        <time>2014-06-18T09:14:20Z</time>
      </trkpt>
      <trkpt lat="43.59068" lon="2.3723">
        <ele>454.3602295</ele>
        <time>2014-06-18T09:14:24Z</time>
      </trkpt>
      <trkpt lat="43.5906" lon="2.37213">
        <ele>455.3215332</ele>
        <time>2014-06-18T09:14:27Z</time>
      </trkpt>
      <trkpt lat="43.5905" lon="2.37192">
        <ele>452.9182129</ele>
        <time>2014-06-18T09:14:31Z</time>
      </trkpt>
      <trkpt lat="43.59044" lon="2.37169">
        <ele>449.072998</ele>
        <time>2014-06-18T09:14:35Z</time>
      </trkpt>
      <trkpt lat="43.59039" lon="2.37121">
        <ele>446.6696777</ele>
        <time>2014-06-18T09:14:42Z</time>
      </trkpt>
      <trkpt lat="43.59038" lon="2.37112">
        <ele>445.2276611</ele>
        <time>2014-06-18T09:14:44Z</time>
      </trkpt>
      <trkpt lat="43.59033" lon="2.371">
        <ele>442.3438721</ele>
        <time>2014-06-18T09:14:47Z</time>
      </trkpt>
      <trkpt lat="43.5902" lon="2.37085">
        <ele>440.9018555</ele>
        <time>2014-06-18T09:14:52Z</time>
      </trkpt>
      <trkpt lat="43.59009" lon="2.37066">
        <ele>438.4985352</ele>
        <time>2014-06-18T09:14:57Z</time>
      </trkpt>
      <trkpt lat="43.58998" lon="2.37061">
        <ele>437.5371094</ele>
        <time>2014-06-18T09:15:00Z</time>
      </trkpt>
      <trkpt lat="43.5898" lon="2.37055">
        <ele>436.0952148</ele>
        <time>2014-06-18T09:15:04Z</time>
      </trkpt>
      <trkpt lat="43.58951" lon="2.3704">
        <ele>432.7307129</ele>
        <time>2014-06-18T09:15:09Z</time>
      </trkpt>
      <trkpt lat="43.58924" lon="2.37023">
        <ele>426.9627686</ele>
        <time>2014-06-18T09:15:13Z</time>
      </trkpt>
      <trkpt lat="43.58898" lon="2.37002">
        <ele>429.8465576</ele>
        <time>2014-06-18T09:15:17Z</time>
      </trkpt>
      <trkpt lat="43.58883" lon="2.36993">
        <ele>428.4046631</ele>
        <time>2014-06-18T09:15:20Z</time>
      </trkpt>
      <trkpt lat="43.58869" lon="2.36982">
        <ele>426.0013428</ele>
        <time>2014-06-18T09:15:23Z</time>
      </trkpt>
      <trkpt lat="43.58859" lon="2.36976">
        <ele>424.5594482</ele>
        <time>2014-06-18T09:15:25Z</time>
      </trkpt>
      <trkpt lat="43.5883" lon="2.36958">
        <ele>423.1174316</ele>
        <time>2014-06-18T09:15:30Z</time>
      </trkpt>
      <trkpt lat="43.58817" lon="2.36952">
        <ele>423.1174316</ele>
        <time>2014-06-18T09:15:32Z</time>
      </trkpt>
      <trkpt lat="43.58782" lon="2.36943">
        <ele>421.1948242</ele>
        <time>2014-06-18T09:15:38Z</time>
      </trkpt>
      <trkpt lat="43.58745" lon="2.36927">
        <ele>420.7141113</ele>
        <time>2014-06-18T09:15:44Z</time>
      </trkpt>
      <trkpt lat="43.58727" lon="2.36916">
        <ele>418.310791</ele>
        <time>2014-06-18T09:15:49Z</time>
      </trkpt>
      <trkpt lat="43.58708" lon="2.36911">
        <ele>416.3881836</ele>
        <time>2014-06-18T09:15:55Z</time>
      </trkpt>
      <trkpt lat="43.58699" lon="2.36909">
        <ele>415.4268799</ele>
        <time>2014-06-18T09:15:59Z</time>
      </trkpt>
      <trkpt lat="43.58683" lon="2.36902">
        <ele>414.4654541</ele>
        <time>2014-06-18T09:16:04Z</time>
      </trkpt>
      <trkpt lat="43.58665" lon="2.36891">
        <ele>418.7915039</ele>
        <time>2014-06-18T09:16:10Z</time>
      </trkpt>
      <trkpt lat="43.58644" lon="2.36879">
        <ele>421.675415</ele>
        <time>2014-06-18T09:16:16Z</time>
      </trkpt>
      <trkpt lat="43.58632" lon="2.36873">
        <ele>422.6367188</ele>
        <time>2014-06-18T09:16:19Z</time>
      </trkpt>
      <trkpt lat="43.58611" lon="2.36871">
        <ele>415.9074707</ele>
        <time>2014-06-18T09:16:24Z</time>
      </trkpt>
      <trkpt lat="43.58606" lon="2.3687">
        <ele>416.3881836</ele>
        <time>2014-06-18T09:16:25Z</time>
      </trkpt>
      <trkpt lat="43.58596" lon="2.36869">
        <ele>414.946167</ele>
        <time>2014-06-18T09:16:28Z</time>
      </trkpt>
      <trkpt lat="43.58578" lon="2.36853">
        <ele>419.7528076</ele>
        <time>2014-06-18T09:16:33Z</time>
      </trkpt>
      <trkpt lat="43.58558" lon="2.36829">
        <ele>423.1174316</ele>
        <time>2014-06-18T09:16:38Z</time>
      </trkpt>
      <trkpt lat="43.58529" lon="2.36802">
        <ele>426.0013428</ele>
        <time>2014-06-18T09:16:44Z</time>
      </trkpt>
      <trkpt lat="43.58518" lon="2.36794">
        <ele>424.5594482</ele>
        <time>2014-06-18T09:16:46Z</time>
      </trkpt>
      <trkpt lat="43.58502" lon="2.36785">
        <ele>423.5980225</ele>
        <time>2014-06-18T09:16:48Z</time>
      </trkpt>
      <trkpt lat="43.58464" lon="2.36776">
        <ele>417.8302002</ele>
        <time>2014-06-18T09:16:52Z</time>
      </trkpt>
      <trkpt lat="43.58419" lon="2.3677">
        <ele>411.1009521</ele>
        <time>2014-06-18T09:16:57Z</time>
      </trkpt>
      <trkpt lat="43.58399" lon="2.36762">
        <ele>399.5650635</ele>
        <time>2014-06-18T09:17:01Z</time>
      </trkpt>
      <trkpt lat="43.58399" lon="2.36762">
        <ele>397.1617432</ele>
        <time>2014-06-18T09:17:05Z</time>
      </trkpt>
      <trkpt lat="43.58399" lon="2.36763">
        <ele>390.913208</ele>
        <time>2014-06-18T09:17:12Z</time>
      </trkpt>
      <trkpt lat="43.58396" lon="2.36762">
        <ele>388.9906006</ele>
        <time>2014-06-18T09:17:26Z</time>
      </trkpt>
      <trkpt lat="43.58393" lon="2.36763">
        <ele>387.548584</ele>
        <time>2014-06-18T09:17:33Z</time>
      </trkpt>
      <trkpt lat="43.58386" lon="2.36765">
        <ele>387.0679932</ele>
        <time>2014-06-18T09:18:04Z</time>
      </trkpt>
      <trkpt lat="43.58387" lon="2.36769">
        <ele>393.3165283</ele>
        <time>2014-06-18T09:18:34Z</time>
      </trkpt>
      <trkpt lat="43.58383" lon="2.36767">
        <ele>395.2391357</ele>
        <time>2014-06-18T09:18:37Z</time>
      </trkpt>
      <trkpt lat="43.58377" lon="2.36761">
        <ele>393.3165283</ele>
        <time>2014-06-18T09:18:40Z</time>
      </trkpt>
      <trkpt lat="43.5836" lon="2.36748">
        <ele>390.913208</ele>
        <time>2014-06-18T09:18:44Z</time>
      </trkpt>
      <trkpt lat="43.5835" lon="2.36738">
        <ele>388.5100098</ele>
        <time>2014-06-18T09:18:48Z</time>
      </trkpt>
      <trkpt lat="43.58348" lon="2.36733">
        <ele>390.4326172</ele>
        <time>2014-06-18T09:18:52Z</time>
      </trkpt>
      <trkpt lat="43.58348" lon="2.36729">
        <ele>393.7972412</ele>
        <time>2014-06-18T09:19:02Z</time>
      </trkpt>
      <trkpt lat="43.58344" lon="2.36727">
        <ele>393.3165283</ele>
        <time>2014-06-18T09:19:12Z</time>
      </trkpt>
      <trkpt lat="43.58342" lon="2.36718">
        <ele>390.4326172</ele>
        <time>2014-06-18T09:19:16Z</time>
      </trkpt>
      <trkpt lat="43.58331" lon="2.36687">
        <ele>386.5874023</ele>
        <time>2014-06-18T09:19:22Z</time>
      </trkpt>
      <trkpt lat="43.58326" lon="2.36662">
        <ele>380.3387451</ele>
        <time>2014-06-18T09:19:27Z</time>
      </trkpt>
      <trkpt lat="43.58326" lon="2.3664">
        <ele>374.0900879</ele>
        <time>2014-06-18T09:19:32Z</time>
      </trkpt>
      <trkpt lat="43.58326" lon="2.36614">
        <ele>368.3222656</ele>
        <time>2014-06-18T09:19:37Z</time>
      </trkpt>
      <trkpt lat="43.58325" lon="2.36588">
        <ele>359.6704102</ele>
        <time>2014-06-18T09:19:42Z</time>
      </trkpt>
      <trkpt lat="43.58329" lon="2.36566">
        <ele>351.4991455</ele>
        <time>2014-06-18T09:19:46Z</time>
      </trkpt>
      <trkpt lat="43.58333" lon="2.36526">
        <ele>341.8859863</ele>
        <time>2014-06-18T09:19:52Z</time>
      </trkpt>
      <trkpt lat="43.58334" lon="2.3652">
        <ele>341.4052734</ele>
        <time>2014-06-18T09:19:53Z</time>
      </trkpt>
      <trkpt lat="43.58336" lon="2.36508">
        <ele>339.0020752</ele>
        <time>2014-06-18T09:19:55Z</time>
      </trkpt>
      <trkpt lat="43.58333" lon="2.36477">
        <ele>335.6373291</ele>
        <time>2014-06-18T09:20:00Z</time>
      </trkpt>
      <trkpt lat="43.58328" lon="2.36445">
        <ele>336.1181641</ele>
        <time>2014-06-18T09:20:05Z</time>
      </trkpt>
      <trkpt lat="43.58321" lon="2.36412">
        <ele>337.5600586</ele>
        <time>2014-06-18T09:20:09Z</time>
      </trkpt>
      <trkpt lat="43.58309" lon="2.36374">
        <ele>340.4440918</ele>
        <time>2014-06-18T09:20:15Z</time>
      </trkpt>
      <trkpt lat="43.58301" lon="2.36344">
        <ele>346.2120361</ele>
        <time>2014-06-18T09:20:21Z</time>
      </trkpt>
      <trkpt lat="43.58299" lon="2.36329">
        <ele>345.2506104</ele>
        <time>2014-06-18T09:20:24Z</time>
      </trkpt>
      <trkpt lat="43.58301" lon="2.36312">
        <ele>348.6152344</ele>
        <time>2014-06-18T09:20:29Z</time>
      </trkpt>
      <trkpt lat="43.5831" lon="2.363">
        <ele>348.6152344</ele>
        <time>2014-06-18T09:20:35Z</time>
      </trkpt>
      <trkpt lat="43.58317" lon="2.36298">
        <ele>348.1346436</ele>
        <time>2014-06-18T09:20:38Z</time>
      </trkpt>
      <trkpt lat="43.58331" lon="2.36304">
        <ele>343.8085938</ele>
        <time>2014-06-18T09:20:42Z</time>
      </trkpt>
      <trkpt lat="43.58354" lon="2.36325">
        <ele>340.4440918</ele>
        <time>2014-06-18T09:20:47Z</time>
      </trkpt>
      <trkpt lat="43.58385" lon="2.3637">
        <ele>334.1954346</ele>
        <time>2014-06-18T09:20:54Z</time>
      </trkpt>
      <trkpt lat="43.58403" lon="2.36385">
        <ele>332.75354</ele>
        <time>2014-06-18T09:20:58Z</time>
      </trkpt>
      <trkpt lat="43.58405" lon="2.36377">
        <ele>331.3115234</ele>
        <time>2014-06-18T09:21:00Z</time>
      </trkpt>
      <trkpt lat="43.58408" lon="2.36365">
        <ele>332.75354</ele>
        <time>2014-06-18T09:21:03Z</time>
      </trkpt>
      <trkpt lat="43.58417" lon="2.36337">
        <ele>329.8695068</ele>
        <time>2014-06-18T09:21:10Z</time>
      </trkpt>
      <trkpt lat="43.58429" lon="2.36315">
        <ele>333.2341309</ele>
        <time>2014-06-18T09:21:14Z</time>
      </trkpt>
      <trkpt lat="43.58431" lon="2.36305">
        <ele>330.3502197</ele>
        <time>2014-06-18T09:21:16Z</time>
      </trkpt>
      <trkpt lat="43.58435" lon="2.3629">
        <ele>326.0241699</ele>
        <time>2014-06-18T09:21:19Z</time>
      </trkpt>
      <trkpt lat="43.58435" lon="2.36281">
        <ele>323.6209717</ele>
        <time>2014-06-18T09:21:21Z</time>
      </trkpt>
      <trkpt lat="43.58438" lon="2.3625">
        <ele>314.0078125</ele>
        <time>2014-06-18T09:21:27Z</time>
      </trkpt>
      <trkpt lat="43.58438" lon="2.36243">
        <ele>313.0465088</ele>
        <time>2014-06-18T09:21:28Z</time>
      </trkpt>
      <trkpt lat="43.58434" lon="2.36223">
        <ele>309.6818848</ele>
        <time>2014-06-18T09:21:31Z</time>
      </trkpt>
      <trkpt lat="43.58433" lon="2.362">
        <ele>308.720459</ele>
        <time>2014-06-18T09:21:35Z</time>
      </trkpt>
      <trkpt lat="43.58432" lon="2.36185">
        <ele>308.2398682</ele>
        <time>2014-06-18T09:21:38Z</time>
      </trkpt>
      <trkpt lat="43.5843" lon="2.36176">
        <ele>306.7978516</ele>
        <time>2014-06-18T09:21:44Z</time>
      </trkpt>
      <trkpt lat="43.58433" lon="2.36157">
        <ele>303.9139404</ele>
        <time>2014-06-18T09:21:49Z</time>
      </trkpt>
      <trkpt lat="43.58439" lon="2.36136">
        <ele>300.0687256</ele>
        <time>2014-06-18T09:21:53Z</time>
      </trkpt>
      <trkpt lat="43.5845" lon="2.3611">
        <ele>295.7426758</ele>
        <time>2014-06-18T09:21:58Z</time>
      </trkpt>
      <trkpt lat="43.58458" lon="2.36072">
        <ele>289.4941406</ele>
        <time>2014-06-18T09:22:04Z</time>
      </trkpt>
      <trkpt lat="43.58464" lon="2.36052">
        <ele>289.0135498</ele>
        <time>2014-06-18T09:22:07Z</time>
      </trkpt>
      <trkpt lat="43.58466" lon="2.36036">
        <ele>288.0522461</ele>
        <time>2014-06-18T09:22:09Z</time>
      </trkpt>
      <trkpt lat="43.5848" lon="2.35996">
        <ele>284.6876221</ele>
        <time>2014-06-18T09:22:16Z</time>
      </trkpt>
      <trkpt lat="43.58499" lon="2.3598">
        <ele>283.7261963</ele>
        <time>2014-06-18T09:22:21Z</time>
      </trkpt>
      <trkpt lat="43.58505" lon="2.35984">
        <ele>286.1295166</ele>
        <time>2014-06-18T09:22:24Z</time>
      </trkpt>
      <trkpt lat="43.58511" lon="2.35989">
        <ele>291.416748</ele>
        <time>2014-06-18T09:22:27Z</time>
      </trkpt>
      <trkpt lat="43.58528" lon="2.35998">
        <ele>297.6654053</ele>
        <time>2014-06-18T09:22:32Z</time>
      </trkpt>
      <trkpt lat="43.58554" lon="2.36005">
        <ele>299.1072998</ele>
        <time>2014-06-18T09:22:37Z</time>
      </trkpt>
      <trkpt lat="43.58564" lon="2.36004">
        <ele>300.0687256</ele>
        <time>2014-06-18T09:22:39Z</time>
      </trkpt>
      <trkpt lat="43.58579" lon="2.36">
        <ele>302.9525146</ele>
        <time>2014-06-18T09:22:42Z</time>
      </trkpt>
      <trkpt lat="43.58594" lon="2.35989">
        <ele>307.2785645</ele>
        <time>2014-06-18T09:22:46Z</time>
      </trkpt>
      <trkpt lat="43.58615" lon="2.35989">
        <ele>303.4332275</ele>
        <time>2014-06-18T09:22:52Z</time>
      </trkpt>
      <trkpt lat="43.58619" lon="2.35988">
        <ele>303.4332275</ele>
        <time>2014-06-18T09:22:53Z</time>
      </trkpt>
      <trkpt lat="43.58649" lon="2.35982">
        <ele>303.4332275</ele>
        <time>2014-06-18T09:23:01Z</time>
      </trkpt>
      <trkpt lat="43.5866" lon="2.35982">
        <ele>303.9139404</ele>
        <time>2014-06-18T09:23:06Z</time>
      </trkpt>
      <trkpt lat="43.5866" lon="2.35982">
        <ele>300.0687256</ele>
        <time>2014-06-18T09:23:15Z</time>
      </trkpt>
      <trkpt lat="43.58664" lon="2.35986">
        <ele>295.7426758</ele>
        <time>2014-06-18T09:23:21Z</time>
      </trkpt>
      <trkpt lat="43.58666" lon="2.35984">
        <ele>295.7426758</ele>
        <time>2014-06-18T09:23:26Z</time>
      </trkpt>
      <trkpt lat="43.58669" lon="2.35984">
        <ele>296.2235107</ele>
        <time>2014-06-18T09:23:28Z</time>
      </trkpt>
      <trkpt lat="43.58681" lon="2.35982">
        <ele>300.5493164</ele>
        <time>2014-06-18T09:23:33Z</time>
      </trkpt>
      <trkpt lat="43.587" lon="2.35984">
        <ele>300.0687256</ele>
        <time>2014-06-18T09:23:38Z</time>
      </trkpt>
      <trkpt lat="43.58718" lon="2.3599">
        <ele>296.7041016</ele>
        <time>2014-06-18T09:23:42Z</time>
      </trkpt>
      <trkpt lat="43.58735" lon="2.36013">
        <ele>292.3781738</ele>
        <time>2014-06-18T09:23:48Z</time>
      </trkpt>
      <trkpt lat="43.58741" lon="2.3602">
        <ele>294.3007813</ele>
        <time>2014-06-18T09:23:50Z</time>
      </trkpt>
      <trkpt lat="43.58752" lon="2.36029">
        <ele>294.3007813</ele>
        <time>2014-06-18T09:23:52Z</time>
      </trkpt>
      <trkpt lat="43.58768" lon="2.36054">
        <ele>292.3781738</ele>
        <time>2014-06-18T09:23:56Z</time>
      </trkpt>
      <trkpt lat="43.58775" lon="2.36078">
        <ele>287.0908203</ele>
        <time>2014-06-18T09:24:01Z</time>
      </trkpt>
      <trkpt lat="43.58776" lon="2.3609">
        <ele>287.5714111</ele>
        <time>2014-06-18T09:24:03Z</time>
      </trkpt>
      <trkpt lat="43.58787" lon="2.36106">
        <ele>287.0908203</ele>
        <time>2014-06-18T09:24:08Z</time>
      </trkpt>
      <trkpt lat="43.58792" lon="2.36107">
        <ele>283.2456055</ele>
        <time>2014-06-18T09:24:12Z</time>
      </trkpt>
      <trkpt lat="43.58803" lon="2.36105">
        <ele>288.532959</ele>
        <time>2014-06-18T09:24:16Z</time>
      </trkpt>
      <trkpt lat="43.58824" lon="2.36099">
        <ele>292.8587646</ele>
        <time>2014-06-18T09:24:23Z</time>
      </trkpt>
      <trkpt lat="43.58842" lon="2.36091">
        <ele>292.3781738</ele>
        <time>2014-06-18T09:24:29Z</time>
      </trkpt>
      <trkpt lat="43.58866" lon="2.36091">
        <ele>285.1682129</ele>
        <time>2014-06-18T09:24:35Z</time>
      </trkpt>
      <trkpt lat="43.58876" lon="2.3609">
        <ele>283.7261963</ele>
        <time>2014-06-18T09:24:37Z</time>
      </trkpt>
      <trkpt lat="43.58893" lon="2.36096">
        <ele>287.0908203</ele>
        <time>2014-06-18T09:24:41Z</time>
      </trkpt>
      <trkpt lat="43.58905" lon="2.36092">
        <ele>289.0135498</ele>
        <time>2014-06-18T09:24:47Z</time>
      </trkpt>
      <trkpt lat="43.58914" lon="2.36089">
        <ele>291.416748</ele>
        <time>2014-06-18T09:24:51Z</time>
      </trkpt>
      <trkpt lat="43.58915" lon="2.36089">
        <ele>290.9361572</ele>
        <time>2014-06-18T09:24:52Z</time>
      </trkpt>
      <trkpt lat="43.58922" lon="2.36091">
        <ele>296.2235107</ele>
        <time>2014-06-18T09:25:01Z</time>
      </trkpt>
      <trkpt lat="43.58926" lon="2.36092">
        <ele>300.0687256</ele>
        <time>2014-06-18T09:25:06Z</time>
      </trkpt>
      <trkpt lat="43.58929" lon="2.36093">
        <ele>311.6044922</ele>
        <time>2014-06-18T09:25:12Z</time>
      </trkpt>
      <trkpt lat="43.58928" lon="2.36096">
        <ele>316.4110107</ele>
        <time>2014-06-18T09:25:18Z</time>
      </trkpt>
      <trkpt lat="43.58927" lon="2.36097">
        <ele>314.9691162</ele>
        <time>2014-06-18T09:25:20Z</time>
      </trkpt>
      <trkpt lat="43.58926" lon="2.36093">
        <ele>312.0852051</ele>
        <time>2014-06-18T09:25:23Z</time>
      </trkpt>
      <trkpt lat="43.5893" lon="2.36088">
        <ele>314.0078125</ele>
        <time>2014-06-18T09:25:26Z</time>
      </trkpt>
      <trkpt lat="43.5894" lon="2.3608">
        <ele>312.5657959</ele>
        <time>2014-06-18T09:25:34Z</time>
      </trkpt>
      <trkpt lat="43.58949" lon="2.36071">
        <ele>313.0465088</ele>
        <time>2014-06-18T09:25:40Z</time>
      </trkpt>
      <trkpt lat="43.58959" lon="2.36065">
        <ele>314.4884033</ele>
        <time>2014-06-18T09:25:44Z</time>
      </trkpt>
      <trkpt lat="43.5897" lon="2.36063">
        <ele>314.4884033</ele>
        <time>2014-06-18T09:25:50Z</time>
      </trkpt>
      <trkpt lat="43.5897" lon="2.3606">
        <ele>314.4884033</ele>
        <time>2014-06-18T09:25:55Z</time>
      </trkpt>
      <trkpt lat="43.58974" lon="2.36058">
        <ele>313.0465088</ele>
        <time>2014-06-18T09:26:01Z</time>
      </trkpt>
      <trkpt lat="43.58979" lon="2.36052">
        <ele>314.9691162</ele>
        <time>2014-06-18T09:26:08Z</time>
      </trkpt>
      <trkpt lat="43.5897" lon="2.36053">
        <ele>320.2563477</ele>
        <time>2014-06-18T09:26:23Z</time>
      </trkpt>
      <trkpt lat="43.58962" lon="2.36054">
        <ele>319.7756348</ele>
        <time>2014-06-18T09:26:29Z</time>
      </trkpt>
      <trkpt lat="43.58959" lon="2.36051">
        <ele>319.7756348</ele>
        <time>2014-06-18T09:26:35Z</time>
      </trkpt>
      <trkpt lat="43.58957" lon="2.36048">
        <ele>320.2563477</ele>
        <time>2014-06-18T09:26:39Z</time>
      </trkpt>
      <trkpt lat="43.58952" lon="2.36041">
        <ele>323.1403809</ele>
        <time>2014-06-18T09:26:47Z</time>
      </trkpt>
      <trkpt lat="43.58952" lon="2.3604">
        <ele>324.5822754</ele>
        <time>2014-06-18T09:26:49Z</time>
      </trkpt>
      <trkpt lat="43.58947" lon="2.36036">
        <ele>328.4276123</ele>
        <time>2014-06-18T09:26:56Z</time>
      </trkpt>
      <trkpt lat="43.58941" lon="2.36032">
        <ele>325.5435791</ele>
        <time>2014-06-18T09:27:02Z</time>
      </trkpt>
      <trkpt lat="43.58937" lon="2.36029">
        <ele>324.1015625</ele>
        <time>2014-06-18T09:27:04Z</time>
      </trkpt>
      <trkpt lat="43.58928" lon="2.36024">
        <ele>326.0241699</ele>
        <time>2014-06-18T09:27:10Z</time>
      </trkpt>
      <trkpt lat="43.58923" lon="2.36019">
        <ele>328.9083252</ele>
        <time>2014-06-18T09:27:16Z</time>
      </trkpt>
      <trkpt lat="43.58918" lon="2.36016">
        <ele>327.9467773</ele>
        <time>2014-06-18T09:27:20Z</time>
      </trkpt>
      <trkpt lat="43.58912" lon="2.36018">
        <ele>331.7921143</ele>
        <time>2014-06-18T09:27:26Z</time>
      </trkpt>
      <trkpt lat="43.58908" lon="2.36017">
        <ele>339.0020752</ele>
        <time>2014-06-18T09:27:34Z</time>
      </trkpt>
      <trkpt lat="43.58901" lon="2.36016">
        <ele>339.482666</ele>
        <time>2014-06-18T09:27:44Z</time>
      </trkpt>
      <trkpt lat="43.58883" lon="2.36005">
        <ele>326.0241699</ele>
        <time>2014-06-18T09:28:02Z</time>
      </trkpt>
      <trkpt lat="43.58875" lon="2.36">
        <ele>320.7370605</ele>
        <time>2014-06-18T09:28:09Z</time>
      </trkpt>
      <trkpt lat="43.58872" lon="2.36">
        <ele>323.1403809</ele>
        <time>2014-06-18T09:28:13Z</time>
      </trkpt>
      <trkpt lat="43.58866" lon="2.36">
        <ele>324.1015625</ele>
        <time>2014-06-18T09:28:18Z</time>
      </trkpt>
      <trkpt lat="43.58864" lon="2.35999">
        <ele>324.1015625</ele>
        <time>2014-06-18T09:28:20Z</time>
      </trkpt>
      <trkpt lat="43.58858" lon="2.35991">
        <ele>322.1789551</ele>
        <time>2014-06-18T09:28:28Z</time>
      </trkpt>
      <trkpt lat="43.58854" lon="2.35985">
        <ele>319.2950439</ele>
        <time>2014-06-18T09:28:33Z</time>
      </trkpt>
      <trkpt lat="43.5885" lon="2.35984">
        <ele>319.7756348</ele>
        <time>2014-06-18T09:28:39Z</time>
      </trkpt>
      <trkpt lat="43.58851" lon="2.35979">
        <ele>319.7756348</ele>
        <time>2014-06-18T09:28:43Z</time>
      </trkpt>
      <trkpt lat="43.58858" lon="2.35983">
        <ele>321.2177734</ele>
        <time>2014-06-18T09:28:49Z</time>
      </trkpt>
      <trkpt lat="43.58862" lon="2.35983">
        <ele>321.2177734</ele>
        <time>2014-06-18T09:28:52Z</time>
      </trkpt>
      <trkpt lat="43.58875" lon="2.35984">
        <ele>323.6209717</ele>
        <time>2014-06-18T09:28:59Z</time>
      </trkpt>
      <trkpt lat="43.5888" lon="2.35979">
        <ele>325.0629883</ele>
        <time>2014-06-18T09:29:02Z</time>
      </trkpt>
      <trkpt lat="43.58885" lon="2.35975">
        <ele>322.659668</ele>
        <time>2014-06-18T09:29:05Z</time>
      </trkpt>
      <trkpt lat="43.58892" lon="2.35957">
        <ele>320.7370605</ele>
        <time>2014-06-18T09:29:12Z</time>
      </trkpt>
      <trkpt lat="43.58893" lon="2.35955">
        <ele>319.7756348</ele>
        <time>2014-06-18T09:29:13Z</time>
      </trkpt>
      <trkpt lat="43.58896" lon="2.35949">
        <ele>319.2950439</ele>
        <time>2014-06-18T09:29:16Z</time>
      </trkpt>
      <trkpt lat="43.58907" lon="2.35945">
        <ele>326.9855957</ele>
        <time>2014-06-18T09:29:22Z</time>
      </trkpt>
      <trkpt lat="43.58912" lon="2.35948">
        <ele>332.2728271</ele>
        <time>2014-06-18T09:29:24Z</time>
      </trkpt>
      <trkpt lat="43.58923" lon="2.35954">
        <ele>345.2506104</ele>
        <time>2014-06-18T09:29:30Z</time>
      </trkpt>
      <trkpt lat="43.58924" lon="2.35954">
        <ele>343.3278809</ele>
        <time>2014-06-18T09:29:35Z</time>
      </trkpt>
      <trkpt lat="43.58929" lon="2.35954">
        <ele>337.5600586</ele>
        <time>2014-06-18T09:29:39Z</time>
      </trkpt>
      <trkpt lat="43.58939" lon="2.35952">
        <ele>333.2341309</ele>
        <time>2014-06-18T09:29:44Z</time>
      </trkpt>
      <trkpt lat="43.58955" lon="2.35953">
        <ele>336.1181641</ele>
        <time>2014-06-18T09:29:50Z</time>
      </trkpt>
      <trkpt lat="43.5896" lon="2.35951">
        <ele>336.598877</ele>
        <time>2014-06-18T09:29:52Z</time>
      </trkpt>
      <trkpt lat="43.58968" lon="2.3595">
        <ele>336.1181641</ele>
        <time>2014-06-18T09:29:56Z</time>
      </trkpt>
      <trkpt lat="43.5898" lon="2.35946">
        <ele>333.7147217</ele>
        <time>2014-06-18T09:30:03Z</time>
      </trkpt>
      <trkpt lat="43.58986" lon="2.35944">
        <ele>333.2341309</ele>
        <time>2014-06-18T09:30:07Z</time>
      </trkpt>
      <trkpt lat="43.58996" lon="2.35936">
        <ele>333.7147217</ele>
        <time>2014-06-18T09:30:14Z</time>
      </trkpt>
      <trkpt lat="43.59003" lon="2.35923">
        <ele>334.1954346</ele>
        <time>2014-06-18T09:30:20Z</time>
      </trkpt>
      <trkpt lat="43.59012" lon="2.35909">
        <ele>337.0794678</ele>
        <time>2014-06-18T09:30:27Z</time>
      </trkpt>
      <trkpt lat="43.59014" lon="2.35903">
        <ele>339.0020752</ele>
        <time>2014-06-18T09:30:30Z</time>
      </trkpt>
      <trkpt lat="43.59018" lon="2.35884">
        <ele>340.9246826</ele>
        <time>2014-06-18T09:30:37Z</time>
      </trkpt>
      <trkpt lat="43.59018" lon="2.35881">
        <ele>341.4052734</ele>
        <time>2014-06-18T09:30:38Z</time>
      </trkpt>
      <trkpt lat="43.59011" lon="2.35872">
        <ele>340.4440918</ele>
        <time>2014-06-18T09:30:42Z</time>
      </trkpt>
      <trkpt lat="43.59006" lon="2.35878">
        <ele>339.9633789</ele>
        <time>2014-06-18T09:30:47Z</time>
      </trkpt>
      <trkpt lat="43.59007" lon="2.35883">
        <ele>340.9246826</ele>
        <time>2014-06-18T09:30:49Z</time>
      </trkpt>
      <trkpt lat="43.58998" lon="2.35893">
        <ele>339.9633789</ele>
        <time>2014-06-18T09:30:54Z</time>
      </trkpt>
      <trkpt lat="43.58993" lon="2.35899">
        <ele>341.8859863</ele>
        <time>2014-06-18T09:30:58Z</time>
      </trkpt>
      <trkpt lat="43.58984" lon="2.35906">
        <ele>344.2894287</ele>
        <time>2014-06-18T09:31:04Z</time>
      </trkpt>
      <trkpt lat="43.58981" lon="2.35907">
        <ele>342.84729</ele>
        <time>2014-06-18T09:31:06Z</time>
      </trkpt>
      <trkpt lat="43.58965" lon="2.35905">
        <ele>342.84729</ele>
        <time>2014-06-18T09:31:14Z</time>
      </trkpt>
      <trkpt lat="43.58955" lon="2.35899">
        <ele>341.8859863</ele>
        <time>2014-06-18T09:31:20Z</time>
      </trkpt>
      <trkpt lat="43.58952" lon="2.35895">
        <ele>342.84729</ele>
        <time>2014-06-18T09:31:23Z</time>
      </trkpt>
      <trkpt lat="43.5894" lon="2.35884">
        <ele>350.057251</ele>
        <time>2014-06-18T09:31:31Z</time>
      </trkpt>
      <trkpt lat="43.58931" lon="2.35877">
        <ele>356.786377</ele>
        <time>2014-06-18T09:31:36Z</time>
      </trkpt>
      <trkpt lat="43.58928" lon="2.35876">
        <ele>357.2670898</ele>
        <time>2014-06-18T09:31:38Z</time>
      </trkpt>
      <trkpt lat="43.58924" lon="2.35873">
        <ele>359.6704102</ele>
        <time>2014-06-18T09:31:42Z</time>
      </trkpt>
      <trkpt lat="43.58905" lon="2.35876">
        <ele>362.5543213</ele>
        <time>2014-06-18T09:31:49Z</time>
      </trkpt>
      <trkpt lat="43.589" lon="2.35876">
        <ele>360.6317139</ele>
        <time>2014-06-18T09:31:50Z</time>
      </trkpt>
      <trkpt lat="43.58885" lon="2.35876">
        <ele>357.2670898</ele>
        <time>2014-06-18T09:31:56Z</time>
      </trkpt>
      <trkpt lat="43.5887" lon="2.35864">
        <ele>350.5378418</ele>
        <time>2014-06-18T09:32:03Z</time>
      </trkpt>
      <trkpt lat="43.58865" lon="2.35844">
        <ele>350.057251</ele>
        <time>2014-06-18T09:32:10Z</time>
      </trkpt>
      <trkpt lat="43.58865" lon="2.35821">
        <ele>358.7089844</ele>
        <time>2014-06-18T09:32:17Z</time>
      </trkpt>
      <trkpt lat="43.58864" lon="2.35811">
        <ele>358.2283936</ele>
        <time>2014-06-18T09:32:20Z</time>
      </trkpt>
      <trkpt lat="43.58854" lon="2.35781">
        <ele>357.2670898</ele>
        <time>2014-06-18T09:32:27Z</time>
      </trkpt>
      <trkpt lat="43.58844" lon="2.35767">
        <ele>356.3057861</ele>
        <time>2014-06-18T09:32:31Z</time>
      </trkpt>
      <trkpt lat="43.58831" lon="2.35749">
        <ele>357.7478027</ele>
        <time>2014-06-18T09:32:37Z</time>
      </trkpt>
      <trkpt lat="43.5882" lon="2.35732">
        <ele>357.7478027</ele>
        <time>2014-06-18T09:32:43Z</time>
      </trkpt>
      <trkpt lat="43.58813" lon="2.35719">
        <ele>353.421875</ele>
        <time>2014-06-18T09:32:48Z</time>
      </trkpt>
      <trkpt lat="43.588" lon="2.35704">
        <ele>350.5378418</ele>
        <time>2014-06-18T09:32:54Z</time>
      </trkpt>
      <trkpt lat="43.5879" lon="2.35689">
        <ele>346.2120361</ele>
        <time>2014-06-18T09:32:59Z</time>
      </trkpt>
      <trkpt lat="43.58772" lon="2.35679">
        <ele>343.8085938</ele>
        <time>2014-06-18T09:33:04Z</time>
      </trkpt>
      <trkpt lat="43.5876" lon="2.35675">
        <ele>342.84729</ele>
        <time>2014-06-18T09:33:07Z</time>
      </trkpt>
      <trkpt lat="43.58751" lon="2.35673">
        <ele>342.84729</ele>
        <time>2014-06-18T09:33:09Z</time>
      </trkpt>
      <trkpt lat="43.58717" lon="2.35663">
        <ele>342.84729</ele>
        <time>2014-06-18T09:33:15Z</time>
      </trkpt>
      <trkpt lat="43.58683" lon="2.35654">
        <ele>341.4052734</ele>
        <time>2014-06-18T09:33:20Z</time>
      </trkpt>
      <trkpt lat="43.5864" lon="2.35646">
        <ele>338.5214844</ele>
        <time>2014-06-18T09:33:26Z</time>
      </trkpt>
      <trkpt lat="43.58618" lon="2.35642">
        <ele>339.0020752</ele>
        <time>2014-06-18T09:33:29Z</time>
      </trkpt>
      <trkpt lat="43.586" lon="2.35627">
        <ele>340.4440918</ele>
        <time>2014-06-18T09:33:33Z</time>
      </trkpt>
      <trkpt lat="43.58603" lon="2.35616">
        <ele>340.4440918</ele>
        <time>2014-06-18T09:33:35Z</time>
      </trkpt>
      <trkpt lat="43.58604" lon="2.35598">
        <ele>337.0794678</ele>
        <time>2014-06-18T09:33:38Z</time>
      </trkpt>
      <trkpt lat="43.58595" lon="2.35578">
        <ele>336.598877</ele>
        <time>2014-06-18T09:33:43Z</time>
      </trkpt>
      <trkpt lat="43.58584" lon="2.35578">
        <ele>334.1954346</ele>
        <time>2014-06-18T09:33:46Z</time>
      </trkpt>
      <trkpt lat="43.58549" lon="2.35578">
        <ele>322.659668</ele>
        <time>2014-06-18T09:33:51Z</time>
      </trkpt>
      <trkpt lat="43.58498" lon="2.35563">
        <ele>316.4110107</ele>
        <time>2014-06-18T09:33:58Z</time>
      </trkpt>
      <trkpt lat="43.58484" lon="2.35559">
        <ele>314.0078125</ele>
        <time>2014-06-18T09:34:00Z</time>
      </trkpt>
      <trkpt lat="43.58465" lon="2.35556">
        <ele>311.6044922</ele>
        <time>2014-06-18T09:34:04Z</time>
      </trkpt>
      <trkpt lat="43.58442" lon="2.3556">
        <ele>310.1624756</ele>
        <time>2014-06-18T09:34:09Z</time>
      </trkpt>
      <trkpt lat="43.58443" lon="2.35547">
        <ele>310.6430664</ele>
        <time>2014-06-18T09:34:13Z</time>
      </trkpt>
      <trkpt lat="43.58453" lon="2.35526">
        <ele>308.720459</ele>
        <time>2014-06-18T09:34:17Z</time>
      </trkpt>
      <trkpt lat="43.58459" lon="2.35518">
        <ele>307.7592773</ele>
        <time>2014-06-18T09:34:19Z</time>
      </trkpt>
      <trkpt lat="43.58489" lon="2.355">
        <ele>306.3172607</ele>
        <time>2014-06-18T09:34:25Z</time>
      </trkpt>
      <trkpt lat="43.58519" lon="2.3548">
        <ele>302.9525146</ele>
        <time>2014-06-18T09:34:30Z</time>
      </trkpt>
      <trkpt lat="43.5855" lon="2.35459">
        <ele>299.1072998</ele>
        <time>2014-06-18T09:34:35Z</time>
      </trkpt>
      <trkpt lat="43.58569" lon="2.35439">
        <ele>294.3007813</ele>
        <time>2014-06-18T09:34:39Z</time>
      </trkpt>
      <trkpt lat="43.58577" lon="2.35428">
        <ele>292.8587646</ele>
        <time>2014-06-18T09:34:41Z</time>
      </trkpt>
      <trkpt lat="43.58586" lon="2.35417">
        <ele>293.3393555</ele>
        <time>2014-06-18T09:34:44Z</time>
      </trkpt>
      <trkpt lat="43.58596" lon="2.35409">
        <ele>292.8587646</ele>
        <time>2014-06-18T09:34:48Z</time>
      </trkpt>
      <trkpt lat="43.58608" lon="2.35397">
        <ele>292.8587646</ele>
        <time>2014-06-18T09:34:54Z</time>
      </trkpt>
      <trkpt lat="43.58609" lon="2.35391">
        <ele>294.3007813</ele>
        <time>2014-06-18T09:35:04Z</time>
      </trkpt>
      <trkpt lat="43.5861" lon="2.35388">
        <ele>295.2619629</ele>
        <time>2014-06-18T09:35:33Z</time>
      </trkpt>
      <trkpt lat="43.58617" lon="2.35381">
        <ele>295.7426758</ele>
        <time>2014-06-18T09:35:38Z</time>
      </trkpt>
      <trkpt lat="43.58635" lon="2.35359">
        <ele>294.7813721</ele>
        <time>2014-06-18T09:35:43Z</time>
      </trkpt>
      <trkpt lat="43.5865" lon="2.35328">
        <ele>292.8587646</ele>
        <time>2014-06-18T09:35:47Z</time>
      </trkpt>
      <trkpt lat="43.58668" lon="2.35299">
        <ele>296.7041016</ele>
        <time>2014-06-18T09:35:52Z</time>
      </trkpt>
      <trkpt lat="43.58682" lon="2.3529">
        <ele>303.4332275</ele>
        <time>2014-06-18T09:35:56Z</time>
      </trkpt>
      <trkpt lat="43.58691" lon="2.35285">
        <ele>308.720459</ele>
        <time>2014-06-18T09:36:01Z</time>
      </trkpt>
      <trkpt lat="43.58703" lon="2.35278">
        <ele>314.0078125</ele>
        <time>2014-06-18T09:36:06Z</time>
      </trkpt>
      <trkpt lat="43.58709" lon="2.35261">
        <ele>313.0465088</ele>
        <time>2014-06-18T09:36:12Z</time>
      </trkpt>
      <trkpt lat="43.58712" lon="2.35247">
        <ele>310.1624756</ele>
        <time>2014-06-18T09:36:16Z</time>
      </trkpt>
      <trkpt lat="43.58714" lon="2.35235">
        <ele>306.7978516</ele>
        <time>2014-06-18T09:36:20Z</time>
      </trkpt>
      <trkpt lat="43.58722" lon="2.35216">
        <ele>301.5106201</ele>
        <time>2014-06-18T09:36:26Z</time>
      </trkpt>
      <trkpt lat="43.58731" lon="2.35202">
        <ele>298.626709</ele>
        <time>2014-06-18T09:36:32Z</time>
      </trkpt>
      <trkpt lat="43.58739" lon="2.35193">
        <ele>299.5880127</ele>
        <time>2014-06-18T09:36:37Z</time>
      </trkpt>
      <trkpt lat="43.58749" lon="2.35181">
        <ele>299.5880127</ele>
        <time>2014-06-18T09:36:42Z</time>
      </trkpt>
      <trkpt lat="43.58758" lon="2.35172">
        <ele>299.1072998</ele>
        <time>2014-06-18T09:36:47Z</time>
      </trkpt>
      <trkpt lat="43.5877" lon="2.35158">
        <ele>302.9525146</ele>
        <time>2014-06-18T09:36:53Z</time>
      </trkpt>
      <trkpt lat="43.58777" lon="2.35143">
        <ele>301.0299072</ele>
        <time>2014-06-18T09:36:58Z</time>
      </trkpt>
      <trkpt lat="43.58785" lon="2.3513">
        <ele>302.9525146</ele>
        <time>2014-06-18T09:37:03Z</time>
      </trkpt>
      <trkpt lat="43.5879" lon="2.35116">
        <ele>307.7592773</ele>
        <time>2014-06-18T09:37:08Z</time>
      </trkpt>
      <trkpt lat="43.58795" lon="2.35099">
        <ele>308.2398682</ele>
        <time>2014-06-18T09:37:13Z</time>
      </trkpt>
      <trkpt lat="43.58803" lon="2.35084">
        <ele>310.1624756</ele>
        <time>2014-06-18T09:37:19Z</time>
      </trkpt>
      <trkpt lat="43.58812" lon="2.35067">
        <ele>309.6818848</ele>
        <time>2014-06-18T09:37:25Z</time>
      </trkpt>
      <trkpt lat="43.5882" lon="2.35047">
        <ele>309.6818848</ele>
        <time>2014-06-18T09:37:32Z</time>
      </trkpt>
      <trkpt lat="43.58832" lon="2.35022">
        <ele>313.0465088</ele>
        <time>2014-06-18T09:37:41Z</time>
      </trkpt>
      <trkpt lat="43.58836" lon="2.35009">
        <ele>314.0078125</ele>
        <time>2014-06-18T09:37:46Z</time>
      </trkpt>
      <trkpt lat="43.58836" lon="2.34994">
        <ele>317.3724365</ele>
        <time>2014-06-18T09:37:51Z</time>
      </trkpt>
      <trkpt lat="43.58842" lon="2.34976">
        <ele>316.8917236</ele>
        <time>2014-06-18T09:37:59Z</time>
      </trkpt>
      <trkpt lat="43.58851" lon="2.34959">
        <ele>313.5272217</ele>
        <time>2014-06-18T09:38:06Z</time>
      </trkpt>
      <trkpt lat="43.58859" lon="2.34942">
        <ele>312.5657959</ele>
        <time>2014-06-18T09:38:13Z</time>
      </trkpt>
      <trkpt lat="43.58863" lon="2.34927">
        <ele>313.5272217</ele>
        <time>2014-06-18T09:38:18Z</time>
      </trkpt>
      <trkpt lat="43.58868" lon="2.34912">
        <ele>316.4110107</ele>
        <time>2014-06-18T09:38:23Z</time>
      </trkpt>
      <trkpt lat="43.58874" lon="2.34892">
        <ele>315.9304199</ele>
        <time>2014-06-18T09:38:31Z</time>
      </trkpt>
      <trkpt lat="43.58878" lon="2.34879">
        <ele>314.0078125</ele>
        <time>2014-06-18T09:38:36Z</time>
      </trkpt>
      <trkpt lat="43.58877" lon="2.34865">
        <ele>312.5657959</ele>
        <time>2014-06-18T09:38:41Z</time>
      </trkpt>
      <trkpt lat="43.58881" lon="2.34847">
        <ele>317.3724365</ele>
        <time>2014-06-18T09:38:48Z</time>
      </trkpt>
      <trkpt lat="43.58885" lon="2.34832">
        <ele>324.1015625</ele>
        <time>2014-06-18T09:38:54Z</time>
      </trkpt>
      <trkpt lat="43.58891" lon="2.3482">
        <ele>333.2341309</ele>
        <time>2014-06-18T09:39:00Z</time>
      </trkpt>
      <trkpt lat="43.58893" lon="2.34817">
        <ele>334.6761475</ele>
        <time>2014-06-18T09:39:02Z</time>
      </trkpt>
      <trkpt lat="43.58906" lon="2.34816">
        <ele>343.3278809</ele>
        <time>2014-06-18T09:39:09Z</time>
      </trkpt>
      <trkpt lat="43.58915" lon="2.34823">
        <ele>348.6152344</ele>
        <time>2014-06-18T09:39:14Z</time>
      </trkpt>
      <trkpt lat="43.58917" lon="2.3483">
        <ele>348.6152344</ele>
        <time>2014-06-18T09:39:19Z</time>
      </trkpt>
      <trkpt lat="43.58923" lon="2.34844">
        <ele>342.3666992</ele>
        <time>2014-06-18T09:39:27Z</time>
      </trkpt>
      <trkpt lat="43.58931" lon="2.34856">
        <ele>345.2506104</ele>
        <time>2014-06-18T09:39:33Z</time>
      </trkpt>
      <trkpt lat="43.5894" lon="2.34867">
        <ele>349.0958252</ele>
        <time>2014-06-18T09:39:39Z</time>
      </trkpt>
      <trkpt lat="43.58949" lon="2.34879">
        <ele>349.0958252</ele>
        <time>2014-06-18T09:39:44Z</time>
      </trkpt>
      <trkpt lat="43.58953" lon="2.34887">
        <ele>349.0958252</ele>
        <time>2014-06-18T09:39:48Z</time>
      </trkpt>
      <trkpt lat="43.58959" lon="2.34902">
        <ele>347.1732178</ele>
        <time>2014-06-18T09:39:54Z</time>
      </trkpt>
      <trkpt lat="43.58968" lon="2.34917">
        <ele>349.0958252</ele>
        <time>2014-06-18T09:40:00Z</time>
      </trkpt>
      <trkpt lat="43.58976" lon="2.34928">
        <ele>351.0184326</ele>
        <time>2014-06-18T09:40:06Z</time>
      </trkpt>
      <trkpt lat="43.58995" lon="2.34929">
        <ele>354.3831787</ele>
        <time>2014-06-18T09:40:14Z</time>
      </trkpt>
      <trkpt lat="43.58999" lon="2.34926">
        <ele>354.8637695</ele>
        <time>2014-06-18T09:40:16Z</time>
      </trkpt>
      <trkpt lat="43.59012" lon="2.34913">
        <ele>353.421875</ele>
        <time>2014-06-18T09:40:24Z</time>
      </trkpt>
      <trkpt lat="43.59024" lon="2.34891">
        <ele>355.3444824</ele>
        <time>2014-06-18T09:40:31Z</time>
      </trkpt>
      <trkpt lat="43.59025" lon="2.34873">
        <ele>351.9798584</ele>
        <time>2014-06-18T09:40:36Z</time>
      </trkpt>
      <trkpt lat="43.59027" lon="2.34851">
        <ele>354.3831787</ele>
        <time>2014-06-18T09:40:43Z</time>
      </trkpt>
      <trkpt lat="43.59024" lon="2.34848">
        <ele>354.3831787</ele>
        <time>2014-06-18T09:40:44Z</time>
      </trkpt>
      <trkpt lat="43.59026" lon="2.34832">
        <ele>359.1896973</ele>
        <time>2014-06-18T09:40:48Z</time>
      </trkpt>
      <trkpt lat="43.59022" lon="2.34804">
        <ele>359.6704102</ele>
        <time>2014-06-18T09:40:55Z</time>
      </trkpt>
      <trkpt lat="43.59022" lon="2.34779">
        <ele>358.2283936</ele>
        <time>2014-06-18T09:41:00Z</time>
      </trkpt>
      <trkpt lat="43.59024" lon="2.34759">
        <ele>356.786377</ele>
        <time>2014-06-18T09:41:05Z</time>
      </trkpt>
      <trkpt lat="43.59018" lon="2.34725">
        <ele>350.057251</ele>
        <time>2014-06-18T09:41:12Z</time>
      </trkpt>
      <trkpt lat="43.59018" lon="2.347">
        <ele>351.9798584</ele>
        <time>2014-06-18T09:41:17Z</time>
      </trkpt>
      <trkpt lat="43.59022" lon="2.34671">
        <ele>353.9025879</ele>
        <time>2014-06-18T09:41:23Z</time>
      </trkpt>
      <trkpt lat="43.59021" lon="2.34652">
        <ele>355.3444824</ele>
        <time>2014-06-18T09:41:28Z</time>
      </trkpt>
      <trkpt lat="43.5902" lon="2.34631">
        <ele>356.3057861</ele>
        <time>2014-06-18T09:41:34Z</time>
      </trkpt>
      <trkpt lat="43.59021" lon="2.34609">
        <ele>357.7478027</ele>
        <time>2014-06-18T09:41:40Z</time>
      </trkpt>
      <trkpt lat="43.59018" lon="2.34584">
        <ele>356.3057861</ele>
        <time>2014-06-18T09:41:45Z</time>
      </trkpt>
      <trkpt lat="43.59013" lon="2.3455">
        <ele>356.3057861</ele>
        <time>2014-06-18T09:41:51Z</time>
      </trkpt>
      <trkpt lat="43.59011" lon="2.34518">
        <ele>353.9025879</ele>
        <time>2014-06-18T09:41:56Z</time>
      </trkpt>
      <trkpt lat="43.59011" lon="2.34511">
        <ele>353.9025879</ele>
        <time>2014-06-18T09:41:57Z</time>
      </trkpt>
      <trkpt lat="43.59006" lon="2.34476">
        <ele>353.421875</ele>
        <time>2014-06-18T09:42:03Z</time>
      </trkpt>
      <trkpt lat="43.59004" lon="2.34464">
        <ele>354.3831787</ele>
        <time>2014-06-18T09:42:05Z</time>
      </trkpt>
      <trkpt lat="43.59005" lon="2.34453">
        <ele>357.2670898</ele>
        <time>2014-06-18T09:42:07Z</time>
      </trkpt>
      <trkpt lat="43.59006" lon="2.34442">
        <ele>358.7089844</ele>
        <time>2014-06-18T09:42:09Z</time>
      </trkpt>
      <trkpt lat="43.59006" lon="2.34417">
        <ele>361.5931396</ele>
        <time>2014-06-18T09:42:14Z</time>
      </trkpt>
      <trkpt lat="43.59009" lon="2.34376">
        <ele>362.0737305</ele>
        <time>2014-06-18T09:42:21Z</time>
      </trkpt>
      <trkpt lat="43.59009" lon="2.34371">
        <ele>362.5543213</ele>
        <time>2014-06-18T09:42:22Z</time>
      </trkpt>
      <trkpt lat="43.59012" lon="2.34359">
        <ele>365.4383545</ele>
        <time>2014-06-18T09:42:24Z</time>
      </trkpt>
      <trkpt lat="43.59024" lon="2.34329">
        <ele>372.1674805</ele>
        <time>2014-06-18T09:42:29Z</time>
      </trkpt>
      <trkpt lat="43.59028" lon="2.34319">
        <ele>372.6481934</ele>
        <time>2014-06-18T09:42:31Z</time>
      </trkpt>
      <trkpt lat="43.59031" lon="2.34301">
        <ele>367.8415527</ele>
        <time>2014-06-18T09:42:35Z</time>
      </trkpt>
      <trkpt lat="43.59036" lon="2.34281">
        <ele>363.9963379</ele>
        <time>2014-06-18T09:42:41Z</time>
      </trkpt>
      <trkpt lat="43.59039" lon="2.34265">
        <ele>362.5543213</ele>
        <time>2014-06-18T09:42:46Z</time>
      </trkpt>
      <trkpt lat="43.59034" lon="2.34244">
        <ele>357.7478027</ele>
        <time>2014-06-18T09:42:53Z</time>
      </trkpt>
      <trkpt lat="43.59024" lon="2.34227">
        <ele>359.1896973</ele>
        <time>2014-06-18T09:42:59Z</time>
      </trkpt>
      <trkpt lat="43.59023" lon="2.34224">
        <ele>360.151123</ele>
        <time>2014-06-18T09:43:04Z</time>
      </trkpt>
      <trkpt lat="43.59023" lon="2.34223">
        <ele>362.5543213</ele>
        <time>2014-06-18T09:43:12Z</time>
      </trkpt>
      <trkpt lat="43.59023" lon="2.34223">
        <ele>363.0350342</ele>
        <time>2014-06-18T09:43:17Z</time>
      </trkpt>
      <trkpt lat="43.59021" lon="2.34222">
        <ele>363.9963379</ele>
        <time>2014-06-18T09:43:21Z</time>
      </trkpt>
      <trkpt lat="43.59021" lon="2.34222">
        <ele>364.9576416</ele>
        <time>2014-06-18T09:43:26Z</time>
      </trkpt>
      <trkpt lat="43.5902" lon="2.34221">
        <ele>364.9576416</ele>
        <time>2014-06-18T09:43:33Z</time>
      </trkpt>
      <trkpt lat="43.5902" lon="2.34222">
        <ele>363.9963379</ele>
        <time>2014-06-18T09:43:42Z</time>
      </trkpt>
      <trkpt lat="43.59019" lon="2.3422">
        <ele>365.9189453</ele>
        <time>2014-06-18T09:43:53Z</time>
      </trkpt>
      <trkpt lat="43.59016" lon="2.3422">
        <ele>364.9576416</ele>
        <time>2014-06-18T09:44:03Z</time>
      </trkpt>
      <trkpt lat="43.59015" lon="2.34219">
        <ele>370.7255859</ele>
        <time>2014-06-18T09:44:20Z</time>
      </trkpt>
      <trkpt lat="43.59015" lon="2.34221">
        <ele>372.1674805</ele>
        <time>2014-06-18T09:44:36Z</time>
      </trkpt>
      <trkpt lat="43.59015" lon="2.34222">
        <ele>373.6094971</ele>
        <time>2014-06-18T09:44:51Z</time>
      </trkpt>
      <trkpt lat="43.59015" lon="2.34224">
        <ele>375.5321045</ele>
        <time>2014-06-18T09:45:04Z</time>
      </trkpt>
      <trkpt lat="43.59007" lon="2.34225">
        <ele>378.8968506</ele>
        <time>2014-06-18T09:45:47Z</time>
      </trkpt>
      <trkpt lat="43.59008" lon="2.34224">
        <ele>379.3774414</ele>
        <time>2014-06-18T09:45:57Z</time>
      </trkpt>
      <trkpt lat="43.59008" lon="2.34214">
        <ele>379.3774414</ele>
        <time>2014-06-18T09:46:15Z</time>
      </trkpt>
      <trkpt lat="43.59004" lon="2.34197">
        <ele>379.3774414</ele>
        <time>2014-06-18T09:46:21Z</time>
      </trkpt>
      <trkpt lat="43.58996" lon="2.34172">
        <ele>376.0128174</ele>
        <time>2014-06-18T09:46:26Z</time>
      </trkpt>
      <trkpt lat="43.58991" lon="2.34157">
        <ele>372.1674805</ele>
        <time>2014-06-18T09:46:30Z</time>
      </trkpt>
      <trkpt lat="43.58993" lon="2.34156">
        <ele>367.3609619</ele>
        <time>2014-06-18T09:46:35Z</time>
      </trkpt>
      <trkpt lat="43.5899" lon="2.34145">
        <ele>357.2670898</ele>
        <time>2014-06-18T09:46:47Z</time>
      </trkpt>
      <trkpt lat="43.58974" lon="2.34121">
        <ele>351.4991455</ele>
        <time>2014-06-18T09:46:53Z</time>
      </trkpt>
      <trkpt lat="43.58958" lon="2.34099">
        <ele>346.2120361</ele>
        <time>2014-06-18T09:46:58Z</time>
      </trkpt>
      <trkpt lat="43.58956" lon="2.34095">
        <ele>345.2506104</ele>
        <time>2014-06-18T09:46:59Z</time>
      </trkpt>
      <trkpt lat="43.58939" lon="2.34065">
        <ele>344.2894287</ele>
        <time>2014-06-18T09:47:06Z</time>
      </trkpt>
      <trkpt lat="43.5893" lon="2.34028">
        <ele>339.482666</ele>
        <time>2014-06-18T09:47:11Z</time>
      </trkpt>
      <trkpt lat="43.58925" lon="2.33989">
        <ele>337.5600586</ele>
        <time>2014-06-18T09:47:15Z</time>
      </trkpt>
      <trkpt lat="43.58922" lon="2.33973">
        <ele>336.1181641</ele>
        <time>2014-06-18T09:47:17Z</time>
      </trkpt>
      <trkpt lat="43.5892" lon="2.33941">
        <ele>331.7921143</ele>
        <time>2014-06-18T09:47:21Z</time>
      </trkpt>
      <trkpt lat="43.58923" lon="2.33896">
        <ele>333.7147217</ele>
        <time>2014-06-18T09:47:26Z</time>
      </trkpt>
      <trkpt lat="43.58931" lon="2.33845">
        <ele>336.1181641</ele>
        <time>2014-06-18T09:47:32Z</time>
      </trkpt>
      <trkpt lat="43.58937" lon="2.3382">
        <ele>333.2341309</ele>
        <time>2014-06-18T09:47:35Z</time>
      </trkpt>
      <trkpt lat="43.58934" lon="2.33787">
        <ele>334.1954346</ele>
        <time>2014-06-18T09:47:38Z</time>
      </trkpt>
      <trkpt lat="43.5893" lon="2.33733">
        <ele>334.6761475</ele>
        <time>2014-06-18T09:47:44Z</time>
      </trkpt>
      <trkpt lat="43.5893" lon="2.33725">
        <ele>334.6761475</ele>
        <time>2014-06-18T09:47:45Z</time>
      </trkpt>
      <trkpt lat="43.58926" lon="2.33688">
        <ele>333.7147217</ele>
        <time>2014-06-18T09:47:51Z</time>
      </trkpt>
      <trkpt lat="43.58925" lon="2.33682">
        <ele>333.7147217</ele>
        <time>2014-06-18T09:47:52Z</time>
      </trkpt>
      <trkpt lat="43.58914" lon="2.33666">
        <ele>331.3115234</ele>
        <time>2014-06-18T09:47:57Z</time>
      </trkpt>
      <trkpt lat="43.58904" lon="2.33658">
        <ele>330.8309326</ele>
        <time>2014-06-18T09:48:01Z</time>
      </trkpt>
      <trkpt lat="43.58887" lon="2.33655">
        <ele>330.3502197</ele>
        <time>2014-06-18T09:48:07Z</time>
      </trkpt>
      <trkpt lat="43.58872" lon="2.33662">
        <ele>329.8695068</ele>
        <time>2014-06-18T09:48:12Z</time>
      </trkpt>
      <trkpt lat="43.58855" lon="2.33679">
        <ele>326.9855957</ele>
        <time>2014-06-18T09:48:16Z</time>
      </trkpt>
      <trkpt lat="43.58847" lon="2.33693">
        <ele>326.0241699</ele>
        <time>2014-06-18T09:48:18Z</time>
      </trkpt>
      <trkpt lat="43.58841" lon="2.33718">
        <ele>323.6209717</ele>
        <time>2014-06-18T09:48:21Z</time>
      </trkpt>
      <trkpt lat="43.58824" lon="2.33771">
        <ele>323.1403809</ele>
        <time>2014-06-18T09:48:28Z</time>
      </trkpt>
      <trkpt lat="43.58822" lon="2.33779">
        <ele>322.1789551</ele>
        <time>2014-06-18T09:48:29Z</time>
      </trkpt>
      <trkpt lat="43.58808" lon="2.33805">
        <ele>320.2563477</ele>
        <time>2014-06-18T09:48:33Z</time>
      </trkpt>
      <trkpt lat="43.58789" lon="2.33804">
        <ele>319.7756348</ele>
        <time>2014-06-18T09:48:36Z</time>
      </trkpt>
      <trkpt lat="43.58768" lon="2.33814">
        <ele>318.8143311</ele>
        <time>2014-06-18T09:48:40Z</time>
      </trkpt>
      <trkpt lat="43.58764" lon="2.33819">
        <ele>317.8530273</ele>
        <time>2014-06-18T09:48:41Z</time>
      </trkpt>
      <trkpt lat="43.58731" lon="2.33868">
        <ele>313.5272217</ele>
        <time>2014-06-18T09:48:48Z</time>
      </trkpt>
      <trkpt lat="43.58715" lon="2.33882">
        <ele>312.0852051</ele>
        <time>2014-06-18T09:48:51Z</time>
      </trkpt>
      <trkpt lat="43.58678" lon="2.339">
        <ele>310.6430664</ele>
        <time>2014-06-18T09:48:58Z</time>
      </trkpt>
      <trkpt lat="43.58657" lon="2.33897">
        <ele>310.1624756</ele>
        <time>2014-06-18T09:49:02Z</time>
      </trkpt>
      <trkpt lat="43.58641" lon="2.3388">
        <ele>309.6818848</ele>
        <time>2014-06-18T09:49:06Z</time>
      </trkpt>
      <trkpt lat="43.58627" lon="2.33847">
        <ele>309.6818848</ele>
        <time>2014-06-18T09:49:12Z</time>
      </trkpt>
      <trkpt lat="43.58611" lon="2.33826">
        <ele>308.720459</ele>
        <time>2014-06-18T09:49:16Z</time>
      </trkpt>
      <trkpt lat="43.58592" lon="2.33824">
        <ele>310.6430664</ele>
        <time>2014-06-18T09:49:20Z</time>
      </trkpt>
      <trkpt lat="43.58578" lon="2.33836">
        <ele>307.7592773</ele>
        <time>2014-06-18T09:49:23Z</time>
      </trkpt>
      <trkpt lat="43.58548" lon="2.33879">
        <ele>304.8752441</ele>
        <time>2014-06-18T09:49:30Z</time>
      </trkpt>
      <trkpt lat="43.58519" lon="2.33914">
        <ele>307.7592773</ele>
        <time>2014-06-18T09:49:36Z</time>
      </trkpt>
      <trkpt lat="43.58512" lon="2.33925">
        <ele>308.720459</ele>
        <time>2014-06-18T09:49:38Z</time>
      </trkpt>
      <trkpt lat="43.58478" lon="2.33956">
        <ele>304.3946533</ele>
        <time>2014-06-18T09:49:45Z</time>
      </trkpt>
      <trkpt lat="43.58462" lon="2.33971">
        <ele>302.9525146</ele>
        <time>2014-06-18T09:49:48Z</time>
      </trkpt>
      <trkpt lat="43.58447" lon="2.33983">
        <ele>301.0299072</ele>
        <time>2014-06-18T09:49:52Z</time>
      </trkpt>
      <trkpt lat="43.58436" lon="2.33985">
        <ele>300.0687256</ele>
        <time>2014-06-18T09:49:55Z</time>
      </trkpt>
      <trkpt lat="43.58426" lon="2.33986">
        <ele>298.626709</ele>
        <time>2014-06-18T09:49:59Z</time>
      </trkpt>
      <trkpt lat="43.58425" lon="2.33985">
        <ele>299.1072998</ele>
        <time>2014-06-18T09:50:01Z</time>
      </trkpt>
      <trkpt lat="43.58419" lon="2.33989">
        <ele>298.626709</ele>
        <time>2014-06-18T09:50:06Z</time>
      </trkpt>
      <trkpt lat="43.58414" lon="2.33994">
        <ele>299.1072998</ele>
        <time>2014-06-18T09:50:08Z</time>
      </trkpt>
      <trkpt lat="43.58391" lon="2.34017">
        <ele>299.5880127</ele>
        <time>2014-06-18T09:50:15Z</time>
      </trkpt>
      <trkpt lat="43.58383" lon="2.34025">
        <ele>299.5880127</ele>
        <time>2014-06-18T09:50:17Z</time>
      </trkpt>
      <trkpt lat="43.58361" lon="2.3404">
        <ele>298.1461182</ele>
        <time>2014-06-18T09:50:22Z</time>
      </trkpt>
      <trkpt lat="43.58348" lon="2.34052">
        <ele>297.1846924</ele>
        <time>2014-06-18T09:50:25Z</time>
      </trkpt>
      <trkpt lat="43.58326" lon="2.34057">
        <ele>296.2235107</ele>
        <time>2014-06-18T09:50:29Z</time>
      </trkpt>
      <trkpt lat="43.58302" lon="2.34062">
        <ele>295.2619629</ele>
        <time>2014-06-18T09:50:33Z</time>
      </trkpt>
      <trkpt lat="43.58285" lon="2.34073">
        <ele>294.7813721</ele>
        <time>2014-06-18T09:50:36Z</time>
      </trkpt>
      <trkpt lat="43.58267" lon="2.34083">
        <ele>293.8200684</ele>
        <time>2014-06-18T09:50:39Z</time>
      </trkpt>
      <trkpt lat="43.58246" lon="2.3408">
        <ele>294.3007813</ele>
        <time>2014-06-18T09:50:43Z</time>
      </trkpt>
      <trkpt lat="43.5824" lon="2.34055">
        <ele>292.3781738</ele>
        <time>2014-06-18T09:50:46Z</time>
      </trkpt>
      <trkpt lat="43.58222" lon="2.34044">
        <ele>292.3781738</ele>
        <time>2014-06-18T09:50:49Z</time>
      </trkpt>
      <trkpt lat="43.58205" lon="2.34053">
        <ele>293.8200684</ele>
        <time>2014-06-18T09:50:52Z</time>
      </trkpt>
      <trkpt lat="43.58189" lon="2.34067">
        <ele>294.3007813</ele>
        <time>2014-06-18T09:50:55Z</time>
      </trkpt>
      <trkpt lat="43.58169" lon="2.34072">
        <ele>291.8974609</ele>
        <time>2014-06-18T09:50:59Z</time>
      </trkpt>
      <trkpt lat="43.5816" lon="2.34052">
        <ele>289.4941406</ele>
        <time>2014-06-18T09:51:02Z</time>
      </trkpt>
      <trkpt lat="43.58141" lon="2.34017">
        <ele>288.0522461</ele>
        <time>2014-06-18T09:51:07Z</time>
      </trkpt>
      <trkpt lat="43.58115" lon="2.34001">
        <ele>287.0908203</ele>
        <time>2014-06-18T09:51:11Z</time>
      </trkpt>
      <trkpt lat="43.58097" lon="2.34013">
        <ele>286.6102295</ele>
        <time>2014-06-18T09:51:14Z</time>
      </trkpt>
      <trkpt lat="43.58093" lon="2.34021">
        <ele>286.1295166</ele>
        <time>2014-06-18T09:51:15Z</time>
      </trkpt>
      <trkpt lat="43.58079" lon="2.34069">
        <ele>290.4555664</ele>
        <time>2014-06-18T09:51:20Z</time>
      </trkpt>
      <trkpt lat="43.58082" lon="2.34094">
        <ele>290.9361572</ele>
        <time>2014-06-18T09:51:23Z</time>
      </trkpt>
      <trkpt lat="43.58088" lon="2.34119">
        <ele>293.3393555</ele>
        <time>2014-06-18T09:51:26Z</time>
      </trkpt>
      <trkpt lat="43.58084" lon="2.34149">
        <ele>292.3781738</ele>
        <time>2014-06-18T09:51:30Z</time>
      </trkpt>
      <trkpt lat="43.58067" lon="2.34165">
        <ele>291.8974609</ele>
        <time>2014-06-18T09:51:33Z</time>
      </trkpt>
      <trkpt lat="43.58056" lon="2.34173">
        <ele>290.4555664</ele>
        <time>2014-06-18T09:51:35Z</time>
      </trkpt>
      <trkpt lat="43.58033" lon="2.34179">
        <ele>289.4941406</ele>
        <time>2014-06-18T09:51:39Z</time>
      </trkpt>
      <trkpt lat="43.58022" lon="2.34171">
        <ele>289.0135498</ele>
        <time>2014-06-18T09:51:41Z</time>
      </trkpt>
      <trkpt lat="43.57978" lon="2.34133">
        <ele>285.1682129</ele>
        <time>2014-06-18T09:51:49Z</time>
      </trkpt>
      <trkpt lat="43.57965" lon="2.34126">
        <ele>285.6488037</ele>
        <time>2014-06-18T09:51:52Z</time>
      </trkpt>
      <trkpt lat="43.57951" lon="2.34122">
        <ele>285.1682129</ele>
        <time>2014-06-18T09:51:56Z</time>
      </trkpt>
      <trkpt lat="43.57936" lon="2.34128">
        <ele>288.0522461</ele>
        <time>2014-06-18T09:52:03Z</time>
      </trkpt>
      <trkpt lat="43.57935" lon="2.3413">
        <ele>288.0522461</ele>
        <time>2014-06-18T09:52:04Z</time>
      </trkpt>
      <trkpt lat="43.57933" lon="2.34148">
        <ele>287.5714111</ele>
        <time>2014-06-18T09:52:08Z</time>
      </trkpt>
      <trkpt lat="43.57934" lon="2.34155">
        <ele>287.5714111</ele>
        <time>2014-06-18T09:52:11Z</time>
      </trkpt>
      <trkpt lat="43.57933" lon="2.34155">
        <ele>291.416748</ele>
        <time>2014-06-18T09:52:24Z</time>
      </trkpt>
      <trkpt lat="43.57933" lon="2.34154">
        <ele>288.532959</ele>
        <time>2014-06-18T09:52:44Z</time>
      </trkpt>
      <trkpt lat="43.57934" lon="2.34154">
        <ele>287.5714111</ele>
        <time>2014-06-18T09:52:50Z</time>
      </trkpt>
      <trkpt lat="43.57934" lon="2.34154">
        <ele>287.0908203</ele>
        <time>2014-06-18T09:52:58Z</time>
      </trkpt>
      <trkpt lat="43.57934" lon="2.34155">
        <ele>287.0908203</ele>
        <time>2014-06-18T09:53:03Z</time>
      </trkpt>
      <trkpt lat="43.57934" lon="2.3416">
        <ele>296.2235107</ele>
        <time>2014-06-18T09:53:24Z</time>
      </trkpt>
      <trkpt lat="43.57934" lon="2.34161">
        <ele>297.6654053</ele>
        <time>2014-06-18T09:53:29Z</time>
      </trkpt>
      <trkpt lat="43.57934" lon="2.34156">
        <ele>291.8974609</ele>
        <time>2014-06-18T09:54:13Z</time>
      </trkpt>
      <trkpt lat="43.57933" lon="2.34151">
        <ele>292.3781738</ele>
        <time>2014-06-18T09:54:18Z</time>
      </trkpt>
      <trkpt lat="43.57933" lon="2.34147">
        <ele>292.3781738</ele>
        <time>2014-06-18T09:54:20Z</time>
      </trkpt>
      <trkpt lat="43.57932" lon="2.34137">
        <ele>292.8587646</ele>
        <time>2014-06-18T09:54:25Z</time>
      </trkpt>
      <trkpt lat="43.57923" lon="2.34143">
        <ele>293.3393555</ele>
        <time>2014-06-18T09:54:31Z</time>
      </trkpt>
      <trkpt lat="43.5791" lon="2.34152">
        <ele>290.9361572</ele>
        <time>2014-06-18T09:54:36Z</time>
      </trkpt>
      <trkpt lat="43.57898" lon="2.34159">
        <ele>289.4941406</ele>
        <time>2014-06-18T09:54:41Z</time>
      </trkpt>
      <trkpt lat="43.57886" lon="2.34163">
        <ele>287.0908203</ele>
        <time>2014-06-18T09:54:46Z</time>
      </trkpt>
      <trkpt lat="43.57883" lon="2.34166">
        <ele>285.6488037</ele>
        <time>2014-06-18T09:54:48Z</time>
      </trkpt>
      <trkpt lat="43.57873" lon="2.34166">
        <ele>285.1682129</ele>
        <time>2014-06-18T09:54:54Z</time>
      </trkpt>
      <trkpt lat="43.57872" lon="2.34167">
        <ele>285.1682129</ele>
        <time>2014-06-18T09:54:55Z</time>
      </trkpt>
      <trkpt lat="43.5786" lon="2.34166">
        <ele>281.322998</ele>
        <time>2014-06-18T09:55:00Z</time>
      </trkpt>
      <trkpt lat="43.57855" lon="2.34165">
        <ele>281.322998</ele>
        <time>2014-06-18T09:55:02Z</time>
      </trkpt>
      <trkpt lat="43.57844" lon="2.34165">
        <ele>285.1682129</ele>
        <time>2014-06-18T09:55:09Z</time>
      </trkpt>
      <trkpt lat="43.57826" lon="2.3417">
        <ele>286.1295166</ele>
        <time>2014-06-18T09:55:15Z</time>
      </trkpt>
      <trkpt lat="43.57812" lon="2.34176">
        <ele>286.6102295</ele>
        <time>2014-06-18T09:55:20Z</time>
      </trkpt>
      <trkpt lat="43.57808" lon="2.3418">
        <ele>286.6102295</ele>
        <time>2014-06-18T09:55:22Z</time>
      </trkpt>
      <trkpt lat="43.5779" lon="2.34186">
        <ele>289.4941406</ele>
        <time>2014-06-18T09:55:29Z</time>
      </trkpt>
      <trkpt lat="43.57783" lon="2.34186">
        <ele>290.4555664</ele>
        <time>2014-06-18T09:55:34Z</time>
      </trkpt>
      <trkpt lat="43.57779" lon="2.34185">
        <ele>291.416748</ele>
        <time>2014-06-18T09:55:40Z</time>
      </trkpt>
      <trkpt lat="43.57777" lon="2.34183">
        <ele>292.3781738</ele>
        <time>2014-06-18T09:55:47Z</time>
      </trkpt>
      <trkpt lat="43.57771" lon="2.34181">
        <ele>290.4555664</ele>
        <time>2014-06-18T09:55:55Z</time>
      </trkpt>
      <trkpt lat="43.57762" lon="2.34182">
        <ele>289.4941406</ele>
        <time>2014-06-18T09:55:59Z</time>
      </trkpt>
      <trkpt lat="43.57745" lon="2.34177">
        <ele>286.1295166</ele>
        <time>2014-06-18T09:56:04Z</time>
      </trkpt>
      <trkpt lat="43.57733" lon="2.34174">
        <ele>284.2069092</ele>
        <time>2014-06-18T09:56:09Z</time>
      </trkpt>
      <trkpt lat="43.57719" lon="2.34175">
        <ele>281.322998</ele>
        <time>2014-06-18T09:56:14Z</time>
      </trkpt>
      <trkpt lat="43.57703" lon="2.34175">
        <ele>277.958252</ele>
        <time>2014-06-18T09:56:19Z</time>
      </trkpt>
      <trkpt lat="43.57686" lon="2.34176">
        <ele>273.1518555</ele>
        <time>2014-06-18T09:56:25Z</time>
      </trkpt>
      <trkpt lat="43.5767" lon="2.34173">
        <ele>269.7871094</ele>
        <time>2014-06-18T09:56:30Z</time>
      </trkpt>
      <trkpt lat="43.57656" lon="2.34176">
        <ele>267.3839111</ele>
        <time>2014-06-18T09:56:35Z</time>
      </trkpt>
      <trkpt lat="43.57637" lon="2.34193">
        <ele>264.9805908</ele>
        <time>2014-06-18T09:56:41Z</time>
      </trkpt>
      <trkpt lat="43.57616" lon="2.3421">
        <ele>262.0965576</ele>
        <time>2014-06-18T09:56:47Z</time>
      </trkpt>
      <trkpt lat="43.57593" lon="2.34233">
        <ele>257.770752</ele>
        <time>2014-06-18T09:56:53Z</time>
      </trkpt>
      <trkpt lat="43.5758" lon="2.34246">
        <ele>254.4060059</ele>
        <time>2014-06-18T09:56:56Z</time>
      </trkpt>
      <trkpt lat="43.5757" lon="2.34256">
        <ele>252.0028076</ele>
        <time>2014-06-18T09:56:58Z</time>
      </trkpt>
      <trkpt lat="43.57541" lon="2.34284">
        <ele>246.2348633</ele>
        <time>2014-06-18T09:57:04Z</time>
      </trkpt>
      <trkpt lat="43.57524" lon="2.343">
        <ele>242.8702393</ele>
        <time>2014-06-18T09:57:08Z</time>
      </trkpt>
      <trkpt lat="43.57516" lon="2.34307">
        <ele>241.4282227</ele>
        <time>2014-06-18T09:57:10Z</time>
      </trkpt>
      <trkpt lat="43.57498" lon="2.34319">
        <ele>239.9862061</ele>
        <time>2014-06-18T09:57:15Z</time>
      </trkpt>
      <trkpt lat="43.57492" lon="2.34314">
        <ele>240.9476318</ele>
        <time>2014-06-18T09:57:20Z</time>
      </trkpt>
      <trkpt lat="43.57492" lon="2.34311">
        <ele>240.467041</ele>
        <time>2014-06-18T09:57:21Z</time>
      </trkpt>
      <trkpt lat="43.57492" lon="2.34282">
        <ele>240.467041</ele>
        <time>2014-06-18T09:57:27Z</time>
      </trkpt>
      <trkpt lat="43.57488" lon="2.3424">
        <ele>239.9862061</ele>
        <time>2014-06-18T09:57:34Z</time>
      </trkpt>
      <trkpt lat="43.57486" lon="2.34198">
        <ele>240.467041</ele>
        <time>2014-06-18T09:57:40Z</time>
      </trkpt>
      <trkpt lat="43.57485" lon="2.34142">
        <ele>239.9862061</ele>
        <time>2014-06-18T09:57:47Z</time>
      </trkpt>
      <trkpt lat="43.57489" lon="2.34109">
        <ele>239.5054932</ele>
        <time>2014-06-18T09:57:51Z</time>
      </trkpt>
      <trkpt lat="43.57495" lon="2.34052">
        <ele>239.5054932</ele>
        <time>2014-06-18T09:57:58Z</time>
      </trkpt>
      <trkpt lat="43.57513" lon="2.33998">
        <ele>238.0635986</ele>
        <time>2014-06-18T09:58:05Z</time>
      </trkpt>
      <trkpt lat="43.57534" lon="2.33954">
        <ele>236.6217041</ele>
        <time>2014-06-18T09:58:11Z</time>
      </trkpt>
      <trkpt lat="43.57558" lon="2.33905">
        <ele>237.1022949</ele>
        <time>2014-06-18T09:58:17Z</time>
      </trkpt>
      <trkpt lat="43.57577" lon="2.33859">
        <ele>235.6602783</ele>
        <time>2014-06-18T09:58:22Z</time>
      </trkpt>
      <trkpt lat="43.57603" lon="2.33782">
        <ele>235.1796875</ele>
        <time>2014-06-18T09:58:30Z</time>
      </trkpt>
      <trkpt lat="43.57616" lon="2.33732">
        <ele>233.7376709</ele>
        <time>2014-06-18T09:58:35Z</time>
      </trkpt>
      <trkpt lat="43.57623" lon="2.33635">
        <ele>232.7764893</ele>
        <time>2014-06-18T09:58:44Z</time>
      </trkpt>
      <trkpt lat="43.57621" lon="2.33573">
        <ele>232.7764893</ele>
        <time>2014-06-18T09:58:50Z</time>
      </trkpt>
      <trkpt lat="43.57618" lon="2.33516">
        <ele>233.2570801</ele>
        <time>2014-06-18T09:58:56Z</time>
      </trkpt>
      <trkpt lat="43.57618" lon="2.33456">
        <ele>231.8149414</ele>
        <time>2014-06-18T09:59:02Z</time>
      </trkpt>
      <trkpt lat="43.57624" lon="2.33403">
        <ele>231.8149414</ele>
        <time>2014-06-18T09:59:07Z</time>
      </trkpt>
      <trkpt lat="43.57626" lon="2.33391">
        <ele>231.8149414</ele>
        <time>2014-06-18T09:59:08Z</time>
      </trkpt>
      <trkpt lat="43.57628" lon="2.33334">
        <ele>229.4117432</ele>
        <time>2014-06-18T09:59:13Z</time>
      </trkpt>
      <trkpt lat="43.57626" lon="2.3328">
        <ele>227.9697266</ele>
        <time>2014-06-18T09:59:18Z</time>
      </trkpt>
      <trkpt lat="43.57628" lon="2.3323">
        <ele>228.4504395</ele>
        <time>2014-06-18T09:59:23Z</time>
      </trkpt>
      <trkpt lat="43.57634" lon="2.33155">
        <ele>227.9697266</ele>
        <time>2014-06-18T09:59:31Z</time>
      </trkpt>
      <trkpt lat="43.5764" lon="2.33118">
        <ele>227.0085449</ele>
        <time>2014-06-18T09:59:36Z</time>
      </trkpt>
      <trkpt lat="43.57639" lon="2.33077">
        <ele>229.4117432</ele>
        <time>2014-06-18T09:59:41Z</time>
      </trkpt>
      <trkpt lat="43.57634" lon="2.33021">
        <ele>232.2957764</ele>
        <time>2014-06-18T09:59:47Z</time>
      </trkpt>
      <trkpt lat="43.5763" lon="2.32965">
        <ele>230.8537598</ele>
        <time>2014-06-18T09:59:53Z</time>
      </trkpt>
      <trkpt lat="43.57625" lon="2.3291">
        <ele>229.892334</ele>
        <time>2014-06-18T09:59:58Z</time>
      </trkpt>
      <trkpt lat="43.57625" lon="2.32893">
        <ele>229.892334</ele>
        <time>2014-06-18T10:00:00Z</time>
      </trkpt>
      <trkpt lat="43.57624" lon="2.32856">
        <ele>230.3730469</ele>
        <time>2014-06-18T10:00:05Z</time>
      </trkpt>
      <trkpt lat="43.57621" lon="2.32812">
        <ele>229.4117432</ele>
        <time>2014-06-18T10:00:11Z</time>
      </trkpt>
      <trkpt lat="43.57618" lon="2.3276">
        <ele>228.9311523</ele>
        <time>2014-06-18T10:00:17Z</time>
      </trkpt>
      <trkpt lat="43.57614" lon="2.32723">
        <ele>228.4504395</ele>
        <time>2014-06-18T10:00:21Z</time>
      </trkpt>
      <trkpt lat="43.57608" lon="2.32631">
        <ele>229.892334</ele>
        <time>2014-06-18T10:00:31Z</time>
      </trkpt>
      <trkpt lat="43.57599" lon="2.32572">
        <ele>228.4504395</ele>
        <time>2014-06-18T10:00:37Z</time>
      </trkpt>
      <trkpt lat="43.57583" lon="2.3248">
        <ele>225.5665283</ele>
        <time>2014-06-18T10:00:46Z</time>
      </trkpt>
      <trkpt lat="43.57567" lon="2.324">
        <ele>224.6052246</ele>
        <time>2014-06-18T10:00:53Z</time>
      </trkpt>
      <trkpt lat="43.57549" lon="2.32311">
        <ele>221.7211914</ele>
        <time>2014-06-18T10:01:00Z</time>
      </trkpt>
      <trkpt lat="43.57531" lon="2.32225">
        <ele>218.3565674</ele>
        <time>2014-06-18T10:01:07Z</time>
      </trkpt>
      <trkpt lat="43.57519" lon="2.32156">
        <ele>218.3565674</ele>
        <time>2014-06-18T10:01:13Z</time>
      </trkpt>
      <trkpt lat="43.57519" lon="2.32103">
        <ele>218.3565674</ele>
        <time>2014-06-18T10:01:18Z</time>
      </trkpt>
      <trkpt lat="43.57517" lon="2.32062">
        <ele>220.7598877</ele>
        <time>2014-06-18T10:01:22Z</time>
      </trkpt>
      <trkpt lat="43.57507" lon="2.32008">
        <ele>218.8372803</ele>
        <time>2014-06-18T10:01:27Z</time>
      </trkpt>
      <trkpt lat="43.57481" lon="2.31935">
        <ele>219.3179932</ele>
        <time>2014-06-18T10:01:33Z</time>
      </trkpt>
      <trkpt lat="43.57457" lon="2.31881">
        <ele>220.7598877</ele>
        <time>2014-06-18T10:01:38Z</time>
      </trkpt>
      <trkpt lat="43.57445" lon="2.31845">
        <ele>221.2406006</ele>
        <time>2014-06-18T10:01:42Z</time>
      </trkpt>
      <trkpt lat="43.57437" lon="2.31809">
        <ele>221.2406006</ele>
        <time>2014-06-18T10:01:47Z</time>
      </trkpt>
      <trkpt lat="43.57425" lon="2.31756">
        <ele>225.0859375</ele>
        <time>2014-06-18T10:01:54Z</time>
      </trkpt>
      <trkpt lat="43.57421" lon="2.31732">
        <ele>225.0859375</ele>
        <time>2014-06-18T10:01:57Z</time>
      </trkpt>
      <trkpt lat="43.57405" lon="2.31692">
        <ele>221.7211914</ele>
        <time>2014-06-18T10:02:02Z</time>
      </trkpt>
      <trkpt lat="43.57376" lon="2.31653">
        <ele>219.3179932</ele>
        <time>2014-06-18T10:02:08Z</time>
      </trkpt>
      <trkpt lat="43.57335" lon="2.31599">
        <ele>216.9146729</ele>
        <time>2014-06-18T10:02:16Z</time>
      </trkpt>
      <trkpt lat="43.57331" lon="2.31593">
        <ele>216.9146729</ele>
        <time>2014-06-18T10:02:17Z</time>
      </trkpt>
      <trkpt lat="43.57314" lon="2.31555">
        <ele>215.9532471</ele>
        <time>2014-06-18T10:02:22Z</time>
      </trkpt>
      <trkpt lat="43.57301" lon="2.31514">
        <ele>214.5112305</ele>
        <time>2014-06-18T10:02:27Z</time>
      </trkpt>
      <trkpt lat="43.57294" lon="2.31498">
        <ele>214.5112305</ele>
        <time>2014-06-18T10:02:29Z</time>
      </trkpt>
      <trkpt lat="43.57284" lon="2.31476">
        <ele>213.0693359</ele>
        <time>2014-06-18T10:02:32Z</time>
      </trkpt>
      <trkpt lat="43.57274" lon="2.31451">
        <ele>211.6274414</ele>
        <time>2014-06-18T10:02:35Z</time>
      </trkpt>
      <trkpt lat="43.57262" lon="2.31392">
        <ele>210.1854248</ele>
        <time>2014-06-18T10:02:41Z</time>
      </trkpt>
      <trkpt lat="43.57255" lon="2.31348">
        <ele>209.704834</ele>
        <time>2014-06-18T10:02:46Z</time>
      </trkpt>
      <trkpt lat="43.57247" lon="2.31304">
        <ele>209.704834</ele>
        <time>2014-06-18T10:02:51Z</time>
      </trkpt>
      <trkpt lat="43.57233" lon="2.31245">
        <ele>209.704834</ele>
        <time>2014-06-18T10:02:58Z</time>
      </trkpt>
      <trkpt lat="43.57214" lon="2.31178">
        <ele>209.704834</ele>
        <time>2014-06-18T10:03:06Z</time>
      </trkpt>
      <trkpt lat="43.57207" lon="2.31155">
        <ele>208.2628174</ele>
        <time>2014-06-18T10:03:09Z</time>
      </trkpt>
      <trkpt lat="43.57188" lon="2.311">
        <ele>206.8206787</ele>
        <time>2014-06-18T10:03:16Z</time>
      </trkpt>
      <trkpt lat="43.5717" lon="2.3108">
        <ele>205.8594971</ele>
        <time>2014-06-18T10:03:20Z</time>
      </trkpt>
      <trkpt lat="43.57159" lon="2.3108">
        <ele>205.8594971</ele>
        <time>2014-06-18T10:03:22Z</time>
      </trkpt>
      <trkpt lat="43.57148" lon="2.31083">
        <ele>204.8980713</ele>
        <time>2014-06-18T10:03:24Z</time>
      </trkpt>
      <trkpt lat="43.57118" lon="2.31096">
        <ele>203.4561768</ele>
        <time>2014-06-18T10:03:30Z</time>
      </trkpt>
      <trkpt lat="43.57097" lon="2.31096">
        <ele>204.8980713</ele>
        <time>2014-06-18T10:03:34Z</time>
      </trkpt>
      <trkpt lat="43.57088" lon="2.31078">
        <ele>206.3400879</ele>
        <time>2014-06-18T10:03:38Z</time>
      </trkpt>
      <trkpt lat="43.57083" lon="2.31059">
        <ele>206.3400879</ele>
        <time>2014-06-18T10:03:41Z</time>
      </trkpt>
      <trkpt lat="43.57078" lon="2.31044">
        <ele>204.8980713</ele>
        <time>2014-06-18T10:03:43Z</time>
      </trkpt>
      <trkpt lat="43.57056" lon="2.30989">
        <ele>204.8980713</ele>
        <time>2014-06-18T10:03:50Z</time>
      </trkpt>
      <trkpt lat="43.57042" lon="2.30959">
        <ele>205.3787842</ele>
        <time>2014-06-18T10:03:54Z</time>
      </trkpt>
      <trkpt lat="43.57005" lon="2.30917">
        <ele>205.8594971</ele>
        <time>2014-06-18T10:04:02Z</time>
      </trkpt>
      <trkpt lat="43.56973" lon="2.30893">
        <ele>205.8594971</ele>
        <time>2014-06-18T10:04:08Z</time>
      </trkpt>
      <trkpt lat="43.56936" lon="2.30874">
        <ele>206.8206787</ele>
        <time>2014-06-18T10:04:15Z</time>
      </trkpt>
      <trkpt lat="43.56928" lon="2.3087">
        <ele>206.8206787</ele>
        <time>2014-06-18T10:04:17Z</time>
      </trkpt>
      <trkpt lat="43.56906" lon="2.3087">
        <ele>208.2628174</ele>
        <time>2014-06-18T10:04:22Z</time>
      </trkpt>
      <trkpt lat="43.56883" lon="2.30873">
        <ele>212.1080322</ele>
        <time>2014-06-18T10:04:29Z</time>
      </trkpt>
      <trkpt lat="43.5687" lon="2.30868">
        <ele>214.5112305</ele>
        <time>2014-06-18T10:04:34Z</time>
      </trkpt>
      <trkpt lat="43.56857" lon="2.30884">
        <ele>216.9146729</ele>
        <time>2014-06-18T10:04:40Z</time>
      </trkpt>
      <trkpt lat="43.56849" lon="2.30908">
        <ele>214.5112305</ele>
        <time>2014-06-18T10:04:45Z</time>
      </trkpt>
      <trkpt lat="43.56841" lon="2.30936">
        <ele>216.9146729</ele>
        <time>2014-06-18T10:04:50Z</time>
      </trkpt>
      <trkpt lat="43.56833" lon="2.3096">
        <ele>217.3953857</ele>
        <time>2014-06-18T10:04:54Z</time>
      </trkpt>
      <trkpt lat="43.56823" lon="2.30978">
        <ele>217.3953857</ele>
        <time>2014-06-18T10:04:58Z</time>
      </trkpt>
      <trkpt lat="43.56814" lon="2.30977">
        <ele>218.3565674</ele>
        <time>2014-06-18T10:05:00Z</time>
      </trkpt>
      <trkpt lat="43.56802" lon="2.30973">
        <ele>218.8372803</ele>
        <time>2014-06-18T10:05:03Z</time>
      </trkpt>
    </trkseg>
  </trk>
</gpx>